Wetterdaten: Montag, 11.07.2016
Datum Zeit Temp. A. Feuchte A. Luftdruck Regen Wind Richtung Richtung Sonnenschein ET UV Solar Taupunkt Windchill Windben Empfang
11.07.2016 00:00 21,0 C 80 % 1011,1 hPa 0,0 l/m 7,4 km/h (2 Bft) SW 231 0 min 0,000 mm 0,0 UV-I 0 W/m 17,4 C 20,6 C 12,9 km/h (3 Bft) 100,00 %
11.07.2016 00:02 21,1 C 79 % 1010,8 hPa 0,0 l/m 4,9 km/h (1 Bft) W-SW 240 0 min 0,000 mm 0,0 UV-I 0 W/m 17,3 C 21,1 C 11,3 km/h (2 Bft) 100,00 %
11.07.2016 00:04 21,2 C 79 % 1010,7 hPa 0,0 l/m 2,2 km/h (1 Bft) S-SW 199 0 min 0,000 mm 0,0 UV-I 0 W/m 17,4 C 21,2 C 4,8 km/h (1 Bft) 100,00 %
11.07.2016 00:06 21,3 C 79 % 1010,6 hPa 0,0 l/m 1,9 km/h (1 Bft) S-SW 199 0 min 0,000 mm 0,0 UV-I 0 W/m 17,5 C 21,3 C 3,2 km/h (1 Bft) 100,00 %
11.07.2016 00:08 21,3 C 79 % 1010,6 hPa 0,0 l/m 1,8 km/h (1 Bft) S-SW 199 0 min 0,000 mm 0,0 UV-I 0 W/m 17,5 C 21,3 C 3,2 km/h (1 Bft) 100,00 %
11.07.2016 00:10 21,4 C 79 % 1010,7 hPa 0,0 l/m 4,0 km/h (1 Bft) W 279 0 min 0,000 mm 0,0 UV-I 0 W/m 17,6 C 21,4 C 6,4 km/h (2 Bft) 100,00 %
11.07.2016 00:12 21,4 C 78 % 1010,7 hPa 0,0 l/m 3,7 km/h (1 Bft) S-SW 196 0 min 0,000 mm 0,0 UV-I 0 W/m 17,4 C 21,4 C 6,4 km/h (2 Bft) 98,04 %
11.07.2016 00:14 21,4 C 78 % 1010,6 hPa 0,0 l/m 4,0 km/h (1 Bft) S-SO 167 0 min 0,000 mm 0,0 UV-I 0 W/m 17,4 C 21,4 C 8,0 km/h (2 Bft) 100,00 %
11.07.2016 00:16 21,4 C 78 % 1010,4 hPa 0,0 l/m 5,4 km/h (1 Bft) SO 126 0 min 0,000 mm 0,0 UV-I 0 W/m 17,4 C 21,4 C 11,3 km/h (2 Bft) 97,87 %
11.07.2016 00:18 21,4 C 79 % 1010,3 hPa 0,0 l/m 7,9 km/h (2 Bft) S-SO 147 0 min 0,000 mm 0,0 UV-I 0 W/m 17,6 C 20,9 C 12,9 km/h (3 Bft) 100,00 %
11.07.2016 00:20 21,4 C 79 % 1010,3 hPa 0,0 l/m 2,7 km/h (1 Bft) S-SO 161 0 min 0,000 mm 0,0 UV-I 0 W/m 17,6 C 21,4 C 6,4 km/h (2 Bft) 98,11 %
11.07.2016 00:22 21,4 C 79 % 1010,1 hPa 0,0 l/m 6,0 km/h (2 Bft) SO 140 0 min 0,000 mm 0,0 UV-I 0 W/m 17,6 C 21,4 C 12,9 km/h (3 Bft) 100,00 %
11.07.2016 00:24 21,4 C 78 % 1010,0 hPa 0,0 l/m 7,9 km/h (2 Bft) SO 124 0 min 0,000 mm 0,0 UV-I 0 W/m 17,4 C 20,9 C 11,3 km/h (2 Bft) 100,00 %
11.07.2016 00:26 21,5 C 78 % 1009,9 hPa 0,0 l/m 6,4 km/h (2 Bft) SO 134 0 min 0,000 mm 0,0 UV-I 0 W/m 17,5 C 21,5 C 11,3 km/h (2 Bft) 100,00 %
11.07.2016 00:28 21,6 C 78 % 1009,9 hPa 0,0 l/m 5,1 km/h (1 Bft) S-SO 153 0 min 0,000 mm 0,0 UV-I 0 W/m 17,6 C 21,6 C 9,7 km/h (2 Bft) 100,00 %
11.07.2016 00:30 21,7 C 78 % 1009,9 hPa 0,0 l/m 5,5 km/h (1 Bft) SO 139 0 min 0,000 mm 0,0 UV-I 0 W/m 17,7 C 21,7 C 12,9 km/h (3 Bft) 100,00 %
11.07.2016 00:32 21,8 C 78 % 1009,8 hPa 0,0 l/m 6,4 km/h (2 Bft) SO 129 0 min 0,000 mm 0,0 UV-I 0 W/m 17,8 C 21,8 C 12,9 km/h (3 Bft) 100,00 %
11.07.2016 00:34 21,8 C 78 % 1009,7 hPa 0,0 l/m 7,2 km/h (2 Bft) S-SO 154 0 min 0,000 mm 0,0 UV-I 0 W/m 17,8 C 21,5 C 14,5 km/h (3 Bft) 100,00 %
11.07.2016 00:36 21,8 C 78 % 1009,7 hPa 0,0 l/m 5,1 km/h (1 Bft) S-SO 162 0 min 0,000 mm 0,0 UV-I 0 W/m 17,8 C 21,8 C 9,7 km/h (2 Bft) 100,00 %
11.07.2016 00:38 21,9 C 78 % 1009,7 hPa 0,0 l/m 6,6 km/h (2 Bft) S 181 0 min 0,000 mm 0,0 UV-I 0 W/m 17,9 C 21,8 C 9,7 km/h (2 Bft) 100,00 %
11.07.2016 00:40 21,9 C 78 % 1009,6 hPa 0,0 l/m 2,0 km/h (1 Bft) S-SO 165 0 min 0,000 mm 0,0 UV-I 0 W/m 17,9 C 21,9 C 3,2 km/h (1 Bft) 100,00 %
11.07.2016 00:42 21,9 C 78 % 1009,5 hPa 0,0 l/m 1,8 km/h (1 Bft) S-SO 165 0 min 0,000 mm 0,0 UV-I 0 W/m 17,9 C 21,9 C 6,4 km/h (2 Bft) 100,00 %
11.07.2016 00:44 21,9 C 79 % 1009,5 hPa 0,0 l/m 4,6 km/h (1 Bft) O-SO 116 0 min 0,000 mm 0,0 UV-I 0 W/m 18,1 C 21,9 C 9,7 km/h (2 Bft) 100,00 %
11.07.2016 00:46 21,9 C 80 % 1009,5 hPa 0,0 l/m 4,9 km/h (1 Bft) S-SO 155 0 min 0,000 mm 0,0 UV-I 0 W/m 18,3 C 21,9 C 11,3 km/h (2 Bft) 100,00 %
11.07.2016 00:48 22,0 C 80 % 1009,6 hPa 0,0 l/m 1,5 km/h (1 Bft) SO 144 0 min 0,000 mm 0,0 UV-I 0 W/m 18,4 C 22,0 C 4,8 km/h (1 Bft) 100,00 %
11.07.2016 00:50 22,0 C 79 % 1010,0 hPa 0,0 l/m 6,9 km/h (2 Bft) W-NW 285 0 min 0,000 mm 0,0 UV-I 0 W/m 18,2 C 21,8 C 12,9 km/h (3 Bft) 100,00 %
11.07.2016 00:52 21,8 C 78 % 1010,4 hPa 0,0 l/m 4,1 km/h (1 Bft) SW 232 0 min 0,000 mm 0,0 UV-I 0 W/m 17,8 C 21,8 C 9,7 km/h (2 Bft) 97,73 %
11.07.2016 00:54 21,6 C 79 % 1010,7 hPa 0,0 l/m 6,4 km/h (2 Bft) W-SW 244 0 min 0,000 mm 0,0 UV-I 0 W/m 17,8 C 21,6 C 12,9 km/h (3 Bft) 100,00 %
11.07.2016 00:56 21,4 C 79 % 1010,5 hPa 0,0 l/m 3,5 km/h (1 Bft) N-NW 327 0 min 0,000 mm 0,0 UV-I 0 W/m 17,6 C 21,4 C 6,4 km/h (2 Bft) 98,00 %
11.07.2016 00:58 21,3 C 80 % 1010,6 hPa 0,0 l/m 3,5 km/h (1 Bft) W-NW 288 0 min 0,000 mm 0,0 UV-I 0 W/m 17,7 C 21,3 C 6,4 km/h (2 Bft) 100,00 %
11.07.2016 01:00 21,3 C 80 % 1010,5 hPa 0,0 l/m 4,0 km/h (1 Bft) W-NW 299 0 min 0,025 mm 0,0 UV-I 0 W/m 17,7 C 21,3 C 9,7 km/h (2 Bft) 100,00 %
11.07.2016 01:02 21,3 C 80 % 1010,5 hPa 0,0 l/m 2,2 km/h (1 Bft) NW 307 0 min 0,000 mm 0,0 UV-I 0 W/m 17,7 C 21,3 C 4,8 km/h (1 Bft) 96,00 %
11.07.2016 01:04 21,2 C 80 % 1010,4 hPa 0,0 l/m 2,0 km/h (1 Bft) N 9 0 min 0,000 mm 0,0 UV-I 0 W/m 17,6 C 21,2 C 4,8 km/h (1 Bft) 95,83 %
11.07.2016 01:06 21,2 C 81 % 1010,4 hPa 0,0 l/m 1,8 km/h (1 Bft) N-NW 341 0 min 0,000 mm 0,0 UV-I 0 W/m 17,8 C 21,2 C 3,2 km/h (1 Bft) 97,56 %
11.07.2016 01:08 21,1 C 81 % 1010,4 hPa 0,0 l/m 1,8 km/h (1 Bft) W-NW 298 0 min 0,000 mm 0,0 UV-I 0 W/m 17,7 C 21,1 C 3,2 km/h (1 Bft) 98,28 %
11.07.2016 01:10 21,1 C 81 % 1010,4 hPa 0,0 l/m 1,5 km/h (1 Bft) W-NW 298 0 min 0,000 mm 0,0 UV-I 0 W/m 17,7 C 21,1 C 3,2 km/h (1 Bft) 94,87 %
11.07.2016 01:12 21,2 C 81 % 1010,3 hPa 0,0 l/m 2,5 km/h (1 Bft) W 274 0 min 0,000 mm 0,0 UV-I 0 W/m 17,8 C 21,2 C 6,4 km/h (2 Bft) 98,11 %
11.07.2016 01:14 21,3 C 81 % 1010,4 hPa 0,0 l/m 5,0 km/h (1 Bft) W 267 0 min 0,000 mm 0,0 UV-I 0 W/m 17,9 C 21,3 C 6,4 km/h (2 Bft) 97,87 %
11.07.2016 01:16 21,4 C 81 % 1010,4 hPa 0,0 l/m 3,8 km/h (1 Bft) W 274 0 min 0,000 mm 0,0 UV-I 0 W/m 18,0 C 21,4 C 6,4 km/h (2 Bft) 97,87 %
11.07.2016 01:18 21,4 C 80 % 1010,4 hPa 0,0 l/m 3,4 km/h (1 Bft) W-SW 243 0 min 0,000 mm 0,0 UV-I 0 W/m 17,8 C 21,4 C 6,4 km/h (2 Bft) 96,00 %
11.07.2016 01:20 21,3 C 80 % 1010,4 hPa 0,0 l/m 3,6 km/h (1 Bft) W-SW 243 0 min 0,000 mm 0,0 UV-I 0 W/m 17,7 C 21,3 C 4,8 km/h (1 Bft) 97,37 %
11.07.2016 01:22 21,3 C 81 % 1010,4 hPa 0,0 l/m 4,1 km/h (1 Bft) W-SW 243 0 min 0,000 mm 0,0 UV-I 0 W/m 17,9 C 21,3 C 6,4 km/h (2 Bft) 98,00 %
11.07.2016 01:24 21,2 C 81 % 1010,4 hPa 0,0 l/m 2,1 km/h (1 Bft) W-SW 243 0 min 0,000 mm 0,0 UV-I 0 W/m 17,8 C 21,2 C 3,2 km/h (1 Bft) 97,87 %
11.07.2016 01:26 21,2 C 81 % 1010,4 hPa 0,0 l/m 1,6 km/h (1 Bft) W-SW 238 0 min 0,000 mm 0,0 UV-I 0 W/m 17,8 C 21,2 C 3,2 km/h (1 Bft) 97,56 %
11.07.2016 01:28 21,1 C 82 % 1010,5 hPa 0,0 l/m 1,9 km/h (1 Bft) S 178 0 min 0,000 mm 0,0 UV-I 0 W/m 17,9 C 21,1 C 4,8 km/h (1 Bft) 97,87 %
11.07.2016 01:30 21,1 C 82 % 1010,5 hPa 0,0 l/m 1,8 km/h (1 Bft) S 178 0 min 0,000 mm 0,0 UV-I 0 W/m 17,9 C 21,1 C 3,2 km/h (1 Bft) 98,00 %
11.07.2016 01:32 21,1 C 82 % 1010,5 hPa 0,0 l/m 1,3 km/h (1 Bft) S 178 0 min 0,000 mm 0,0 UV-I 0 W/m 17,9 C 21,1 C 3,2 km/h (1 Bft) 97,73 %
11.07.2016 01:34 21,0 C 82 % 1010,5 hPa 0,0 l/m 0,6 km/h (0 Bft) S 178 0 min 0,000 mm 0,0 UV-I 0 W/m 17,8 C 21,0 C 1,6 km/h (1 Bft) 100,00 %
11.07.2016 01:36 21,0 C 82 % 1010,5 hPa 0,0 l/m 0,1 km/h (0 Bft) S 178 0 min 0,000 mm 0,0 UV-I 0 W/m 17,8 C 21,0 C 1,6 km/h (1 Bft) 100,00 %
11.07.2016 01:38 21,0 C 82 % 1010,4 hPa 0,0 l/m 0,0 km/h (0 Bft) S 178 0 min 0,000 mm 0,0 UV-I 0 W/m 17,8 C 21,0 C 0,0 km/h (0 Bft) 100,00 %
11.07.2016 01:40 20,9 C 82 % 1010,5 hPa 0,0 l/m 0,0 km/h (0 Bft) S 178 0 min 0,000 mm 0,0 UV-I 0 W/m 17,7 C 20,9 C 0,0 km/h (0 Bft) 96,72 %
11.07.2016 01:42 20,8 C 82 % 1010,5 hPa 0,0 l/m 0,0 km/h (0 Bft) S 178 0 min 0,000 mm 0,0 UV-I 0 W/m 17,6 C 20,8 C 0,0 km/h (0 Bft) 100,00 %
11.07.2016 01:44 20,8 C 82 % 1010,4 hPa 0,0 l/m 1,6 km/h (1 Bft) S 178 0 min 0,000 mm 0,0 UV-I 0 W/m 17,6 C 20,8 C 3,2 km/h (1 Bft) 100,00 %
11.07.2016 01:46 20,8 C 82 % 1010,3 hPa 0,0 l/m 2,6 km/h (1 Bft) S 178 0 min 0,000 mm 0,0 UV-I 0 W/m 17,6 C 20,8 C 4,8 km/h (1 Bft) 100,00 %
11.07.2016 01:48 20,6 C 83 % 1010,3 hPa 0,0 l/m 5,3 km/h (1 Bft) SO 127 0 min 0,000 mm 0,0 UV-I 0 W/m 17,6 C 20,6 C 8,0 km/h (2 Bft) 100,00 %
11.07.2016 01:50 20,4 C 83 % 1010,3 hPa 0,0 l/m 2,5 km/h (1 Bft) SO 127 0 min 0,000 mm 0,0 UV-I 0 W/m 17,4 C 20,4 C 4,8 km/h (1 Bft) 98,00 %
11.07.2016 01:52 20,4 C 84 % 1010,4 hPa 0,0 l/m 3,6 km/h (1 Bft) NW 310 0 min 0,000 mm 0,0 UV-I 0 W/m 17,6 C 20,4 C 4,8 km/h (1 Bft) 100,00 %
11.07.2016 01:54 20,3 C 84 % 1010,4 hPa 0,0 l/m 1,8 km/h (1 Bft) NW 315 0 min 0,000 mm 0,0 UV-I 0 W/m 17,5 C 20,3 C 4,8 km/h (1 Bft) 100,00 %
11.07.2016 01:56 20,2 C 85 % 1010,4 hPa 0,0 l/m 1,6 km/h (1 Bft) N-NW 336 0 min 0,000 mm 0,0 UV-I 0 W/m 17,6 C 20,2 C 3,2 km/h (1 Bft) 95,74 %
11.07.2016 01:58 20,1 C 85 % 1010,4 hPa 0,0 l/m 1,8 km/h (1 Bft) N 355 0 min 0,000 mm 0,0 UV-I 0 W/m 17,5 C 20,1 C 3,2 km/h (1 Bft) 98,11 %
11.07.2016 02:00 20,1 C 85 % 1010,3 hPa 0,0 l/m 0,3 km/h (0 Bft) N 355 0 min 0,000 mm 0,0 UV-I 0 W/m 17,5 C 20,1 C 1,6 km/h (1 Bft) 100,00 %
11.07.2016 02:02 20,2 C 85 % 1010,3 hPa 0,0 l/m 0,0 km/h (0 Bft) N 355 0 min 0,000 mm 0,0 UV-I 0 W/m 17,6 C 20,2 C 1,6 km/h (1 Bft) 100,00 %
11.07.2016 02:04 20,2 C 85 % 1010,3 hPa 0,0 l/m 0,2 km/h (0 Bft) N 355 0 min 0,000 mm 0,0 UV-I 0 W/m 17,6 C 20,2 C 1,6 km/h (1 Bft) 100,00 %
11.07.2016 02:06 20,3 C 85 % 1010,3 hPa 0,0 l/m 1,5 km/h (1 Bft) N 355 0 min 0,000 mm 0,0 UV-I 0 W/m 17,7 C 20,3 C 3,2 km/h (1 Bft) 98,00 %
11.07.2016 02:08 20,3 C 85 % 1010,2 hPa 0,0 l/m 1,3 km/h (1 Bft) N 355 0 min 0,000 mm 0,0 UV-I 0 W/m 17,7 C 20,3 C 3,2 km/h (1 Bft) 100,00 %
11.07.2016 02:10 20,4 C 85 % 1010,2 hPa 0,0 l/m 0,7 km/h (0 Bft) N 355 0 min 0,000 mm 0,0 UV-I 0 W/m 17,8 C 20,4 C 1,6 km/h (1 Bft) 100,00 %
11.07.2016 02:12 20,4 C 85 % 1010,3 hPa 0,0 l/m 0,0 km/h (0 Bft) N 355 0 min 0,000 mm 0,0 UV-I 0 W/m 17,8 C 20,4 C 1,6 km/h (1 Bft) 100,00 %
11.07.2016 02:14 20,4 C 84 % 1010,4 hPa 0,0 l/m 2,3 km/h (1 Bft) N-NW 346 0 min 0,000 mm 0,0 UV-I 0 W/m 17,6 C 20,4 C 3,2 km/h (1 Bft) 100,00 %
11.07.2016 02:16 20,4 C 84 % 1010,5 hPa 0,0 l/m 3,8 km/h (1 Bft) W 274 0 min 0,000 mm 0,0 UV-I 0 W/m 17,6 C 20,4 C 6,4 km/h (2 Bft) 97,37 %
11.07.2016 02:18 20,4 C 84 % 1010,5 hPa 0,0 l/m 4,0 km/h (1 Bft) W-SW 244 0 min 0,000 mm 0,0 UV-I 0 W/m 17,6 C 20,4 C 6,4 km/h (2 Bft) 100,00 %
11.07.2016 02:20 20,2 C 85 % 1010,6 hPa 0,0 l/m 3,8 km/h (1 Bft) S 178 0 min 0,000 mm 0,0 UV-I 0 W/m 17,6 C 20,2 C 6,4 km/h (2 Bft) 100,00 %
11.07.2016 02:22 20,1 C 85 % 1010,5 hPa 0,0 l/m 4,0 km/h (1 Bft) S-SO 161 0 min 0,000 mm 0,0 UV-I 0 W/m 17,5 C 20,1 C 8,0 km/h (2 Bft) 100,00 %
11.07.2016 02:24 20,0 C 86 % 1010,4 hPa 0,0 l/m 1,9 km/h (1 Bft) S-SO 161 0 min 0,000 mm 0,0 UV-I 0 W/m 17,6 C 20,0 C 3,2 km/h (1 Bft) 100,00 %
11.07.2016 02:26 20,0 C 86 % 1010,4 hPa 0,0 l/m 1,4 km/h (1 Bft) S-SO 161 0 min 0,000 mm 0,0 UV-I 0 W/m 17,6 C 20,0 C 3,2 km/h (1 Bft) 100,00 %
11.07.2016 02:28 19,9 C 86 % 1010,3 hPa 0,0 l/m 1,2 km/h (1 Bft) S-SO 162 0 min 0,000 mm 0,0 UV-I 0 W/m 17,5 C 19,9 C 3,2 km/h (1 Bft) 100,00 %
11.07.2016 02:30 19,9 C 87 % 1010,2 hPa 0,0 l/m 2,3 km/h (1 Bft) S-SO 162 0 min 0,000 mm 0,0 UV-I 0 W/m 17,7 C 19,9 C 3,2 km/h (1 Bft) 100,00 %
11.07.2016 02:32 20,0 C 87 % 1010,2 hPa 0,0 l/m 2,1 km/h (1 Bft) S-SO 156 0 min 0,000 mm 0,0 UV-I 0 W/m 17,8 C 20,0 C 3,2 km/h (1 Bft) 100,00 %
11.07.2016 02:34 19,9 C 86 % 1010,2 hPa 0,0 l/m 2,8 km/h (1 Bft) NO 45 0 min 0,000 mm 0,0 UV-I 0 W/m 17,5 C 19,9 C 4,8 km/h (1 Bft) 100,00 %
11.07.2016 02:36 19,9 C 87 % 1010,3 hPa 0,0 l/m 0,7 km/h (0 Bft) NO 44 0 min 0,000 mm 0,0 UV-I 0 W/m 17,7 C 19,9 C 3,2 km/h (1 Bft) 100,00 %
11.07.2016 02:38 19,9 C 87 % 1010,4 hPa 0,0 l/m 2,5 km/h (1 Bft) S-SO 161 0 min 0,000 mm 0,0 UV-I 0 W/m 17,7 C 19,9 C 6,4 km/h (2 Bft) 100,00 %
11.07.2016 02:40 20,1 C 87 % 1010,3 hPa 0,0 l/m 1,0 km/h (0 Bft) S-SO 161 0 min 0,000 mm 0,0 UV-I 0 W/m 17,9 C 20,1 C 3,2 km/h (1 Bft) 100,00 %
11.07.2016 02:42 20,1 C 86 % 1010,2 hPa 0,0 l/m 3,7 km/h (1 Bft) SO 144 0 min 0,000 mm 0,0 UV-I 0 W/m 17,7 C 20,1 C 6,4 km/h (2 Bft) 98,00 %
11.07.2016 02:44 20,0 C 86 % 1010,2 hPa 0,0 l/m 3,1 km/h (1 Bft) SO 142 0 min 0,000 mm 0,0 UV-I 0 W/m 17,6 C 20,0 C 4,8 km/h (1 Bft) 100,00 %
11.07.2016 02:46 19,9 C 86 % 1010,2 hPa 0,0 l/m 2,4 km/h (1 Bft) SO 142 0 min 0,000 mm 0,0 UV-I 0 W/m 17,5 C 19,9 C 3,2 km/h (1 Bft) 100,00 %
11.07.2016 02:48 19,8 C 87 % 1010,2 hPa 0,0 l/m 2,4 km/h (1 Bft) SO 142 0 min 0,000 mm 0,0 UV-I 0 W/m 17,6 C 19,8 C 3,2 km/h (1 Bft) 100,00 %
11.07.2016 02:50 19,8 C 87 % 1010,2 hPa 0,0 l/m 1,3 km/h (1 Bft) SO 142 0 min 0,000 mm 0,0 UV-I 0 W/m 17,6 C 19,8 C 3,2 km/h (1 Bft) 98,11 %
11.07.2016 02:52 19,8 C 87 % 1010,2 hPa 0,0 l/m 0,6 km/h (0 Bft) SO 142 0 min 0,000 mm 0,0 UV-I 0 W/m 17,6 C 19,8 C 3,2 km/h (1 Bft) 100,00 %
11.07.2016 02:54 19,7 C 88 % 1010,2 hPa 0,0 l/m 1,6 km/h (1 Bft) SO 142 0 min 0,000 mm 0,0 UV-I 0 W/m 17,7 C 19,7 C 3,2 km/h (1 Bft) 100,00 %
11.07.2016 02:56 19,7 C 88 % 1010,3 hPa 0,0 l/m 0,1 km/h (0 Bft) SO 142 0 min 0,000 mm 0,0 UV-I 0 W/m 17,7 C 19,7 C 1,6 km/h (1 Bft) 100,00 %
11.07.2016 02:58 19,7 C 88 % 1010,3 hPa 0,0 l/m 0,2 km/h (0 Bft) SO 142 0 min 0,000 mm 0,0 UV-I 0 W/m 17,7 C 19,7 C 1,6 km/h (1 Bft) 100,00 %
11.07.2016 03:00 19,7 C 88 % 1010,3 hPa 0,0 l/m 0,6 km/h (0 Bft) SO 142 0 min 0,000 mm 0,0 UV-I 0 W/m 17,7 C 19,7 C 3,2 km/h (1 Bft) 97,87 %
11.07.2016 03:02 19,7 C 88 % 1010,2 hPa 0,0 l/m 0,6 km/h (0 Bft) SO 142 0 min 0,000 mm 0,0 UV-I 0 W/m 17,7 C 19,7 C 3,2 km/h (1 Bft) 96,00 %
11.07.2016 03:04 19,7 C 88 % 1010,2 hPa 0,0 l/m 3,7 km/h (1 Bft) SO 142 0 min 0,000 mm 0,0 UV-I 0 W/m 17,7 C 19,7 C 4,8 km/h (1 Bft) 98,00 %
11.07.2016 03:06 19,7 C 88 % 1010,2 hPa 0,0 l/m 1,9 km/h (1 Bft) SO 144 0 min 0,000 mm 0,0 UV-I 0 W/m 17,7 C 19,7 C 3,2 km/h (1 Bft) 95,83 %
11.07.2016 03:08 19,6 C 88 % 1010,2 hPa 0,0 l/m 3,6 km/h (1 Bft) S-SO 149 0 min 0,000 mm 0,0 UV-I 0 W/m 17,6 C 19,6 C 6,4 km/h (2 Bft) 95,74 %
11.07.2016 03:10 19,6 C 88 % 1010,2 hPa 0,0 l/m 2,3 km/h (1 Bft) S-SO 149 0 min 0,000 mm 0,0 UV-I 0 W/m 17,6 C 19,6 C 4,8 km/h (1 Bft) 97,87 %
11.07.2016 03:12 19,6 C 88 % 1010,2 hPa 0,0 l/m 1,5 km/h (1 Bft) S-SO 149 0 min 0,000 mm 0,0 UV-I 0 W/m 17,6 C 19,6 C 3,2 km/h (1 Bft) 97,37 %
11.07.2016 03:14 19,5 C 88 % 1010,1 hPa 0,0 l/m 3,7 km/h (1 Bft) S-SO 149 0 min 0,000 mm 0,0 UV-I 0 W/m 17,5 C 19,5 C 6,4 km/h (2 Bft) 97,87 %
11.07.2016 03:16 19,6 C 88 % 1010,1 hPa 0,0 l/m 4,7 km/h (1 Bft) S-SO 148 0 min 0,000 mm 0,0 UV-I 0 W/m 17,6 C 19,6 C 6,4 km/h (2 Bft) 98,00 %
11.07.2016 03:18 19,6 C 88 % 1010,1 hPa 0,0 l/m 2,6 km/h (1 Bft) S-SO 148 0 min 0,000 mm 0,0 UV-I 0 W/m 17,6 C 19,6 C 4,8 km/h (1 Bft) 95,12 %
11.07.2016 03:20 19,6 C 89 % 1010,1 hPa 0,0 l/m 1,5 km/h (1 Bft) S-SO 148 0 min 0,000 mm 0,0 UV-I 0 W/m 17,7 C 19,6 C 4,8 km/h (1 Bft) 96,36 %
11.07.2016 03:22 19,6 C 89 % 1010,1 hPa 0,0 l/m 3,4 km/h (1 Bft) S-SO 148 0 min 0,000 mm 0,0 UV-I 0 W/m 17,7 C 19,6 C 4,8 km/h (1 Bft) 94,74 %
11.07.2016 03:24 19,6 C 88 % 1010,1 hPa 0,0 l/m 5,6 km/h (1 Bft) SO 142 0 min 0,000 mm 0,0 UV-I 0 W/m 17,6 C 19,6 C 6,4 km/h (2 Bft) 96,23 %
11.07.2016 03:26 19,6 C 88 % 1010,1 hPa 0,0 l/m 4,2 km/h (1 Bft) SO 142 0 min 0,000 mm 0,0 UV-I 0 W/m 17,6 C 19,6 C 6,4 km/h (2 Bft) 97,56 %
11.07.2016 03:28 19,6 C 88 % 1010,1 hPa 0,0 l/m 2,5 km/h (1 Bft) SO 142 0 min 0,000 mm 0,0 UV-I 0 W/m 17,6 C 19,6 C 3,2 km/h (1 Bft) 96,00 %
11.07.2016 03:30 19,5 C 88 % 1010,1 hPa 0,0 l/m 1,6 km/h (1 Bft) SO 142 0 min 0,000 mm 0,0 UV-I 0 W/m 17,5 C 19,5 C 3,2 km/h (1 Bft) 97,73 %
11.07.2016 03:32 19,5 C 88 % 1010,0 hPa 0,0 l/m 1,2 km/h (1 Bft) SO 142 0 min 0,000 mm 0,0 UV-I 0 W/m 17,5 C 19,5 C 3,2 km/h (1 Bft) 100,00 %
11.07.2016 03:34 19,6 C 89 % 1010,0 hPa 0,0 l/m 1,4 km/h (1 Bft) SO 142 0 min 0,000 mm 0,0 UV-I 0 W/m 17,7 C 19,6 C 3,2 km/h (1 Bft) 98,18 %
11.07.2016 03:36 19,4 C 87 % 1010,2 hPa 0,0 l/m 2,7 km/h (1 Bft) SO 143 0 min 0,000 mm 0,0 UV-I 0 W/m 17,2 C 19,4 C 3,2 km/h (1 Bft) 100,00 %
11.07.2016 03:38 19,3 C 88 % 1010,2 hPa 0,0 l/m 3,2 km/h (1 Bft) S-SO 148 0 min 0,000 mm 0,0 UV-I 0 W/m 17,3 C 19,3 C 4,8 km/h (1 Bft) 97,87 %
11.07.2016 03:40 19,2 C 88 % 1010,3 hPa 0,0 l/m 3,1 km/h (1 Bft) S-SO 148 0 min 0,000 mm 0,0 UV-I 0 W/m 17,2 C 19,2 C 4,8 km/h (1 Bft) 100,00 %
11.07.2016 03:42 19,1 C 89 % 1010,3 hPa 0,0 l/m 2,0 km/h (1 Bft) S-SO 148 0 min 0,000 mm 0,0 UV-I 0 W/m 17,2 C 19,1 C 3,2 km/h (1 Bft) 100,00 %
11.07.2016 03:44 18,9 C 89 % 1010,4 hPa 0,0 l/m 2,7 km/h (1 Bft) S-SO 149 0 min 0,000 mm 0,0 UV-I 0 W/m 17,0 C 18,9 C 4,8 km/h (1 Bft) 97,56 %
11.07.2016 03:46 18,9 C 90 % 1010,5 hPa 0,0 l/m 4,3 km/h (1 Bft) SW 229 0 min 0,000 mm 0,0 UV-I 0 W/m 17,2 C 18,9 C 4,8 km/h (1 Bft) 98,28 %
11.07.2016 03:48 18,9 C 90 % 1010,4 hPa 0,0 l/m 4,4 km/h (1 Bft) SW 229 0 min 0,000 mm 0,0 UV-I 0 W/m 17,2 C 18,9 C 4,8 km/h (1 Bft) 100,00 %
11.07.2016 03:50 18,9 C 90 % 1010,4 hPa 0,0 l/m 3,7 km/h (1 Bft) SW 229 0 min 0,000 mm 0,0 UV-I 0 W/m 17,2 C 18,9 C 4,8 km/h (1 Bft) 100,00 %
11.07.2016 03:52 19,0 C 91 % 1010,3 hPa 0,0 l/m 3,5 km/h (1 Bft) SW 229 0 min 0,000 mm 0,0 UV-I 0 W/m 17,5 C 19,0 C 4,8 km/h (1 Bft) 100,00 %
11.07.2016 03:54 19,1 C 91 % 1010,3 hPa 0,0 l/m 1,7 km/h (1 Bft) SW 229 0 min 0,000 mm 0,0 UV-I 0 W/m 17,6 C 19,1 C 3,2 km/h (1 Bft) 97,87 %
11.07.2016 03:56 19,2 C 90 % 1010,3 hPa 0,0 l/m 1,8 km/h (1 Bft) SW 229 0 min 0,000 mm 0,0 UV-I 0 W/m 17,5 C 19,2 C 3,2 km/h (1 Bft) 100,00 %
11.07.2016 03:58 19,2 C 90 % 1010,4 hPa 0,0 l/m 1,9 km/h (1 Bft) SW 229 0 min 0,000 mm 0,0 UV-I 0 W/m 17,5 C 19,2 C 3,2 km/h (1 Bft) 97,37 %
11.07.2016 04:00 19,2 C 89 % 1010,3 hPa 0,0 l/m 2,0 km/h (1 Bft) SW 229 0 min 0,000 mm 0,0 UV-I 0 W/m 17,3 C 19,2 C 3,2 km/h (1 Bft) 97,87 %
11.07.2016 04:02 19,2 C 89 % 1010,3 hPa 0,0 l/m 1,6 km/h (1 Bft) SW 229 0 min 0,000 mm 0,0 UV-I 0 W/m 17,3 C 19,2 C 3,2 km/h (1 Bft) 100,00 %
11.07.2016 04:04 19,1 C 89 % 1010,3 hPa 0,0 l/m 0,7 km/h (0 Bft) SW 215 0 min 0,000 mm 0,0 UV-I 0 W/m 17,2 C 19,1 C 1,6 km/h (1 Bft) 98,11 %
11.07.2016 04:06 19,0 C 90 % 1010,3 hPa 0,0 l/m 2,0 km/h (1 Bft) S 182 0 min 0,000 mm 0,0 UV-I 0 W/m 17,3 C 19,0 C 3,2 km/h (1 Bft) 100,00 %
11.07.2016 04:08 19,0 C 90 % 1010,2 hPa 0,0 l/m 1,5 km/h (1 Bft) S 181 0 min 0,000 mm 0,0 UV-I 0 W/m 17,3 C 19,0 C 3,2 km/h (1 Bft) 100,00 %
11.07.2016 04:10 18,9 C 90 % 1010,2 hPa 0,0 l/m 1,5 km/h (1 Bft) S 180 0 min 0,000 mm 0,0 UV-I 0 W/m 17,2 C 18,9 C 3,2 km/h (1 Bft) 98,00 %
11.07.2016 04:12 18,9 C 90 % 1010,2 hPa 0,0 l/m 1,0 km/h (0 Bft) S 180 0 min 0,000 mm 0,0 UV-I 0 W/m 17,2 C 18,9 C 1,6 km/h (1 Bft) 100,00 %
11.07.2016 04:14 18,8 C 90 % 1010,2 hPa 0,0 l/m 0,6 km/h (0 Bft) S 180 0 min 0,000 mm 0,0 UV-I 0 W/m 17,1 C 18,8 C 1,6 km/h (1 Bft) 100,00 %
11.07.2016 04:16 18,8 C 91 % 1010,3 hPa 0,0 l/m 1,5 km/h (1 Bft) S 180 0 min 0,000 mm 0,0 UV-I 0 W/m 17,3 C 18,8 C 3,2 km/h (1 Bft) 100,00 %
11.07.2016 04:18 18,8 C 90 % 1010,5 hPa 0,0 l/m 0,6 km/h (0 Bft) S 180 0 min 0,000 mm 0,0 UV-I 0 W/m 17,1 C 18,8 C 1,6 km/h (1 Bft) 100,00 %
11.07.2016 04:20 18,7 C 91 % 1010,4 hPa 0,0 l/m 0,7 km/h (0 Bft) S 180 0 min 0,000 mm 0,0 UV-I 0 W/m 17,2 C 18,7 C 1,6 km/h (1 Bft) 100,00 %
11.07.2016 04:22 18,6 C 91 % 1010,5 hPa 0,0 l/m 0,9 km/h (0 Bft) S 180 0 min 0,000 mm 0,0 UV-I 0 W/m 17,1 C 18,6 C 1,6 km/h (1 Bft) 97,87 %
11.07.2016 04:24 18,6 C 91 % 1010,5 hPa 0,0 l/m 1,0 km/h (0 Bft) S 180 0 min 0,000 mm 0,0 UV-I 0 W/m 17,1 C 18,6 C 1,6 km/h (1 Bft) 100,00 %
11.07.2016 04:26 18,4 C 90 % 1010,6 hPa 0,0 l/m 1,0 km/h (0 Bft) S 180 0 min 0,000 mm 0,0 UV-I 0 W/m 16,7 C 18,4 C 1,6 km/h (1 Bft) 100,00 %
11.07.2016 04:28 18,4 C 91 % 1010,6 hPa 0,0 l/m 1,4 km/h (1 Bft) S 180 0 min 0,000 mm 0,0 UV-I 0 W/m 16,9 C 18,4 C 3,2 km/h (1 Bft) 97,87 %
11.07.2016 04:30 18,4 C 91 % 1010,7 hPa 0,0 l/m 2,9 km/h (1 Bft) S 180 0 min 0,000 mm 0,0 UV-I 0 W/m 16,9 C 18,4 C 4,8 km/h (1 Bft) 97,56 %
11.07.2016 04:32 18,4 C 92 % 1010,7 hPa 0,0 l/m 3,4 km/h (1 Bft) S 180 0 min 0,000 mm 0,0 UV-I 0 W/m 17,1 C 18,4 C 4,8 km/h (1 Bft) 100,00 %
11.07.2016 04:34 18,4 C 92 % 1010,7 hPa 0,0 l/m 4,6 km/h (1 Bft) S 181 0 min 0,000 mm 0,0 UV-I 0 W/m 17,1 C 18,4 C 6,4 km/h (2 Bft) 100,00 %
11.07.2016 04:36 18,3 C 92 % 1010,7 hPa 0,0 l/m 3,3 km/h (1 Bft) S 181 0 min 0,000 mm 0,0 UV-I 0 W/m 17,0 C 18,3 C 4,8 km/h (1 Bft) 100,00 %
11.07.2016 04:38 18,3 C 92 % 1010,6 hPa 0,0 l/m 3,1 km/h (1 Bft) S 181 0 min 0,000 mm 0,0 UV-I 0 W/m 17,0 C 18,3 C 4,8 km/h (1 Bft) 98,00 %
11.07.2016 04:40 18,4 C 92 % 1010,6 hPa 0,0 l/m 1,1 km/h (1 Bft) S 181 0 min 0,000 mm 0,0 UV-I 0 W/m 17,1 C 18,4 C 3,2 km/h (1 Bft) 100,00 %
11.07.2016 04:42 18,3 C 91 % 1010,6 hPa 0,0 l/m 1,8 km/h (1 Bft) S 180 0 min 0,000 mm 0,0 UV-I 0 W/m 16,8 C 18,3 C 4,8 km/h (1 Bft) 100,00 %
11.07.2016 04:44 18,3 C 92 % 1010,6 hPa 0,0 l/m 1,1 km/h (1 Bft) S 180 0 min 0,000 mm 0,0 UV-I 0 W/m 17,0 C 18,3 C 3,2 km/h (1 Bft) 100,00 %
11.07.2016 04:46 18,2 C 92 % 1010,7 hPa 0,0 l/m 1,4 km/h (1 Bft) S 180 0 min 0,000 mm 0,0 UV-I 0 W/m 16,9 C 18,2 C 3,2 km/h (1 Bft) 100,00 %
11.07.2016 04:48 18,2 C 92 % 1010,6 hPa 0,0 l/m 1,6 km/h (1 Bft) S 180 0 min 0,000 mm 0,0 UV-I 0 W/m 16,9 C 18,2 C 3,2 km/h (1 Bft) 100,00 %
11.07.2016 04:50 18,3 C 92 % 1010,6 hPa 0,0 l/m 0,9 km/h (0 Bft) S 180 0 min 0,000 mm 0,0 UV-I 0 W/m 17,0 C 18,3 C 1,6 km/h (1 Bft) 100,00 %
11.07.2016 04:52 18,3 C 92 % 1010,7 hPa 0,0 l/m 1,2 km/h (1 Bft) S 180 0 min 0,000 mm 0,0 UV-I 0 W/m 17,0 C 18,3 C 3,2 km/h (1 Bft) 100,00 %
11.07.2016 04:54 18,3 C 92 % 1010,7 hPa 0,0 l/m 1,9 km/h (1 Bft) S 180 0 min 0,000 mm 0,0 UV-I 0 W/m 17,0 C 18,3 C 3,2 km/h (1 Bft) 100,00 %
11.07.2016 04:56 18,3 C 92 % 1010,7 hPa 0,0 l/m 1,4 km/h (1 Bft) S 180 0 min 0,000 mm 0,0 UV-I 0 W/m 17,0 C 18,3 C 3,2 km/h (1 Bft) 97,87 %
11.07.2016 04:58 18,4 C 92 % 1010,7 hPa 0,0 l/m 0,9 km/h (0 Bft) S 180 0 min 0,000 mm 0,0 UV-I 0 W/m 17,1 C 18,4 C 3,2 km/h (1 Bft) 97,62 %
11.07.2016 05:00 18,4 C 92 % 1010,6 hPa 0,0 l/m 0,6 km/h (0 Bft) S 180 0 min 0,000 mm 0,0 UV-I 0 W/m 17,1 C 18,4 C 1,6 km/h (1 Bft) 97,56 %
11.07.2016 05:02 18,4 C 92 % 1010,6 hPa 0,0 l/m 0,6 km/h (0 Bft) S 180 0 min 0,000 mm 0,0 UV-I 0 W/m 17,1 C 18,4 C 1,6 km/h (1 Bft) 96,77 %
11.07.2016 05:04 18,4 C 92 % 1010,6 hPa 0,0 l/m 1,1 km/h (1 Bft) S 180 0 min 0,000 mm 0,0 UV-I 0 W/m 17,1 C 18,4 C 3,2 km/h (1 Bft) 97,87 %
11.07.2016 05:06 18,4 C 93 % 1010,6 hPa 0,0 l/m 0,2 km/h (0 Bft) S 180 0 min 0,000 mm 0,0 UV-I 0 W/m 17,2 C 18,4 C 1,6 km/h (1 Bft) 97,87 %
11.07.2016 05:08 18,4 C 93 % 1010,7 hPa 0,0 l/m 1,2 km/h (1 Bft) S 180 0 min 0,000 mm 0,0 UV-I 0 W/m 17,2 C 18,4 C 3,2 km/h (1 Bft) 97,87 %
11.07.2016 05:10 18,4 C 92 % 1010,7 hPa 0,0 l/m 1,6 km/h (1 Bft) S 180 0 min 0,000 mm 0,0 UV-I 0 W/m 17,1 C 18,4 C 3,2 km/h (1 Bft) 97,87 %
11.07.2016 05:12 18,4 C 92 % 1010,7 hPa 0,0 l/m 0,2 km/h (0 Bft) S 180 0 min 0,000 mm 0,0 UV-I 0 W/m 17,1 C 18,4 C 1,6 km/h (1 Bft) 97,87 %
11.07.2016 05:14 18,3 C 92 % 1010,7 hPa 0,0 l/m 0,4 km/h (0 Bft) S 180 0 min 0,000 mm 0,0 UV-I 1 W/m 17,0 C 18,3 C 1,6 km/h (1 Bft) 97,87 %
11.07.2016 05:16 18,3 C 92 % 1010,7 hPa 0,0 l/m 0,2 km/h (0 Bft) S 180 0 min 0,000 mm 0,0 UV-I 5 W/m 17,0 C 18,3 C 1,6 km/h (1 Bft) 91,30 %
11.07.2016 05:18 18,3 C 92 % 1010,8 hPa 0,0 l/m 0,6 km/h (0 Bft) S 180 0 min 0,000 mm 0,0 UV-I 5 W/m 17,0 C 18,3 C 1,6 km/h (1 Bft) 98,53 %
11.07.2016 05:20 18,4 C 92 % 1010,7 hPa 0,0 l/m 2,1 km/h (1 Bft) S 180 0 min 0,000 mm 0,0 UV-I 5 W/m 17,1 C 18,4 C 3,2 km/h (1 Bft) 97,37 %
11.07.2016 05:22 18,4 C 92 % 1010,7 hPa 0,0 l/m 2,7 km/h (1 Bft) S 180 0 min 0,000 mm 0,0 UV-I 6 W/m 17,1 C 18,4 C 3,2 km/h (1 Bft) 94,34 %
11.07.2016 05:24 18,4 C 92 % 1010,7 hPa 0,0 l/m 3,1 km/h (1 Bft) S 180 0 min 0,000 mm 0,0 UV-I 7 W/m 17,1 C 18,4 C 4,8 km/h (1 Bft) 98,00 %
11.07.2016 05:26 18,4 C 92 % 1010,8 hPa 0,0 l/m 3,9 km/h (1 Bft) S-SW 198 0 min 0,000 mm 0,0 UV-I 7 W/m 17,1 C 18,4 C 6,4 km/h (2 Bft) 95,74 %
11.07.2016 05:28 18,3 C 91 % 1010,9 hPa 0,0 l/m 4,9 km/h (1 Bft) S-SW 199 2 min 0,000 mm 0,0 UV-I 9 W/m 16,8 C 18,3 C 6,4 km/h (2 Bft) 97,56 %
11.07.2016 05:30 18,1 C 91 % 1010,9 hPa 0,0 l/m 3,4 km/h (1 Bft) S-SW 199 2 min 0,000 mm 0,0 UV-I 11 W/m 16,6 C 18,1 C 4,8 km/h (1 Bft) 100,00 %
11.07.2016 05:32 18,0 C 92 % 1011,0 hPa 0,0 l/m 3,3 km/h (1 Bft) S-SW 199 0 min 0,000 mm 0,0 UV-I 11 W/m 16,7 C 18,0 C 4,8 km/h (1 Bft) 97,56 %
11.07.2016 05:34 18,0 C 92 % 1010,9 hPa 0,0 l/m 3,7 km/h (1 Bft) S-SW 199 0 min 0,000 mm 0,0 UV-I 12 W/m 16,7 C 18,0 C 4,8 km/h (1 Bft) 98,00 %
11.07.2016 05:36 18,1 C 93 % 1010,9 hPa 0,0 l/m 1,9 km/h (1 Bft) S-SW 199 0 min 0,000 mm 0,0 UV-I 13 W/m 16,9 C 18,1 C 3,2 km/h (1 Bft) 100,00 %
11.07.2016 05:38 18,1 C 93 % 1010,9 hPa 0,0 l/m 2,4 km/h (1 Bft) S 191 0 min 0,000 mm 0,0 UV-I 14 W/m 16,9 C 18,1 C 4,8 km/h (1 Bft) 100,00 %
11.07.2016 05:40 18,1 C 93 % 1010,9 hPa 0,0 l/m 3,1 km/h (1 Bft) S 188 0 min 0,000 mm 0,0 UV-I 16 W/m 16,9 C 18,1 C 4,8 km/h (1 Bft) 100,00 %
11.07.2016 05:42 18,2 C 93 % 1010,8 hPa 0,0 l/m 2,4 km/h (1 Bft) S 187 0 min 0,000 mm 0,0 UV-I 16 W/m 17,0 C 18,2 C 4,8 km/h (1 Bft) 98,21 %
11.07.2016 05:44 18,3 C 93 % 1010,8 hPa 0,0 l/m 3,5 km/h (1 Bft) S 188 0 min 0,000 mm 0,0 UV-I 17 W/m 17,1 C 18,3 C 6,4 km/h (2 Bft) 100,00 %
11.07.2016 05:46 18,4 C 93 % 1010,8 hPa 0,0 l/m 4,6 km/h (1 Bft) SW 214 0 min 0,000 mm 0,0 UV-I 18 W/m 17,2 C 18,4 C 6,4 km/h (2 Bft) 100,00 %
11.07.2016 05:48 18,4 C 93 % 1010,9 hPa 0,0 l/m 3,9 km/h (1 Bft) S-SW 207 0 min 0,000 mm 0,0 UV-I 19 W/m 17,2 C 18,4 C 6,4 km/h (2 Bft) 100,00 %
11.07.2016 05:50 18,5 C 93 % 1010,9 hPa 0,0 l/m 4,7 km/h (1 Bft) S-SW 207 0 min 0,000 mm 0,0 UV-I 19 W/m 17,3 C 18,5 C 6,4 km/h (2 Bft) 97,87 %
11.07.2016 05:52 18,5 C 92 % 1010,9 hPa 0,0 l/m 4,7 km/h (1 Bft) S-SW 205 0 min 0,000 mm 0,0 UV-I 21 W/m 17,2 C 18,5 C 6,4 km/h (2 Bft) 100,00 %
11.07.2016 05:54 18,5 C 92 % 1010,9 hPa 0,0 l/m 4,3 km/h (1 Bft) S-SW 205 0 min 0,000 mm 0,0 UV-I 23 W/m 17,2 C 18,5 C 6,4 km/h (2 Bft) 98,11 %
11.07.2016 05:56 18,5 C 92 % 1010,9 hPa 0,0 l/m 3,5 km/h (1 Bft) S-SW 205 0 min 0,000 mm 0,0 UV-I 24 W/m 17,2 C 18,5 C 4,8 km/h (1 Bft) 100,00 %
11.07.2016 05:58 18,5 C 92 % 1010,9 hPa 0,0 l/m 3,7 km/h (1 Bft) S-SW 205 0 min 0,000 mm 0,0 UV-I 25 W/m 17,2 C 18,5 C 4,8 km/h (1 Bft) 100,00 %
11.07.2016 06:00 18,5 C 92 % 1010,9 hPa 0,0 l/m 4,2 km/h (1 Bft) S-SW 206 0 min 0,000 mm 0,0 UV-I 25 W/m 17,2 C 18,5 C 4,8 km/h (1 Bft) 100,00 %
11.07.2016 06:02 18,6 C 92 % 1010,9 hPa 0,0 l/m 2,4 km/h (1 Bft) S-SW 207 0 min 0,000 mm 0,0 UV-I 26 W/m 17,3 C 18,6 C 4,8 km/h (1 Bft) 100,00 %
11.07.2016 06:04 18,7 C 92 % 1010,9 hPa 0,0 l/m 1,8 km/h (1 Bft) S-SW 206 0 min 0,000 mm 0,0 UV-I 26 W/m 17,4 C 18,7 C 3,2 km/h (1 Bft) 100,00 %
11.07.2016 06:06 18,7 C 92 % 1010,8 hPa 0,0 l/m 1,8 km/h (1 Bft) S-SW 206 0 min 0,000 mm 0,0 UV-I 28 W/m 17,4 C 18,7 C 3,2 km/h (1 Bft) 100,00 %
11.07.2016 06:08 18,8 C 92 % 1010,8 hPa 0,0 l/m 0,8 km/h (0 Bft) S-SW 206 0 min 0,000 mm 0,0 UV-I 29 W/m 17,5 C 18,8 C 3,2 km/h (1 Bft) 100,00 %
11.07.2016 06:10 18,9 C 91 % 1010,8 hPa 0,0 l/m 2,1 km/h (1 Bft) S-SW 206 0 min 0,000 mm 0,0 UV-I 30 W/m 17,4 C 18,9 C 3,2 km/h (1 Bft) 100,00 %
11.07.2016 06:12 18,9 C 91 % 1010,8 hPa 0,0 l/m 1,6 km/h (1 Bft) S-SW 206 0 min 0,000 mm 0,0 UV-I 30 W/m 17,4 C 18,9 C 3,2 km/h (1 Bft) 98,21 %
11.07.2016 06:14 19,1 C 91 % 1010,8 hPa 0,0 l/m 0,1 km/h (0 Bft) S-SW 206 0 min 0,000 mm 0,0 UV-I 32 W/m 17,6 C 19,1 C 1,6 km/h (1 Bft) 95,74 %
11.07.2016 06:16 19,1 C 91 % 1010,7 hPa 0,0 l/m 0,9 km/h (0 Bft) S-SW 206 0 min 0,000 mm 0,0 UV-I 32 W/m 17,6 C 19,1 C 3,2 km/h (1 Bft) 100,00 %
11.07.2016 06:18 19,2 C 91 % 1010,8 hPa 0,0 l/m 0,3 km/h (0 Bft) S-SW 206 0 min 0,000 mm 0,0 UV-I 33 W/m 17,7 C 19,2 C 1,6 km/h (1 Bft) 100,00 %
11.07.2016 06:20 19,2 C 91 % 1010,8 hPa 0,0 l/m 0,7 km/h (0 Bft) S-SW 206 0 min 0,000 mm 0,0 UV-I 34 W/m 17,7 C 19,2 C 3,2 km/h (1 Bft) 97,87 %
11.07.2016 06:22 19,3 C 90 % 1010,7 hPa 0,0 l/m 2,0 km/h (1 Bft) S-SW 196 0 min 0,000 mm 0,0 UV-I 36 W/m 17,6 C 19,3 C 3,2 km/h (1 Bft) 100,00 %
11.07.2016 06:24 19,4 C 90 % 1010,8 hPa 0,0 l/m 1,0 km/h (0 Bft) S-SW 196 0 min 0,000 mm 0,0 UV-I 37 W/m 17,7 C 19,4 C 1,6 km/h (1 Bft) 97,87 %
11.07.2016 06:26 19,6 C 89 % 1010,8 hPa 0,0 l/m 0,9 km/h (0 Bft) S-SW 196 0 min 0,000 mm 0,0 UV-I 38 W/m 17,7 C 19,6 C 1,6 km/h (1 Bft) 95,74 %
11.07.2016 06:28 19,6 C 89 % 1010,8 hPa 0,0 l/m 0,7 km/h (0 Bft) S-SW 196 0 min 0,000 mm 0,0 UV-I 40 W/m 17,7 C 19,6 C 3,2 km/h (1 Bft) 97,56 %
11.07.2016 06:30 19,8 C 89 % 1010,8 hPa 0,0 l/m 0,3 km/h (0 Bft) S-SW 196 0 min 0,000 mm 0,0 UV-I 42 W/m 17,9 C 19,8 C 1,6 km/h (1 Bft) 98,00 %
11.07.2016 06:32 19,9 C 89 % 1010,9 hPa 0,0 l/m 2,2 km/h (1 Bft) S-SW 196 0 min 0,000 mm 0,0 UV-I 45 W/m 18,0 C 19,9 C 3,2 km/h (1 Bft) 98,00 %
11.07.2016 06:34 19,8 C 88 % 1011,0 hPa 0,0 l/m 2,7 km/h (1 Bft) S-SW 196 0 min 0,000 mm 0,0 UV-I 46 W/m 17,8 C 19,8 C 3,2 km/h (1 Bft) 100,00 %
11.07.2016 06:36 19,7 C 88 % 1011,0 hPa 0,0 l/m 1,6 km/h (1 Bft) S-SW 196 0 min 0,000 mm 0,0 UV-I 47 W/m 17,7 C 19,7 C 3,2 km/h (1 Bft) 100,00 %
11.07.2016 06:38 19,6 C 89 % 1010,9 hPa 0,0 l/m 1,7 km/h (1 Bft) S-SW 196 0 min 0,000 mm 0,0 UV-I 48 W/m 17,7 C 19,6 C 3,2 km/h (1 Bft) 100,00 %
11.07.2016 06:40 19,6 C 89 % 1011,1 hPa 0,0 l/m 3,6 km/h (1 Bft) W 271 0 min 0,000 mm 0,0 UV-I 52 W/m 17,7 C 19,6 C 6,4 km/h (2 Bft) 100,00 %
11.07.2016 06:42 19,6 C 89 % 1011,0 hPa 0,0 l/m 1,4 km/h (1 Bft) W 271 0 min 0,000 mm 0,0 UV-I 84 W/m 17,7 C 19,6 C 3,2 km/h (1 Bft) 97,73 %
11.07.2016 06:44 19,7 C 90 % 1011,0 hPa 0,0 l/m 1,4 km/h (1 Bft) W 271 0 min 0,000 mm 0,0 UV-I 107 W/m 18,0 C 19,7 C 3,2 km/h (1 Bft) 100,00 %
11.07.2016 06:46 19,8 C 90 % 1011,1 hPa 0,0 l/m 0,9 km/h (0 Bft) W 271 0 min 0,000 mm 0,0 UV-I 115 W/m 18,1 C 19,8 C 1,6 km/h (1 Bft) 100,00 %
11.07.2016 06:48 19,8 C 90 % 1011,1 hPa 0,0 l/m 2,6 km/h (1 Bft) W-NW 300 0 min 0,000 mm 0,0 UV-I 115 W/m 18,1 C 19,8 C 6,4 km/h (2 Bft) 100,00 %
11.07.2016 06:50 19,8 C 90 % 1011,1 hPa 0,0 l/m 1,6 km/h (1 Bft) NW 304 0 min 0,000 mm 0,0 UV-I 119 W/m 18,1 C 19,8 C 3,2 km/h (1 Bft) 100,00 %
11.07.2016 06:52 20,0 C 90 % 1011,1 hPa 0,0 l/m 0,3 km/h (0 Bft) NW 304 0 min 0,000 mm 0,0 UV-I 125 W/m 18,3 C 20,0 C 1,6 km/h (1 Bft) 100,00 %
11.07.2016 06:54 20,1 C 89 % 1011,2 hPa 0,0 l/m 0,6 km/h (0 Bft) NW 304 0 min 0,000 mm 0,0 UV-I 126 W/m 18,2 C 20,1 C 1,6 km/h (1 Bft) 100,00 %
11.07.2016 06:56 20,2 C 89 % 1011,2 hPa 0,0 l/m 1,9 km/h (1 Bft) W-NW 289 2 min 0,000 mm 0,0 UV-I 133 W/m 18,3 C 20,2 C 4,8 km/h (1 Bft) 97,62 %
11.07.2016 06:58 20,3 C 88 % 1011,2 hPa 0,0 l/m 1,4 km/h (1 Bft) W-NW 288 2 min 0,000 mm 0,0 UV-I 143 W/m 18,2 C 20,3 C 3,2 km/h (1 Bft) 97,87 %
11.07.2016 07:00 20,4 C 88 % 1011,2 hPa 0,0 l/m 1,9 km/h (1 Bft) W-NW 288 2 min 0,051 mm 0,0 UV-I 147 W/m 18,3 C 20,4 C 4,8 km/h (1 Bft) 100,00 %
11.07.2016 07:02 20,7 C 87 % 1011,3 hPa 0,0 l/m 1,3 km/h (1 Bft) W-NW 288 2 min 0,000 mm 0,0 UV-I 149 W/m 18,5 C 20,7 C 3,2 km/h (1 Bft) 97,87 %
11.07.2016 07:04 20,8 C 87 % 1011,2 hPa 0,0 l/m 0,5 km/h (0 Bft) W-NW 288 2 min 0,000 mm 0,0 UV-I 144 W/m 18,6 C 20,8 C 4,8 km/h (1 Bft) 97,14 %
11.07.2016 07:06 20,9 C 86 % 1011,3 hPa 0,0 l/m 2,9 km/h (1 Bft) W-NW 288 2 min 0,000 mm 0,0 UV-I 147 W/m 18,5 C 20,9 C 4,8 km/h (1 Bft) 97,87 %
11.07.2016 07:08 21,1 C 86 % 1011,2 hPa 0,0 l/m 1,3 km/h (1 Bft) W-NW 288 2 min 0,000 mm 0,0 UV-I 157 W/m 18,7 C 21,1 C 3,2 km/h (1 Bft) 95,74 %
11.07.2016 07:10 21,2 C 85 % 1011,2 hPa 0,0 l/m 0,0 km/h (0 Bft) W-NW 288 2 min 0,000 mm 0,0 UV-I 166 W/m 18,6 C 21,2 C 0,0 km/h (0 Bft) 98,11 %
11.07.2016 07:12 21,3 C 85 % 1011,1 hPa 0,0 l/m 0,0 km/h (0 Bft) W-NW 288 2 min 0,000 mm 0,0 UV-I 174 W/m 18,7 C 21,3 C 1,6 km/h (1 Bft) 97,56 %
11.07.2016 07:14 21,3 C 84 % 1011,2 hPa 0,0 l/m 0,0 km/h (0 Bft) W-NW 288 2 min 0,000 mm 0,2 UV-I 181 W/m 18,5 C 21,3 C 0,0 km/h (0 Bft) 98,00 %
11.07.2016 07:16 21,5 C 84 % 1011,1 hPa 0,0 l/m 0,0 km/h (0 Bft) W-NW 288 2 min 0,000 mm 0,5 UV-I 188 W/m 18,7 C 21,5 C 0,0 km/h (0 Bft) 97,87 %
11.07.2016 07:18 21,6 C 83 % 1011,1 hPa 0,0 l/m 0,0 km/h (0 Bft) W-NW 288 2 min 0,000 mm 0,5 UV-I 197 W/m 18,6 C 21,6 C 1,6 km/h (1 Bft) 93,62 %
11.07.2016 07:20 21,7 C 84 % 1011,2 hPa 0,0 l/m 0,3 km/h (0 Bft) W-NW 288 2 min 0,000 mm 0,5 UV-I 202 W/m 18,9 C 21,7 C 1,6 km/h (1 Bft) 96,23 %
11.07.2016 07:22 21,8 C 82 % 1011,2 hPa 0,0 l/m 2,3 km/h (1 Bft) W-NW 288 2 min 0,000 mm 0,5 UV-I 208 W/m 18,6 C 21,8 C 3,2 km/h (1 Bft) 95,83 %
11.07.2016 07:24 21,8 C 82 % 1011,2 hPa 0,0 l/m 1,9 km/h (1 Bft) W-NW 288 2 min 0,000 mm 0,5 UV-I 213 W/m 18,6 C 21,8 C 4,8 km/h (1 Bft) 93,75 %
11.07.2016 07:26 21,8 C 82 % 1011,2 hPa 0,0 l/m 1,9 km/h (1 Bft) W-NW 288 2 min 0,000 mm 0,6 UV-I 218 W/m 18,6 C 21,8 C 3,2 km/h (1 Bft) 98,11 %
11.07.2016 07:28 21,8 C 82 % 1011,2 hPa 0,0 l/m 3,1 km/h (1 Bft) W-NW 288 2 min 0,000 mm 0,6 UV-I 222 W/m 18,6 C 21,8 C 4,8 km/h (1 Bft) 97,37 %
11.07.2016 07:30 21,9 C 83 % 1011,3 hPa 0,0 l/m 3,8 km/h (1 Bft) W 275 2 min 0,000 mm 0,6 UV-I 226 W/m 18,9 C 21,9 C 4,8 km/h (1 Bft) 98,21 %
11.07.2016 07:32 22,1 C 83 % 1011,3 hPa 0,0 l/m 3,3 km/h (1 Bft) W 273 2 min 0,000 mm 0,6 UV-I 224 W/m 19,1 C 22,1 C 4,8 km/h (1 Bft) 97,22 %
11.07.2016 07:34 22,2 C 82 % 1011,3 hPa 0,0 l/m 3,5 km/h (1 Bft) W 273 2 min 0,000 mm 0,6 UV-I 219 W/m 19,0 C 22,2 C 4,8 km/h (1 Bft) 98,00 %
11.07.2016 07:36 22,3 C 82 % 1011,2 hPa 0,0 l/m 1,6 km/h (1 Bft) W 273 2 min 0,000 mm 0,7 UV-I 216 W/m 19,1 C 22,3 C 3,2 km/h (1 Bft) 100,00 %
11.07.2016 07:38 22,4 C 81 % 1011,2 hPa 0,0 l/m 0,8 km/h (0 Bft) W 273 2 min 0,000 mm 0,7 UV-I 218 W/m 19,0 C 22,4 C 3,2 km/h (1 Bft) 100,00 %
11.07.2016 07:40 22,4 C 80 % 1011,3 hPa 0,0 l/m 2,9 km/h (1 Bft) W 264 2 min 0,000 mm 0,7 UV-I 224 W/m 18,8 C 22,4 C 4,8 km/h (1 Bft) 97,96 %
11.07.2016 07:42 22,6 C 80 % 1011,2 hPa 0,0 l/m 1,2 km/h (1 Bft) W 264 2 min 0,000 mm 0,8 UV-I 244 W/m 19,0 C 22,6 C 3,2 km/h (1 Bft) 100,00 %
11.07.2016 07:44 22,7 C 79 % 1011,2 hPa 0,0 l/m 3,5 km/h (1 Bft) W 264 2 min 0,000 mm 0,8 UV-I 268 W/m 18,9 C 22,7 C 6,4 km/h (2 Bft) 100,00 %
11.07.2016 07:46 22,7 C 78 % 1011,2 hPa 0,0 l/m 2,7 km/h (1 Bft) W 264 2 min 0,000 mm 0,8 UV-I 282 W/m 18,7 C 22,7 C 4,8 km/h (1 Bft) 100,00 %
11.07.2016 07:48 22,8 C 78 % 1011,2 hPa 0,0 l/m 1,4 km/h (1 Bft) W 264 2 min 0,000 mm 0,8 UV-I 290 W/m 18,8 C 22,8 C 3,2 km/h (1 Bft) 97,14 %
11.07.2016 07:50 22,9 C 79 % 1011,2 hPa 0,0 l/m 3,1 km/h (1 Bft) W-SW 250 2 min 0,000 mm 0,9 UV-I 295 W/m 19,1 C 22,9 C 6,4 km/h (2 Bft) 100,00 %
11.07.2016 07:52 23,0 C 77 % 1011,2 hPa 0,0 l/m 3,4 km/h (1 Bft) W-SW 245 2 min 0,000 mm 0,9 UV-I 301 W/m 18,7 C 23,0 C 6,4 km/h (2 Bft) 100,00 %
11.07.2016 07:54 23,0 C 78 % 1011,2 hPa 0,0 l/m 2,1 km/h (1 Bft) W-SW 245 2 min 0,000 mm 0,9 UV-I 306 W/m 18,9 C 23,0 C 4,8 km/h (1 Bft) 98,00 %
11.07.2016 07:56 23,0 C 77 % 1011,1 hPa 0,0 l/m 1,5 km/h (1 Bft) W-SW 244 2 min 0,000 mm 1,0 UV-I 314 W/m 18,7 C 23,0 C 3,2 km/h (1 Bft) 97,56 %
11.07.2016 07:58 23,0 C 77 % 1011,2 hPa 0,0 l/m 1,9 km/h (1 Bft) W-SW 244 2 min 0,000 mm 1,0 UV-I 320 W/m 18,7 C 23,0 C 3,2 km/h (1 Bft) 98,00 %
11.07.2016 08:00 22,9 C 77 % 1011,1 hPa 0,0 l/m 0,7 km/h (0 Bft) W-SW 244 2 min 0,153 mm 1,0 UV-I 326 W/m 18,6 C 22,9 C 1,6 km/h (1 Bft) 100,00 %
11.07.2016 08:02 22,9 C 77 % 1011,1 hPa 0,0 l/m 0,0 km/h (0 Bft) W-SW 244 2 min 0,000 mm 1,1 UV-I 332 W/m 18,6 C 22,9 C 1,6 km/h (1 Bft) 98,00 %
11.07.2016 08:04 23,0 C 77 % 1011,2 hPa 0,0 l/m 0,5 km/h (0 Bft) W-SW 244 2 min 0,000 mm 1,1 UV-I 339 W/m 18,7 C 23,0 C 3,2 km/h (1 Bft) 100,00 %
11.07.2016 08:06 23,2 C 77 % 1011,2 hPa 0,0 l/m 2,8 km/h (1 Bft) W-SW 244 2 min 0,000 mm 1,1 UV-I 344 W/m 18,9 C 23,2 C 4,8 km/h (1 Bft) 100,00 %
11.07.2016 08:08 23,4 C 77 % 1011,2 hPa 0,0 l/m 1,7 km/h (1 Bft) W-SW 244 2 min 0,000 mm 1,1 UV-I 349 W/m 19,1 C 23,4 C 4,8 km/h (1 Bft) 100,00 %
11.07.2016 08:10 23,6 C 78 % 1011,1 hPa 0,0 l/m 0,9 km/h (0 Bft) W-SW 244 2 min 0,000 mm 1,2 UV-I 353 W/m 19,5 C 23,6 C 1,6 km/h (1 Bft) 100,00 %
11.07.2016 08:12 23,8 C 75 % 1011,1 hPa 0,0 l/m 0,1 km/h (0 Bft) W-SW 244 2 min 0,000 mm 1,2 UV-I 356 W/m 19,1 C 23,8 C 1,6 km/h (1 Bft) 100,00 %
11.07.2016 08:14 23,8 C 75 % 1011,2 hPa 0,0 l/m 0,6 km/h (0 Bft) W-SW 244 2 min 0,000 mm 1,2 UV-I 358 W/m 19,1 C 23,8 C 3,2 km/h (1 Bft) 100,00 %
11.07.2016 08:16 23,9 C 74 % 1011,2 hPa 0,0 l/m 0,5 km/h (0 Bft) W-SW 244 2 min 0,000 mm 1,3 UV-I 356 W/m 19,0 C 23,9 C 1,6 km/h (1 Bft) 100,00 %
11.07.2016 08:18 24,0 C 76 % 1011,2 hPa 0,0 l/m 0,2 km/h (0 Bft) W-SW 244 2 min 0,000 mm 1,3 UV-I 352 W/m 19,5 C 24,0 C 1,6 km/h (1 Bft) 98,00 %
11.07.2016 08:20 24,2 C 75 % 1011,2 hPa 0,0 l/m 2,4 km/h (1 Bft) W-SW 244 2 min 0,000 mm 1,3 UV-I 357 W/m 19,5 C 24,2 C 4,8 km/h (1 Bft) 100,00 %
11.07.2016 08:22 24,2 C 72 % 1011,2 hPa 0,0 l/m 1,5 km/h (1 Bft) W-SW 242 2 min 0,000 mm 1,4 UV-I 373 W/m 18,8 C 24,2 C 4,8 km/h (1 Bft) 98,11 %
11.07.2016 08:24 24,3 C 71 % 1011,2 hPa 0,0 l/m 2,6 km/h (1 Bft) S 184 2 min 0,000 mm 1,4 UV-I 386 W/m 18,7 C 24,3 C 6,4 km/h (2 Bft) 100,00 %
11.07.2016 08:26 24,2 C 72 % 1011,2 hPa 0,0 l/m 1,7 km/h (1 Bft) S 184 2 min 0,000 mm 1,4 UV-I 393 W/m 18,8 C 24,2 C 4,8 km/h (1 Bft) 100,00 %
11.07.2016 08:28 24,3 C 72 % 1011,2 hPa 0,0 l/m 1,7 km/h (1 Bft) S 175 2 min 0,000 mm 1,5 UV-I 399 W/m 18,9 C 24,3 C 3,2 km/h (1 Bft) 100,00 %
11.07.2016 08:30 24,4 C 71 % 1011,3 hPa 0,0 l/m 2,0 km/h (1 Bft) S 175 2 min 0,000 mm 1,5 UV-I 404 W/m 18,8 C 24,4 C 4,8 km/h (1 Bft) 100,00 %
11.07.2016 08:32 24,5 C 72 % 1011,2 hPa 0,0 l/m 2,7 km/h (1 Bft) S 175 2 min 0,000 mm 1,5 UV-I 410 W/m 19,1 C 24,5 C 4,8 km/h (1 Bft) 100,00 %
11.07.2016 08:34 24,6 C 71 % 1011,2 hPa 0,0 l/m 1,7 km/h (1 Bft) S 175 2 min 0,000 mm 1,6 UV-I 418 W/m 19,0 C 24,6 C 3,2 km/h (1 Bft) 100,00 %
11.07.2016 08:36 24,7 C 71 % 1011,1 hPa 0,0 l/m 3,0 km/h (1 Bft) S 172 2 min 0,000 mm 1,6 UV-I 426 W/m 19,1 C 24,7 C 4,8 km/h (1 Bft) 100,00 %
11.07.2016 08:38 24,8 C 70 % 1011,2 hPa 0,0 l/m 2,2 km/h (1 Bft) S 170 2 min 0,000 mm 1,7 UV-I 429 W/m 18,9 C 24,8 C 6,4 km/h (2 Bft) 100,00 %
11.07.2016 08:40 24,8 C 70 % 1011,2 hPa 0,0 l/m 3,3 km/h (1 Bft) S-SO 162 2 min 0,000 mm 1,7 UV-I 435 W/m 18,9 C 24,8 C 6,4 km/h (2 Bft) 98,00 %
11.07.2016 08:42 24,8 C 69 % 1011,2 hPa 0,0 l/m 2,2 km/h (1 Bft) S-SO 162 2 min 0,000 mm 1,8 UV-I 446 W/m 18,7 C 24,8 C 6,4 km/h (2 Bft) 100,00 %
11.07.2016 08:44 25,0 C 69 % 1011,1 hPa 0,0 l/m 1,4 km/h (1 Bft) S-SW 213 2 min 0,000 mm 1,8 UV-I 455 W/m 18,9 C 25,0 C 4,8 km/h (1 Bft) 100,00 %
11.07.2016 08:46 25,1 C 69 % 1011,1 hPa 0,0 l/m 1,3 km/h (1 Bft) S-SW 213 2 min 0,000 mm 1,9 UV-I 463 W/m 19,0 C 25,1 C 4,8 km/h (1 Bft) 97,14 %
11.07.2016 08:48 25,3 C 69 % 1011,1 hPa 0,0 l/m 1,5 km/h (1 Bft) S-SW 212 2 min 0,000 mm 1,9 UV-I 474 W/m 19,2 C 25,3 C 4,8 km/h (1 Bft) 100,00 %
11.07.2016 08:50 25,4 C 67 % 1011,1 hPa 0,0 l/m 1,6 km/h (1 Bft) S-SW 204 2 min 0,000 mm 2,0 UV-I 486 W/m 18,8 C 25,4 C 3,2 km/h (1 Bft) 100,00 %
11.07.2016 08:52 25,6 C 68 % 1011,1 hPa 0,0 l/m 1,1 km/h (1 Bft) S-SW 202 2 min 0,000 mm 2,0 UV-I 496 W/m 19,2 C 25,6 C 3,2 km/h (1 Bft) 97,44 %
11.07.2016 08:54 25,7 C 65 % 1011,1 hPa 0,0 l/m 1,2 km/h (1 Bft) S-SW 196 2 min 0,000 mm 2,1 UV-I 512 W/m 18,6 C 25,7 C 3,2 km/h (1 Bft) 100,00 %
11.07.2016 08:56 25,7 C 66 % 1011,1 hPa 0,0 l/m 1,5 km/h (1 Bft) S-SW 195 2 min 0,000 mm 2,2 UV-I 525 W/m 18,9 C 25,7 C 3,2 km/h (1 Bft) 100,00 %
11.07.2016 08:58 25,8 C 68 % 1011,1 hPa 0,0 l/m 1,0 km/h (0 Bft) S-SW 195 2 min 0,000 mm 2,2 UV-I 536 W/m 19,4 C 25,8 C 3,2 km/h (1 Bft) 96,92 %
11.07.2016 09:00 25,9 C 67 % 1011,1 hPa 0,0 l/m 1,1 km/h (1 Bft) S 191 2 min 0,279 mm 2,3 UV-I 554 W/m 19,3 C 25,9 C 4,8 km/h (1 Bft) 98,00 %
11.07.2016 09:02 26,1 C 67 % 1011,1 hPa 0,0 l/m 0,7 km/h (0 Bft) W 259 2 min 0,000 mm 2,4 UV-I 561 W/m 19,5 C 26,1 C 3,2 km/h (1 Bft) 98,00 %
11.07.2016 09:04 26,1 C 66 % 1011,1 hPa 0,0 l/m 2,5 km/h (1 Bft) W-NW 290 2 min 0,000 mm 2,4 UV-I 571 W/m 19,2 C 26,1 C 4,8 km/h (1 Bft) 97,87 %
11.07.2016 09:06 26,2 C 65 % 1011,1 hPa 0,0 l/m 2,5 km/h (1 Bft) NW 305 2 min 0,000 mm 2,5 UV-I 573 W/m 19,1 C 26,2 C 4,8 km/h (1 Bft) 97,56 %
11.07.2016 09:08 26,2 C 66 % 1011,1 hPa 0,0 l/m 0,2 km/h (0 Bft) NW 305 2 min 0,000 mm 2,4 UV-I 522 W/m 19,3 C 26,2 C 1,6 km/h (1 Bft) 94,00 %
11.07.2016 09:10 26,1 C 65 % 1011,2 hPa 0,0 l/m 0,6 km/h (0 Bft) NW 305 2 min 0,000 mm 2,2 UV-I 444 W/m 19,0 C 26,1 C 1,6 km/h (1 Bft) 97,73 %
11.07.2016 09:12 26,2 C 67 % 1011,1 hPa 0,0 l/m 0,0 km/h (0 Bft) NW 305 2 min 0,000 mm 2,3 UV-I 457 W/m 19,6 C 26,2 C 1,6 km/h (1 Bft) 98,00 %
11.07.2016 09:14 26,4 C 68 % 1011,2 hPa 0,0 l/m 2,7 km/h (1 Bft) N 355 2 min 0,000 mm 2,5 UV-I 525 W/m 20,0 C 26,4 C 4,8 km/h (1 Bft) 97,87 %
11.07.2016 09:16 26,4 C 66 % 1011,1 hPa 0,0 l/m 3,6 km/h (1 Bft) N 11 2 min 0,000 mm 2,5 UV-I 498 W/m 19,5 C 26,4 C 4,8 km/h (1 Bft) 97,87 %
11.07.2016 09:18 26,4 C 66 % 1011,2 hPa 0,0 l/m 2,7 km/h (1 Bft) N 11 2 min 0,000 mm 2,5 UV-I 490 W/m 19,5 C 26,4 C 4,8 km/h (1 Bft) 97,14 %
11.07.2016 09:20 26,6 C 69 % 1011,2 hPa 0,0 l/m 1,3 km/h (1 Bft) NW 326 2 min 0,000 mm 2,5 UV-I 455 W/m 20,4 C 26,6 C 3,2 km/h (1 Bft) 95,12 %
11.07.2016 09:22 26,6 C 66 % 1011,3 hPa 0,0 l/m 2,2 km/h (1 Bft) N 11 2 min 0,000 mm 2,3 UV-I 352 W/m 19,7 C 26,6 C 4,8 km/h (1 Bft) 96,92 %
11.07.2016 09:24 26,6 C 68 % 1011,3 hPa 0,0 l/m 1,1 km/h (1 Bft) N 11 2 min 0,000 mm 2,5 UV-I 405 W/m 20,2 C 26,6 C 3,2 km/h (1 Bft) 94,74 %
11.07.2016 09:26 26,7 C 66 % 1011,3 hPa 0,0 l/m 0,8 km/h (0 Bft) N 9 2 min 0,000 mm 2,6 UV-I 456 W/m 19,8 C 26,7 C 1,6 km/h (1 Bft) 94,00 %
11.07.2016 09:28 26,6 C 69 % 1011,3 hPa 0,0 l/m 1,0 km/h (0 Bft) N-NW 335 0 min 0,000 mm 2,2 UV-I 318 W/m 20,4 C 26,6 C 3,2 km/h (1 Bft) 97,87 %
11.07.2016 09:30 26,4 C 67 % 1011,4 hPa 0,0 l/m 2,5 km/h (1 Bft) N 9 0 min 0,000 mm 2,1 UV-I 277 W/m 19,8 C 26,4 C 4,8 km/h (1 Bft) 100,00 %
11.07.2016 09:32 26,3 C 68 % 1011,4 hPa 0,0 l/m 2,0 km/h (1 Bft) N-NO 15 0 min 0,000 mm 2,2 UV-I 278 W/m 19,9 C 26,3 C 6,4 km/h (2 Bft) 100,00 %
11.07.2016 09:34 26,2 C 69 % 1011,4 hPa 0,0 l/m 1,7 km/h (1 Bft) N-NO 17 0 min 0,000 mm 2,2 UV-I 281 W/m 20,0 C 26,2 C 4,8 km/h (1 Bft) 100,00 %
11.07.2016 09:36 26,2 C 67 % 1011,4 hPa 0,0 l/m 3,2 km/h (1 Bft) N-NO 26 0 min 0,000 mm 2,3 UV-I 299 W/m 19,6 C 26,2 C 6,4 km/h (2 Bft) 97,92 %
11.07.2016 09:38 26,2 C 67 % 1011,4 hPa 0,0 l/m 2,3 km/h (1 Bft) N-NO 26 2 min 0,000 mm 2,6 UV-I 400 W/m 19,6 C 26,2 C 4,8 km/h (1 Bft) 100,00 %
11.07.2016 09:40 26,4 C 67 % 1011,4 hPa 0,0 l/m 4,2 km/h (1 Bft) NO 42 2 min 0,000 mm 2,9 UV-I 468 W/m 19,8 C 26,4 C 6,4 km/h (2 Bft) 100,00 %
11.07.2016 09:42 26,6 C 67 % 1011,4 hPa 0,0 l/m 4,4 km/h (1 Bft) NO 40 2 min 0,000 mm 3,2 UV-I 579 W/m 20,0 C 26,6 C 6,4 km/h (2 Bft) 98,11 %
11.07.2016 09:44 26,8 C 67 % 1011,3 hPa 0,0 l/m 3,5 km/h (1 Bft) NO 40 2 min 0,000 mm 3,2 UV-I 581 W/m 20,1 C 26,8 C 4,8 km/h (1 Bft) 100,00 %
11.07.2016 09:46 26,8 C 66 % 1011,3 hPa 0,0 l/m 2,0 km/h (1 Bft) NO 42 2 min 0,000 mm 3,1 UV-I 547 W/m 19,9 C 26,8 C 6,4 km/h (2 Bft) 100,00 %
11.07.2016 09:48 26,8 C 65 % 1011,3 hPa 0,0 l/m 1,9 km/h (1 Bft) NO 41 2 min 0,000 mm 3,1 UV-I 545 W/m 19,7 C 26,8 C 4,8 km/h (1 Bft) 100,00 %
11.07.2016 09:50 26,8 C 65 % 1011,2 hPa 0,0 l/m 3,2 km/h (1 Bft) N-NO 33 2 min 0,000 mm 3,3 UV-I 535 W/m 19,7 C 26,8 C 6,4 km/h (2 Bft) 100,00 %
11.07.2016 09:52 26,8 C 66 % 1011,2 hPa 0,0 l/m 3,2 km/h (1 Bft) N-NO 33 2 min 0,000 mm 3,5 UV-I 668 W/m 19,9 C 26,8 C 4,8 km/h (1 Bft) 100,00 %
11.07.2016 09:54 26,9 C 66 % 1011,2 hPa 0,0 l/m 2,0 km/h (1 Bft) N-NO 33 2 min 0,000 mm 3,3 UV-I 666 W/m 20,0 C 26,9 C 3,2 km/h (1 Bft) 100,00 %
11.07.2016 09:56 26,9 C 63 % 1011,3 hPa 0,0 l/m 0,9 km/h (0 Bft) N-NO 33 2 min 0,000 mm 3,3 UV-I 557 W/m 19,2 C 26,9 C 3,2 km/h (1 Bft) 100,00 %
11.07.2016 09:58 26,9 C 61 % 1011,2 hPa 0,0 l/m 1,7 km/h (1 Bft) N-NO 25 2 min 0,000 mm 3,1 UV-I 561 W/m 18,7 C 26,9 C 3,2 km/h (1 Bft) 97,37 %
11.07.2016 10:00 27,0 C 61 % 1011,2 hPa 0,0 l/m 0,9 km/h (0 Bft) N-NO 28 2 min 0,330 mm 3,2 UV-I 460 W/m 18,8 C 27,0 C 3,2 km/h (1 Bft) 100,00 %
11.07.2016 10:02 27,1 C 61 % 1011,2 hPa 0,0 l/m 0,9 km/h (0 Bft) N 10 2 min 0,000 mm 3,8 UV-I 707 W/m 18,9 C 27,1 C 3,2 km/h (1 Bft) 98,00 %
11.07.2016 10:04 27,2 C 59 % 1011,1 hPa 0,0 l/m 0,7 km/h (0 Bft) W-NW 284 2 min 0,000 mm 3,7 UV-I 647 W/m 18,5 C 27,2 C 3,2 km/h (1 Bft) 98,00 %
11.07.2016 10:06 27,4 C 58 % 1011,2 hPa 0,0 l/m 3,7 km/h (1 Bft) SW 236 2 min 0,000 mm 3,8 UV-I 664 W/m 18,4 C 27,4 C 4,8 km/h (1 Bft) 100,00 %
11.07.2016 10:08 27,8 C 57 % 1011,2 hPa 0,0 l/m 3,4 km/h (1 Bft) SW 214 2 min 0,000 mm 3,5 UV-I 548 W/m 18,5 C 27,8 C 6,4 km/h (2 Bft) 100,00 %
11.07.2016 10:10 27,7 C 56 % 1011,2 hPa 0,0 l/m 1,3 km/h (1 Bft) SW 214 2 min 0,000 mm 3,5 UV-I 644 W/m 18,1 C 27,7 C 3,2 km/h (1 Bft) 100,00 %
11.07.2016 10:12 27,6 C 59 % 1011,2 hPa 0,0 l/m 1,7 km/h (1 Bft) SW 223 2 min 0,000 mm 3,2 UV-I 483 W/m 18,8 C 27,6 C 3,2 km/h (1 Bft) 100,00 %
11.07.2016 10:14 27,6 C 57 % 1011,2 hPa 0,0 l/m 1,5 km/h (1 Bft) SW 229 2 min 0,000 mm 3,7 UV-I 585 W/m 18,3 C 27,6 C 3,2 km/h (1 Bft) 100,00 %
11.07.2016 10:16 27,6 C 60 % 1011,2 hPa 0,0 l/m 1,1 km/h (1 Bft) SW 230 2 min 0,000 mm 4,1 UV-I 719 W/m 19,1 C 27,6 C 3,2 km/h (1 Bft) 100,00 %
11.07.2016 10:18 27,8 C 58 % 1011,2 hPa 0,0 l/m 0,8 km/h (0 Bft) W-SW 242 2 min 0,000 mm 4,0 UV-I 700 W/m 18,8 C 27,8 C 3,2 km/h (1 Bft) 97,73 %
11.07.2016 10:20 28,0 C 60 % 1011,2 hPa 0,0 l/m 1,7 km/h (1 Bft) W-SW 257 2 min 0,000 mm 4,0 UV-I 675 W/m 19,5 C 28,0 C 3,2 km/h (1 Bft) 96,23 %
11.07.2016 10:22 28,0 C 57 % 1011,2 hPa 0,0 l/m 1,1 km/h (1 Bft) W-SW 257 2 min 0,000 mm 3,9 UV-I 630 W/m 18,7 C 28,0 C 3,2 km/h (1 Bft) 98,00 %
11.07.2016 10:24 27,9 C 56 % 1011,2 hPa 0,0 l/m 1,4 km/h (1 Bft) W-SW 257 2 min 0,000 mm 4,0 UV-I 653 W/m 18,3 C 27,9 C 3,2 km/h (1 Bft) 100,00 %
11.07.2016 10:26 28,0 C 61 % 1011,2 hPa 0,0 l/m 2,0 km/h (1 Bft) W 259 2 min 0,000 mm 4,3 UV-I 701 W/m 19,8 C 28,0 C 3,2 km/h (1 Bft) 100,00 %
11.07.2016 10:28 28,1 C 59 % 1011,3 hPa 0,0 l/m 1,5 km/h (1 Bft) W 267 2 min 0,000 mm 4,3 UV-I 719 W/m 19,3 C 28,1 C 3,2 km/h (1 Bft) 100,00 %
11.07.2016 10:30 28,1 C 59 % 1011,3 hPa 0,0 l/m 2,2 km/h (1 Bft) W 278 2 min 0,000 mm 4,4 UV-I 739 W/m 19,3 C 28,1 C 4,8 km/h (1 Bft) 100,00 %
11.07.2016 10:32 28,2 C 62 % 1011,2 hPa 0,0 l/m 2,4 km/h (1 Bft) NW 315 2 min 0,000 mm 4,4 UV-I 721 W/m 20,2 C 28,2 C 4,8 km/h (1 Bft) 100,00 %
11.07.2016 10:34 28,1 C 58 % 1011,2 hPa 0,0 l/m 1,0 km/h (0 Bft) NW 315 2 min 0,000 mm 4,2 UV-I 690 W/m 19,0 C 28,1 C 1,6 km/h (1 Bft) 100,00 %
11.07.2016 10:36 28,1 C 58 % 1011,2 hPa 0,0 l/m 1,2 km/h (1 Bft) N-NO 15 2 min 0,000 mm 4,0 UV-I 595 W/m 19,0 C 28,1 C 4,8 km/h (1 Bft) 100,00 %
11.07.2016 10:38 28,2 C 60 % 1011,2 hPa 0,0 l/m 3,1 km/h (1 Bft) N-NO 23 2 min 0,000 mm 3,9 UV-I 593 W/m 19,7 C 28,2 C 8,0 km/h (2 Bft) 100,00 %
11.07.2016 10:40 28,2 C 59 % 1011,3 hPa 0,0 l/m 2,0 km/h (1 Bft) N 360 2 min 0,000 mm 4,0 UV-I 606 W/m 19,4 C 28,2 C 4,8 km/h (1 Bft) 100,00 %
11.07.2016 10:42 28,2 C 59 % 1011,3 hPa 0,0 l/m 1,0 km/h (0 Bft) N-NW 341 2 min 0,000 mm 3,9 UV-I 572 W/m 19,4 C 28,2 C 3,2 km/h (1 Bft) 100,00 %
11.07.2016 10:44 28,2 C 61 % 1011,3 hPa 0,0 l/m 1,5 km/h (1 Bft) N-NO 24 2 min 0,000 mm 3,7 UV-I 519 W/m 19,9 C 28,2 C 6,4 km/h (2 Bft) 100,00 %
11.07.2016 10:46 28,3 C 60 % 1011,3 hPa 0,0 l/m 4,1 km/h (1 Bft) N 355 2 min 0,000 mm 4,3 UV-I 616 W/m 19,8 C 28,3 C 8,0 km/h (2 Bft) 100,00 %
11.07.2016 10:48 28,3 C 59 % 1011,3 hPa 0,0 l/m 1,9 km/h (1 Bft) NW 319 2 min 0,000 mm 4,5 UV-I 691 W/m 19,5 C 28,3 C 4,8 km/h (1 Bft) 98,00 %
11.07.2016 10:50 28,4 C 58 % 1011,3 hPa 0,0 l/m 2,6 km/h (1 Bft) N-NW 331 2 min 0,000 mm 4,6 UV-I 706 W/m 19,3 C 28,4 C 4,8 km/h (1 Bft) 96,36 %
11.07.2016 10:52 28,5 C 56 % 1011,4 hPa 0,0 l/m 3,1 km/h (1 Bft) NW 317 2 min 0,000 mm 4,9 UV-I 767 W/m 18,8 C 28,5 C 6,4 km/h (2 Bft) 100,00 %
11.07.2016 10:54 28,6 C 53 % 1011,3 hPa 0,0 l/m 2,1 km/h (1 Bft) N-NW 348 2 min 0,000 mm 4,7 UV-I 724 W/m 18,1 C 28,6 C 3,2 km/h (1 Bft) 94,64 %
11.07.2016 10:56 28,6 C 56 % 1011,3 hPa 0,0 l/m 2,3 km/h (1 Bft) W-NW 292 2 min 0,000 mm 4,6 UV-I 692 W/m 18,9 C 28,6 C 4,8 km/h (1 Bft) 91,49 %
11.07.2016 10:58 28,6 C 54 % 1011,3 hPa 0,0 l/m 4,3 km/h (1 Bft) NW 311 2 min 0,000 mm 4,6 UV-I 670 W/m 18,4 C 28,6 C 6,4 km/h (2 Bft) 98,00 %
11.07.2016 11:00 28,5 C 51 % 1011,3 hPa 0,0 l/m 2,3 km/h (1 Bft) W-NW 290 2 min 0,432 mm 4,5 UV-I 636 W/m 17,4 C 28,5 C 4,8 km/h (1 Bft) 97,37 %
11.07.2016 11:02 28,5 C 55 % 1011,3 hPa 0,0 l/m 2,1 km/h (1 Bft) W-NW 297 2 min 0,000 mm 4,4 UV-I 652 W/m 18,6 C 28,5 C 4,8 km/h (1 Bft) 97,87 %
11.07.2016 11:04 28,6 C 55 % 1011,4 hPa 0,0 l/m 3,2 km/h (1 Bft) N 5 2 min 0,000 mm 4,1 UV-I 555 W/m 18,7 C 28,6 C 6,4 km/h (2 Bft) 98,00 %
11.07.2016 11:06 28,6 C 56 % 1011,3 hPa 0,0 l/m 1,3 km/h (1 Bft) N 10 2 min 0,000 mm 4,2 UV-I 545 W/m 18,9 C 28,6 C 4,8 km/h (1 Bft) 95,12 %
11.07.2016 11:08 28,6 C 55 % 1011,3 hPa 0,0 l/m 2,2 km/h (1 Bft) N 355 2 min 0,000 mm 4,1 UV-I 556 W/m 18,7 C 28,6 C 6,4 km/h (2 Bft) 96,23 %
11.07.2016 11:10 28,6 C 54 % 1011,3 hPa 0,0 l/m 1,7 km/h (1 Bft) N 360 2 min 0,000 mm 4,3 UV-I 596 W/m 18,4 C 28,6 C 4,8 km/h (1 Bft) 98,00 %
11.07.2016 11:12 28,5 C 56 % 1011,3 hPa 0,0 l/m 1,3 km/h (1 Bft) N 360 2 min 0,000 mm 4,5 UV-I 628 W/m 18,8 C 28,5 C 3,2 km/h (1 Bft) 97,87 %
11.07.2016 11:14 28,6 C 57 % 1011,4 hPa 0,0 l/m 3,2 km/h (1 Bft) N-NO 12 2 min 0,000 mm 4,8 UV-I 697 W/m 19,2 C 28,6 C 4,8 km/h (1 Bft) 97,56 %
11.07.2016 11:16 28,6 C 54 % 1011,4 hPa 0,0 l/m 3,5 km/h (1 Bft) N-NO 30 2 min 0,000 mm 4,9 UV-I 723 W/m 18,4 C 28,6 C 8,0 km/h (2 Bft) 100,00 %
11.07.2016 11:18 28,8 C 58 % 1011,3 hPa 0,0 l/m 4,5 km/h (1 Bft) N 355 2 min 0,000 mm 4,7 UV-I 671 W/m 19,7 C 28,8 C 6,4 km/h (2 Bft) 97,73 %
11.07.2016 11:20 28,9 C 56 % 1011,4 hPa 0,0 l/m 2,2 km/h (1 Bft) N 351 2 min 0,000 mm 4,9 UV-I 721 W/m 19,2 C 28,9 C 8,0 km/h (2 Bft) 100,00 %
11.07.2016 11:22 29,1 C 52 % 1011,4 hPa 0,0 l/m 2,6 km/h (1 Bft) NW 325 2 min 0,000 mm 4,8 UV-I 702 W/m 18,2 C 29,1 C 4,8 km/h (1 Bft) 100,00 %
11.07.2016 11:24 29,2 C 56 % 1011,3 hPa 0,0 l/m 4,0 km/h (1 Bft) N-NO 24 2 min 0,000 mm 4,8 UV-I 712 W/m 19,5 C 29,2 C 6,4 km/h (2 Bft) 97,56 %
11.07.2016 11:26 29,2 C 54 % 1011,4 hPa 0,0 l/m 2,2 km/h (1 Bft) N-NO 24 2 min 0,000 mm 4,6 UV-I 631 W/m 18,9 C 29,2 C 4,8 km/h (1 Bft) 100,00 %
11.07.2016 11:28 29,3 C 57 % 1011,3 hPa 0,0 l/m 3,0 km/h (1 Bft) N-NO 26 2 min 0,000 mm 5,0 UV-I 707 W/m 19,9 C 29,3 C 4,8 km/h (1 Bft) 100,00 %
11.07.2016 11:30 29,3 C 55 % 1011,3 hPa 0,0 l/m 2,8 km/h (1 Bft) NW 309 2 min 0,000 mm 5,2 UV-I 759 W/m 19,3 C 29,3 C 6,4 km/h (2 Bft) 100,00 %
11.07.2016 11:32 29,3 C 50 % 1011,3 hPa 0,0 l/m 2,3 km/h (1 Bft) W-NW 295 2 min 0,000 mm 5,2 UV-I 751 W/m 17,8 C 29,3 C 4,8 km/h (1 Bft) 100,00 %
11.07.2016 11:34 29,2 C 52 % 1011,3 hPa 0,0 l/m 2,0 km/h (1 Bft) N-NW 340 2 min 0,000 mm 5,3 UV-I 754 W/m 18,3 C 29,2 C 3,2 km/h (1 Bft) 100,00 %
11.07.2016 11:36 29,2 C 49 % 1011,3 hPa 0,0 l/m 1,8 km/h (1 Bft) N-NW 332 2 min 0,000 mm 5,5 UV-I 764 W/m 17,4 C 29,2 C 4,8 km/h (1 Bft) 100,00 %
11.07.2016 11:38 29,2 C 48 % 1011,3 hPa 0,0 l/m 1,1 km/h (1 Bft) N-NW 348 2 min 0,000 mm 5,2 UV-I 741 W/m 17,0 C 29,2 C 3,2 km/h (1 Bft) 100,00 %
11.07.2016 11:40 29,3 C 52 % 1011,3 hPa 0,0 l/m 1,6 km/h (1 Bft) N 355 2 min 0,000 mm 5,2 UV-I 744 W/m 18,4 C 29,3 C 4,8 km/h (1 Bft) 100,00 %
11.07.2016 11:42 29,4 C 50 % 1011,3 hPa 0,0 l/m 2,7 km/h (1 Bft) N-NW 331 2 min 0,000 mm 5,1 UV-I 708 W/m 17,9 C 29,4 C 4,8 km/h (1 Bft) 97,87 %
11.07.2016 11:44 29,4 C 52 % 1011,2 hPa 0,0 l/m 2,2 km/h (1 Bft) NW 324 2 min 0,000 mm 5,0 UV-I 665 W/m 18,5 C 29,4 C 4,8 km/h (1 Bft) 100,00 %
11.07.2016 11:46 29,6 C 53 % 1011,2 hPa 0,0 l/m 0,6 km/h (0 Bft) NW 324 2 min 0,000 mm 5,1 UV-I 695 W/m 19,0 C 29,6 C 1,6 km/h (1 Bft) 100,00 %
11.07.2016 11:48 29,6 C 50 % 1011,2 hPa 0,0 l/m 1,2 km/h (1 Bft) NW 323 2 min 0,000 mm 5,1 UV-I 699 W/m 18,1 C 29,6 C 3,2 km/h (1 Bft) 98,00 %
11.07.2016 11:50 29,6 C 48 % 1011,2 hPa 0,0 l/m 2,7 km/h (1 Bft) NW 306 2 min 0,000 mm 5,2 UV-I 705 W/m 17,4 C 29,6 C 4,8 km/h (1 Bft) 100,00 %
11.07.2016 11:52 29,7 C 48 % 1011,2 hPa 0,0 l/m 0,9 km/h (0 Bft) NW 305 2 min 0,000 mm 5,2 UV-I 717 W/m 17,5 C 29,7 C 3,2 km/h (1 Bft) 100,00 %
11.07.2016 11:54 29,7 C 49 % 1011,1 hPa 0,0 l/m 2,5 km/h (1 Bft) N 355 2 min 0,000 mm 4,9 UV-I 678 W/m 17,8 C 29,7 C 4,8 km/h (1 Bft) 97,14 %
11.07.2016 11:56 29,6 C 47 % 1011,1 hPa 0,0 l/m 1,1 km/h (1 Bft) N 355 2 min 0,000 mm 4,7 UV-I 631 W/m 17,1 C 29,6 C 3,2 km/h (1 Bft) 100,00 %
11.07.2016 11:58 29,4 C 50 % 1011,1 hPa 0,0 l/m 1,7 km/h (1 Bft) N 355 2 min 0,000 mm 4,5 UV-I 578 W/m 17,9 C 29,4 C 3,2 km/h (1 Bft) 97,87 %
11.07.2016 12:00 29,5 C 51 % 1011,1 hPa 0,0 l/m 2,4 km/h (1 Bft) N 355 2 min 0,457 mm 4,7 UV-I 582 W/m 18,3 C 29,5 C 4,8 km/h (1 Bft) 100,00 %
11.07.2016 12:02 29,6 C 51 % 1011,2 hPa 0,0 l/m 1,1 km/h (1 Bft) N 355 2 min 0,000 mm 4,9 UV-I 612 W/m 18,4 C 29,6 C 3,2 km/h (1 Bft) 96,00 %
11.07.2016 12:04 29,7 C 52 % 1011,2 hPa 0,0 l/m 0,5 km/h (0 Bft) N 355 2 min 0,000 mm 5,5 UV-I 765 W/m 18,8 C 29,7 C 1,6 km/h (1 Bft) 100,00 %
11.07.2016 12:06 29,8 C 52 % 1011,2 hPa 0,0 l/m 1,8 km/h (1 Bft) N-NO 15 2 min 0,000 mm 5,5 UV-I 786 W/m 18,9 C 29,8 C 4,8 km/h (1 Bft) 100,00 %
11.07.2016 12:08 29,9 C 52 % 1011,1 hPa 0,0 l/m 3,9 km/h (1 Bft) N-NO 17 2 min 0,000 mm 5,6 UV-I 753 W/m 19,0 C 29,9 C 6,4 km/h (2 Bft) 100,00 %
11.07.2016 12:10 29,9 C 50 % 1011,1 hPa 0,0 l/m 3,2 km/h (1 Bft) N-NO 23 2 min 0,000 mm 5,5 UV-I 772 W/m 18,3 C 29,9 C 6,4 km/h (2 Bft) 96,00 %
11.07.2016 12:12 29,9 C 51 % 1011,1 hPa 0,0 l/m 4,5 km/h (1 Bft) N 5 2 min 0,000 mm 5,7 UV-I 781 W/m 18,6 C 29,9 C 8,0 km/h (2 Bft) 98,11 %
11.07.2016 12:14 29,9 C 49 % 1011,1 hPa 0,0 l/m 4,5 km/h (1 Bft) NO 43 2 min 0,000 mm 5,6 UV-I 710 W/m 18,0 C 29,9 C 6,4 km/h (2 Bft) 100,00 %
11.07.2016 12:16 30,0 C 52 % 1011,1 hPa 0,0 l/m 4,4 km/h (1 Bft) NO 42 2 min 0,000 mm 5,6 UV-I 754 W/m 19,0 C 30,0 C 8,0 km/h (2 Bft) 98,00 %
11.07.2016 12:18 29,9 C 49 % 1011,0 hPa 0,0 l/m 3,8 km/h (1 Bft) N-NO 17 2 min 0,000 mm 5,1 UV-I 721 W/m 18,0 C 29,9 C 6,4 km/h (2 Bft) 100,00 %
11.07.2016 12:20 30,0 C 47 % 1011,0 hPa 0,0 l/m 3,1 km/h (1 Bft) O-NO 65 2 min 0,000 mm 5,6 UV-I 698 W/m 17,4 C 30,0 C 6,4 km/h (2 Bft) 100,00 %
11.07.2016 12:22 30,0 C 46 % 1011,1 hPa 0,0 l/m 4,3 km/h (1 Bft) O-NO 60 2 min 0,000 mm 4,9 UV-I 833 W/m 17,1 C 30,0 C 6,4 km/h (2 Bft) 100,00 %
11.07.2016 12:24 29,8 C 50 % 1011,0 hPa 0,0 l/m 1,0 km/h (0 Bft) N 11 2 min 0,000 mm 4,6 UV-I 610 W/m 18,2 C 29,8 C 4,8 km/h (1 Bft) 96,23 %
11.07.2016 12:26 29,9 C 50 % 1011,0 hPa 0,0 l/m 1,6 km/h (1 Bft) N 355 2 min 0,000 mm 5,9 UV-I 687 W/m 18,3 C 29,9 C 3,2 km/h (1 Bft) 100,00 %
11.07.2016 12:28 29,9 C 52 % 1011,0 hPa 0,0 l/m 2,2 km/h (1 Bft) N-NW 333 2 min 0,000 mm 6,1 UV-I 881 W/m 19,0 C 29,9 C 4,8 km/h (1 Bft) 100,00 %
11.07.2016 12:30 30,0 C 45 % 1011,0 hPa 0,0 l/m 2,1 km/h (1 Bft) S-SW 207 2 min 0,000 mm 6,2 UV-I 892 W/m 16,7 C 30,0 C 3,2 km/h (1 Bft) 97,56 %
11.07.2016 12:32 30,1 C 46 % 1011,0 hPa 0,0 l/m 0,7 km/h (0 Bft) W-NW 285 2 min 0,000 mm 6,2 UV-I 884 W/m 17,2 C 30,1 C 1,6 km/h (1 Bft) 98,21 %
11.07.2016 12:34 30,3 C 48 % 1010,9 hPa 0,0 l/m 2,2 km/h (1 Bft) N 11 2 min 0,000 mm 6,2 UV-I 878 W/m 18,0 C 30,3 C 4,8 km/h (1 Bft) 95,12 %
11.07.2016 12:36 30,4 C 47 % 1011,0 hPa 0,0 l/m 4,0 km/h (1 Bft) NW 325 2 min 0,000 mm 6,2 UV-I 860 W/m 17,8 C 30,4 C 8,0 km/h (2 Bft) 97,73 %
11.07.2016 12:38 30,4 C 49 % 1010,9 hPa 0,0 l/m 4,1 km/h (1 Bft) W-NW 289 2 min 0,000 mm 6,2 UV-I 876 W/m 18,5 C 30,4 C 9,7 km/h (2 Bft) 96,00 %
11.07.2016 12:40 30,4 C 45 % 1010,9 hPa 0,0 l/m 4,8 km/h (1 Bft) N-NW 328 2 min 0,000 mm 5,6 UV-I 789 W/m 17,1 C 30,4 C 9,7 km/h (2 Bft) 95,74 %
11.07.2016 12:42 30,3 C 52 % 1011,0 hPa 0,0 l/m 2,0 km/h (1 Bft) N 5 2 min 0,000 mm 5,1 UV-I 528 W/m 19,3 C 30,3 C 4,8 km/h (1 Bft) 98,00 %
11.07.2016 12:44 30,2 C 48 % 1010,9 hPa 0,0 l/m 1,9 km/h (1 Bft) N 5 0 min 0,000 mm 4,8 UV-I 454 W/m 17,9 C 30,2 C 3,2 km/h (1 Bft) 98,00 %
11.07.2016 12:46 30,1 C 50 % 1010,9 hPa 0,0 l/m 4,0 km/h (1 Bft) N-NO 22 0 min 0,000 mm 4,4 UV-I 355 W/m 18,5 C 30,1 C 6,4 km/h (2 Bft) 97,62 %
11.07.2016 12:48 30,1 C 53 % 1010,9 hPa 0,0 l/m 3,7 km/h (1 Bft) NO 37 0 min 0,000 mm 5,9 UV-I 362 W/m 19,4 C 30,1 C 6,4 km/h (2 Bft) 97,87 %
11.07.2016 12:50 30,3 C 53 % 1010,9 hPa 0,0 l/m 3,1 km/h (1 Bft) N-NO 22 2 min 0,000 mm 6,4 UV-I 623 W/m 19,6 C 30,3 C 4,8 km/h (1 Bft) 96,15 %
11.07.2016 12:52 30,6 C 48 % 1010,9 hPa 0,0 l/m 3,4 km/h (1 Bft) NO 34 2 min 0,000 mm 6,6 UV-I 891 W/m 18,3 C 30,6 C 4,8 km/h (1 Bft) 100,00 %
11.07.2016 12:54 30,8 C 50 % 1010,9 hPa 0,0 l/m 4,4 km/h (1 Bft) NO 38 2 min 0,000 mm 6,5 UV-I 880 W/m 19,1 C 30,8 C 6,4 km/h (2 Bft) 96,43 %
11.07.2016 12:56 30,9 C 45 % 1010,9 hPa 0,0 l/m 3,1 km/h (1 Bft) O-NO 59 2 min 0,000 mm 6,5 UV-I 856 W/m 17,6 C 30,9 C 4,8 km/h (1 Bft) 100,00 %
11.07.2016 12:58 31,1 C 46 % 1010,9 hPa 0,0 l/m 3,1 km/h (1 Bft) NO 36 2 min 0,000 mm 6,4 UV-I 860 W/m 18,1 C 31,1 C 6,4 km/h (2 Bft) 100,00 %
11.07.2016 13:00 31,3 C 47 % 1010,8 hPa 0,0 l/m 7,0 km/h (2 Bft) NO 46 2 min 0,534 mm 6,4 UV-I 850 W/m 18,6 C 31,3 C 11,3 km/h (2 Bft) 100,00 %
11.07.2016 13:02 31,1 C 48 % 1010,8 hPa 0,0 l/m 6,1 km/h (2 Bft) NO 42 2 min 0,000 mm 6,4 UV-I 857 W/m 18,8 C 31,1 C 9,7 km/h (2 Bft) 92,31 %
11.07.2016 13:04 31,0 C 43 % 1010,8 hPa 0,0 l/m 3,5 km/h (1 Bft) O 94 2 min 0,000 mm 6,4 UV-I 854 W/m 16,9 C 31,0 C 6,4 km/h (2 Bft) 100,00 %
11.07.2016 13:06 30,9 C 44 % 1010,8 hPa 0,0 l/m 6,2 km/h (2 Bft) O-NO 67 2 min 0,000 mm 6,2 UV-I 827 W/m 17,2 C 30,9 C 9,7 km/h (2 Bft) 97,87 %
11.07.2016 13:08 31,1 C 46 % 1010,8 hPa 0,0 l/m 5,2 km/h (1 Bft) NO 50 2 min 0,000 mm 6,1 UV-I 803 W/m 18,1 C 31,1 C 8,0 km/h (2 Bft) 100,00 %
11.07.2016 13:10 30,9 C 43 % 1010,8 hPa 0,0 l/m 3,5 km/h (1 Bft) NW 305 2 min 0,000 mm 6,3 UV-I 842 W/m 16,8 C 30,9 C 4,8 km/h (1 Bft) 100,00 %
11.07.2016 13:12 30,8 C 46 % 1010,8 hPa 0,0 l/m 1,8 km/h (1 Bft) O-NO 66 2 min 0,000 mm 6,2 UV-I 810 W/m 17,8 C 30,8 C 3,2 km/h (1 Bft) 97,56 %
11.07.2016 13:14 31,1 C 43 % 1010,8 hPa 0,0 l/m 6,2 km/h (2 Bft) O-NO 64 2 min 0,000 mm 6,2 UV-I 825 W/m 17,0 C 31,1 C 9,7 km/h (2 Bft) 100,00 %
11.07.2016 13:16 31,2 C 48 % 1010,8 hPa 0,0 l/m 4,0 km/h (1 Bft) NO 40 2 min 0,000 mm 6,2 UV-I 823 W/m 18,9 C 31,2 C 8,0 km/h (2 Bft) 100,00 %
11.07.2016 13:18 31,2 C 47 % 1010,7 hPa 0,0 l/m 1,6 km/h (1 Bft) NO 36 2 min 0,000 mm 6,4 UV-I 862 W/m 18,5 C 31,2 C 4,8 km/h (1 Bft) 100,00 %
11.07.2016 13:20 31,2 C 47 % 1010,7 hPa 0,0 l/m 0,7 km/h (0 Bft) N-NO 20 2 min 0,000 mm 6,4 UV-I 856 W/m 18,5 C 31,2 C 3,2 km/h (1 Bft) 100,00 %
11.07.2016 13:22 31,3 C 48 % 1010,7 hPa 0,0 l/m 6,2 km/h (2 Bft) NO 46 2 min 0,000 mm 6,3 UV-I 866 W/m 18,9 C 31,3 C 11,3 km/h (2 Bft) 100,00 %
11.07.2016 13:24 31,4 C 46 % 1010,7 hPa 0,0 l/m 7,2 km/h (2 Bft) NO 36 2 min 0,000 mm 6,5 UV-I 892 W/m 18,4 C 31,4 C 9,7 km/h (2 Bft) 100,00 %
11.07.2016 13:26 31,4 C 46 % 1010,7 hPa 0,0 l/m 6,0 km/h (2 Bft) O-NO 59 2 min 0,000 mm 6,4 UV-I 881 W/m 18,4 C 31,4 C 9,7 km/h (2 Bft) 100,00 %
11.07.2016 13:28 31,4 C 47 % 1010,7 hPa 0,0 l/m 9,4 km/h (2 Bft) NO 40 2 min 0,000 mm 6,4 UV-I 910 W/m 18,7 C 31,3 C 12,9 km/h (3 Bft) 100,00 %
11.07.2016 13:30 31,4 C 48 % 1010,7 hPa 0,0 l/m 6,5 km/h (2 Bft) O-NO 67 2 min 0,000 mm 6,4 UV-I 875 W/m 19,0 C 31,4 C 9,7 km/h (2 Bft) 100,00 %
11.07.2016 13:32 31,4 C 43 % 1010,6 hPa 0,0 l/m 4,1 km/h (1 Bft) O-NO 59 2 min 0,000 mm 6,4 UV-I 876 W/m 17,3 C 31,4 C 9,7 km/h (2 Bft) 100,00 %
11.07.2016 13:34 31,4 C 44 % 1010,6 hPa 0,0 l/m 4,7 km/h (1 Bft) NO 55 2 min 0,000 mm 6,5 UV-I 936 W/m 17,6 C 31,4 C 8,0 km/h (2 Bft) 97,87 %
11.07.2016 13:36 31,6 C 46 % 1010,6 hPa 0,0 l/m 4,4 km/h (1 Bft) O-NO 57 2 min 0,000 mm 6,5 UV-I 936 W/m 18,5 C 31,6 C 8,0 km/h (2 Bft) 98,00 %
11.07.2016 13:38 31,7 C 42 % 1010,6 hPa 0,0 l/m 6,0 km/h (2 Bft) O-NO 73 2 min 0,000 mm 6,4 UV-I 939 W/m 17,2 C 31,7 C 8,0 km/h (2 Bft) 100,00 %
11.07.2016 13:40 31,7 C 41 % 1010,6 hPa 0,0 l/m 6,0 km/h (2 Bft) O-NO 65 2 min 0,000 mm 6,5 UV-I 910 W/m 16,8 C 31,7 C 11,3 km/h (2 Bft) 98,11 %
11.07.2016 13:42 31,7 C 45 % 1010,6 hPa 0,0 l/m 5,2 km/h (1 Bft) O-NO 61 2 min 0,000 mm 6,5 UV-I 929 W/m 18,3 C 31,7 C 9,7 km/h (2 Bft) 97,56 %
11.07.2016 13:44 31,8 C 43 % 1010,6 hPa 0,0 l/m 4,8 km/h (1 Bft) O-NO 72 2 min 0,000 mm 6,2 UV-I 886 W/m 17,6 C 31,8 C 9,7 km/h (2 Bft) 100,00 %
11.07.2016 13:46 31,6 C 49 % 1010,5 hPa 0,0 l/m 2,6 km/h (1 Bft) NO 34 2 min 0,000 mm 6,1 UV-I 860 W/m 19,6 C 31,6 C 6,4 km/h (2 Bft) 98,00 %
11.07.2016 13:48 31,7 C 48 % 1010,5 hPa 0,0 l/m 1,8 km/h (1 Bft) N-NW 329 2 min 0,000 mm 6,2 UV-I 896 W/m 19,3 C 31,7 C 4,8 km/h (1 Bft) 100,00 %
11.07.2016 13:50 31,6 C 43 % 1010,4 hPa 0,0 l/m 3,2 km/h (1 Bft) O-NO 58 2 min 0,000 mm 6,0 UV-I 852 W/m 17,5 C 31,6 C 9,7 km/h (2 Bft) 100,00 %
11.07.2016 13:52 31,6 C 48 % 1010,4 hPa 0,0 l/m 5,4 km/h (1 Bft) N-NO 32 2 min 0,000 mm 6,0 UV-I 863 W/m 19,2 C 31,6 C 9,7 km/h (2 Bft) 100,00 %
11.07.2016 13:54 31,6 C 43 % 1010,4 hPa 0,0 l/m 5,0 km/h (1 Bft) NO 40 2 min 0,000 mm 5,8 UV-I 815 W/m 17,5 C 31,6 C 9,7 km/h (2 Bft) 100,00 %
11.07.2016 13:56 31,6 C 44 % 1010,4 hPa 0,0 l/m 4,8 km/h (1 Bft) NO 34 2 min 0,000 mm 5,4 UV-I 805 W/m 17,8 C 31,6 C 12,9 km/h (3 Bft) 97,87 %
11.07.2016 13:58 31,4 C 43 % 1010,4 hPa 0,0 l/m 6,1 km/h (2 Bft) N 10 2 min 0,000 mm 5,7 UV-I 765 W/m 17,3 C 31,4 C 14,5 km/h (3 Bft) 98,11 %
11.07.2016 14:00 31,3 C 45 % 1010,4 hPa 0,0 l/m 1,8 km/h (1 Bft) NW 309 2 min 0,635 mm 5,9 UV-I 841 W/m 17,9 C 31,3 C 6,4 km/h (2 Bft) 100,00 %
11.07.2016 14:02 31,4 C 44 % 1010,4 hPa 0,0 l/m 4,0 km/h (1 Bft) N 360 2 min 0,000 mm 5,7 UV-I 789 W/m 17,6 C 31,4 C 6,4 km/h (2 Bft) 100,00 %
11.07.2016 14:04 31,3 C 42 % 1010,3 hPa 0,0 l/m 2,1 km/h (1 Bft) N-NW 333 2 min 0,000 mm 5,3 UV-I 763 W/m 16,8 C 31,3 C 4,8 km/h (1 Bft) 97,87 %
11.07.2016 14:06 31,3 C 44 % 1010,3 hPa 0,0 l/m 1,7 km/h (1 Bft) NO 36 2 min 0,000 mm 5,1 UV-I 708 W/m 17,6 C 31,3 C 3,2 km/h (1 Bft) 100,00 %
11.07.2016 14:08 31,3 C 47 % 1010,3 hPa 0,0 l/m 2,5 km/h (1 Bft) N-NO 15 2 min 0,000 mm 5,4 UV-I 756 W/m 18,6 C 31,3 C 4,8 km/h (1 Bft) 100,00 %
11.07.2016 14:10 31,4 C 47 % 1010,3 hPa 0,0 l/m 5,4 km/h (1 Bft) NO 38 2 min 0,000 mm 5,6 UV-I 791 W/m 18,7 C 31,4 C 8,0 km/h (2 Bft) 100,00 %
11.07.2016 14:12 31,7 C 47 % 1010,3 hPa 0,0 l/m 3,9 km/h (1 Bft) NO 42 2 min 0,000 mm 6,0 UV-I 851 W/m 19,0 C 31,7 C 6,4 km/h (2 Bft) 100,00 %
11.07.2016 14:14 31,9 C 43 % 1010,3 hPa 0,0 l/m 5,5 km/h (1 Bft) S 190 2 min 0,000 mm 6,1 UV-I 873 W/m 17,7 C 31,9 C 11,3 km/h (2 Bft) 100,00 %
11.07.2016 14:16 32,2 C 39 % 1010,2 hPa 0,0 l/m 3,3 km/h (1 Bft) S-SO 160 2 min 0,000 mm 6,2 UV-I 898 W/m 16,5 C 32,2 C 8,0 km/h (2 Bft) 100,00 %
11.07.2016 14:18 32,3 C 46 % 1010,2 hPa 0,0 l/m 3,6 km/h (1 Bft) N-NW 331 2 min 0,000 mm 5,9 UV-I 851 W/m 19,2 C 32,3 C 6,4 km/h (2 Bft) 95,74 %
11.07.2016 14:20 32,3 C 42 % 1010,1 hPa 0,0 l/m 2,6 km/h (1 Bft) N-NO 25 2 min 0,000 mm 5,5 UV-I 729 W/m 17,7 C 32,3 C 4,8 km/h (1 Bft) 97,87 %
11.07.2016 14:22 32,2 C 42 % 1010,1 hPa 0,0 l/m 6,1 km/h (2 Bft) O-NO 65 2 min 0,000 mm 5,9 UV-I 809 W/m 17,6 C 32,2 C 8,0 km/h (2 Bft) 97,37 %
11.07.2016 14:24 32,1 C 40 % 1010,1 hPa 0,0 l/m 4,8 km/h (1 Bft) NO 47 2 min 0,000 mm 5,9 UV-I 865 W/m 16,8 C 32,1 C 8,0 km/h (2 Bft) 97,87 %
11.07.2016 14:26 31,8 C 42 % 1010,0 hPa 0,0 l/m 1,5 km/h (1 Bft) NO 44 2 min 0,000 mm 5,8 UV-I 845 W/m 17,3 C 31,8 C 4,8 km/h (1 Bft) 98,11 %
11.07.2016 14:28 31,8 C 45 % 1010,0 hPa 0,0 l/m 5,1 km/h (1 Bft) NO 52 2 min 0,000 mm 5,6 UV-I 798 W/m 18,4 C 31,8 C 8,0 km/h (2 Bft) 96,00 %
11.07.2016 14:30 31,8 C 40 % 1009,9 hPa 0,0 l/m 4,0 km/h (1 Bft) N-NO 30 2 min 0,000 mm 5,5 UV-I 760 W/m 16,5 C 31,8 C 6,4 km/h (2 Bft) 97,87 %
11.07.2016 14:32 31,8 C 44 % 1009,9 hPa 0,0 l/m 1,9 km/h (1 Bft) N 11 2 min 0,000 mm 5,4 UV-I 713 W/m 18,0 C 31,8 C 4,8 km/h (1 Bft) 97,37 %
11.07.2016 14:34 31,8 C 43 % 1009,9 hPa 0,0 l/m 3,2 km/h (1 Bft) N-NW 338 2 min 0,000 mm 5,7 UV-I 817 W/m 17,6 C 31,8 C 4,8 km/h (1 Bft) 98,11 %
11.07.2016 14:36 31,8 C 42 % 1009,9 hPa 0,0 l/m 3,3 km/h (1 Bft) N 9 2 min 0,000 mm 5,7 UV-I 848 W/m 17,3 C 31,8 C 8,0 km/h (2 Bft) 97,14 %
11.07.2016 14:38 31,8 C 47 % 1009,9 hPa 0,0 l/m 4,5 km/h (1 Bft) N 11 2 min 0,000 mm 5,7 UV-I 849 W/m 19,1 C 31,8 C 8,0 km/h (2 Bft) 98,00 %
11.07.2016 14:40 31,8 C 43 % 1009,8 hPa 0,0 l/m 4,4 km/h (1 Bft) NO 38 2 min 0,000 mm 5,3 UV-I 783 W/m 17,6 C 31,8 C 8,0 km/h (2 Bft) 94,34 %
11.07.2016 14:42 31,8 C 47 % 1009,8 hPa 0,0 l/m 4,3 km/h (1 Bft) NW 315 2 min 0,000 mm 4,3 UV-I 699 W/m 19,1 C 31,8 C 11,3 km/h (2 Bft) 97,62 %
11.07.2016 14:44 31,6 C 45 % 1009,8 hPa 0,0 l/m 2,5 km/h (1 Bft) N-NW 337 2 min 0,000 mm 4,4 UV-I 593 W/m 18,2 C 31,6 C 4,8 km/h (1 Bft) 98,00 %
11.07.2016 14:46 31,6 C 46 % 1009,7 hPa 0,0 l/m 2,7 km/h (1 Bft) N 9 2 min 0,000 mm 4,7 UV-I 652 W/m 18,5 C 31,6 C 6,4 km/h (2 Bft) 97,56 %
11.07.2016 14:48 31,6 C 47 % 1009,7 hPa 0,0 l/m 2,8 km/h (1 Bft) N 5 2 min 0,000 mm 4,8 UV-I 671 W/m 18,9 C 31,6 C 6,4 km/h (2 Bft) 100,00 %
11.07.2016 14:50 31,6 C 49 % 1009,7 hPa 0,0 l/m 2,9 km/h (1 Bft) NW 320 2 min 0,000 mm 4,8 UV-I 695 W/m 19,6 C 31,6 C 6,4 km/h (2 Bft) 98,00 %
11.07.2016 14:52 31,7 C 42 % 1009,7 hPa 0,0 l/m 2,7 km/h (1 Bft) N-NW 348 2 min 0,000 mm 5,1 UV-I 748 W/m 17,2 C 31,7 C 4,8 km/h (1 Bft) 100,00 %
11.07.2016 14:54 31,6 C 44 % 1009,6 hPa 0,0 l/m 3,3 km/h (1 Bft) N 10 2 min 0,000 mm 5,2 UV-I 762 W/m 17,8 C 31,6 C 4,8 km/h (1 Bft) 100,00 %
11.07.2016 14:56 31,7 C 45 % 1009,5 hPa 0,0 l/m 2,3 km/h (1 Bft) N-NW 333 2 min 0,000 mm 5,2 UV-I 773 W/m 18,3 C 31,7 C 4,8 km/h (1 Bft) 100,00 %
11.07.2016 14:58 31,8 C 46 % 1009,5 hPa 0,0 l/m 1,7 km/h (1 Bft) N 9 2 min 0,000 mm 5,3 UV-I 788 W/m 18,7 C 31,8 C 3,2 km/h (1 Bft) 100,00 %
11.07.2016 15:00 31,8 C 42 % 1009,5 hPa 0,0 l/m 4,7 km/h (1 Bft) NO 55 2 min 0,000 mm 5,5 UV-I 841 W/m 17,3 C 31,8 C 9,7 km/h (2 Bft) 100,00 %
11.07.2016 15:02 32,0 C 45 % 1009,5 hPa 0,0 l/m 5,4 km/h (1 Bft) NO 52 2 min 0,558 mm 5,5 UV-I 838 W/m 18,5 C 32,0 C 6,4 km/h (2 Bft) 96,77 %
11.07.2016 15:04 32,3 C 40 % 1009,5 hPa 0,0 l/m 7,4 km/h (2 Bft) SO 126 2 min 0,000 mm 5,3 UV-I 807 W/m 16,9 C 32,3 C 12,9 km/h (3 Bft) 100,00 %
11.07.2016 15:06 32,3 C 41 % 1009,4 hPa 0,0 l/m 5,7 km/h (1 Bft) O 79 2 min 0,000 mm 5,2 UV-I 793 W/m 17,3 C 32,3 C 11,3 km/h (2 Bft) 100,00 %
11.07.2016 15:08 32,3 C 39 % 1009,4 hPa 0,0 l/m 5,8 km/h (2 Bft) S 169 2 min 0,000 mm 5,2 UV-I 797 W/m 16,5 C 32,3 C 11,3 km/h (2 Bft) 98,00 %
11.07.2016 15:10 32,3 C 39 % 1009,4 hPa 0,0 l/m 2,7 km/h (1 Bft) S-SO 161 2 min 0,000 mm 5,2 UV-I 809 W/m 16,5 C 32,3 C 6,4 km/h (2 Bft) 100,00 %
11.07.2016 15:12 32,4 C 42 % 1009,3 hPa 0,0 l/m 4,7 km/h (1 Bft) O-SO 115 2 min 0,000 mm 5,2 UV-I 803 W/m 17,8 C 32,4 C 11,3 km/h (2 Bft) 100,00 %
11.07.2016 15:14 32,4 C 40 % 1009,3 hPa 0,0 l/m 5,9 km/h (2 Bft) SO 138 2 min 0,000 mm 5,0 UV-I 789 W/m 17,0 C 32,4 C 11,3 km/h (2 Bft) 97,87 %
11.07.2016 15:16 32,4 C 42 % 1009,3 hPa 0,0 l/m 2,7 km/h (1 Bft) NW 307 2 min 0,000 mm 4,8 UV-I 735 W/m 17,8 C 32,4 C 8,0 km/h (2 Bft) 100,00 %
11.07.2016 15:18 32,4 C 43 % 1009,2 hPa 0,0 l/m 4,1 km/h (1 Bft) N-NO 26 2 min 0,000 mm 4,9 UV-I 774 W/m 18,2 C 32,4 C 8,0 km/h (2 Bft) 100,00 %
11.07.2016 15:20 32,3 C 45 % 1009,2 hPa 0,0 l/m 2,9 km/h (1 Bft) N-NO 13 2 min 0,000 mm 5,0 UV-I 801 W/m 18,8 C 32,3 C 4,8 km/h (1 Bft) 100,00 %
11.07.2016 15:22 32,3 C 46 % 1009,1 hPa 0,0 l/m 3,6 km/h (1 Bft) N-NW 344 2 min 0,000 mm 4,9 UV-I 766 W/m 19,2 C 32,3 C 6,4 km/h (2 Bft) 100,00 %
11.07.2016 15:24 32,3 C 42 % 1009,1 hPa 0,0 l/m 2,5 km/h (1 Bft) N-NW 328 2 min 0,000 mm 4,8 UV-I 760 W/m 17,7 C 32,3 C 4,8 km/h (1 Bft) 97,87 %
11.07.2016 15:26 32,3 C 41 % 1009,1 hPa 0,0 l/m 2,7 km/h (1 Bft) N-NW 329 2 min 0,000 mm 4,7 UV-I 785 W/m 17,3 C 32,3 C 4,8 km/h (1 Bft) 100,00 %
11.07.2016 15:28 32,3 C 41 % 1009,1 hPa 0,0 l/m 2,7 km/h (1 Bft) NW 316 2 min 0,000 mm 4,6 UV-I 739 W/m 17,3 C 32,3 C 6,4 km/h (2 Bft) 100,00 %
11.07.2016 15:30 32,3 C 43 % 1009,1 hPa 0,0 l/m 2,2 km/h (1 Bft) NW 315 2 min 0,000 mm 4,5 UV-I 734 W/m 18,1 C 32,3 C 6,4 km/h (2 Bft) 98,00 %
11.07.2016 15:32 32,3 C 41 % 1009,1 hPa 0,0 l/m 3,1 km/h (1 Bft) NW 311 2 min 0,000 mm 4,5 UV-I 738 W/m 17,3 C 32,3 C 6,4 km/h (2 Bft) 100,00 %
11.07.2016 15:34 32,3 C 40 % 1009,1 hPa 0,0 l/m 5,3 km/h (1 Bft) W-SW 257 2 min 0,000 mm 4,4 UV-I 733 W/m 16,9 C 32,3 C 9,7 km/h (2 Bft) 100,00 %
11.07.2016 15:36 32,4 C 41 % 1009,1 hPa 0,0 l/m 1,9 km/h (1 Bft) N 5 2 min 0,000 mm 4,1 UV-I 707 W/m 17,4 C 32,4 C 6,4 km/h (2 Bft) 100,00 %
11.07.2016 15:38 32,3 C 43 % 1009,1 hPa 0,0 l/m 3,4 km/h (1 Bft) N 11 2 min 0,000 mm 3,9 UV-I 595 W/m 18,1 C 32,3 C 8,0 km/h (2 Bft) 100,00 %
11.07.2016 15:40 32,3 C 47 % 1009,1 hPa 0,0 l/m 4,3 km/h (1 Bft) N-NO 28 2 min 0,000 mm 3,8 UV-I 627 W/m 19,5 C 32,3 C 8,0 km/h (2 Bft) 100,00 %
11.07.2016 15:42 32,1 C 43 % 1009,1 hPa 0,0 l/m 3,7 km/h (1 Bft) NO 38 2 min 0,000 mm 3,0 UV-I 529 W/m 17,9 C 32,1 C 6,4 km/h (2 Bft) 100,00 %
11.07.2016 15:44 32,0 C 47 % 1009,1 hPa 0,0 l/m 3,0 km/h (1 Bft) O-NO 61 2 min 0,000 mm 3,2 UV-I 490 W/m 19,2 C 32,0 C 8,0 km/h (2 Bft) 100,00 %
11.07.2016 15:46 32,0 C 40 % 1009,0 hPa 0,0 l/m 4,3 km/h (1 Bft) O-NO 59 2 min 0,000 mm 3,6 UV-I 603 W/m 16,7 C 32,0 C 8,0 km/h (2 Bft) 100,00 %
11.07.2016 15:48 32,2 C 41 % 1009,0 hPa 0,0 l/m 4,9 km/h (1 Bft) NO 38 2 min 0,000 mm 3,3 UV-I 632 W/m 17,2 C 32,2 C 8,0 km/h (2 Bft) 100,00 %
11.07.2016 15:50 32,2 C 44 % 1009,0 hPa 0,0 l/m 2,5 km/h (1 Bft) NO 38 2 min 0,000 mm 3,1 UV-I 480 W/m 18,4 C 32,2 C 4,8 km/h (1 Bft) 100,00 %
11.07.2016 15:52 32,1 C 43 % 1009,0 hPa 0,0 l/m 1,5 km/h (1 Bft) N-NO 23 2 min 0,000 mm 3,2 UV-I 489 W/m 17,9 C 32,1 C 8,0 km/h (2 Bft) 100,00 %
11.07.2016 15:54 32,1 C 47 % 1009,1 hPa 0,0 l/m 4,2 km/h (1 Bft) N 11 2 min 0,000 mm 4,2 UV-I 743 W/m 19,3 C 32,1 C 8,0 km/h (2 Bft) 100,00 %
11.07.2016 15:56 32,2 C 43 % 1009,1 hPa 0,0 l/m 1,9 km/h (1 Bft) NW 309 2 min 0,000 mm 4,2 UV-I 764 W/m 18,0 C 32,2 C 4,8 km/h (1 Bft) 100,00 %
11.07.2016 15:58 32,2 C 42 % 1009,1 hPa 0,0 l/m 2,3 km/h (1 Bft) NW 320 2 min 0,000 mm 4,0 UV-I 758 W/m 17,6 C 32,2 C 4,8 km/h (1 Bft) 100,00 %
11.07.2016 16:00 32,3 C 44 % 1009,1 hPa 0,0 l/m 2,7 km/h (1 Bft) NW 319 2 min 0,534 mm 4,2 UV-I 781 W/m 18,5 C 32,3 C 4,8 km/h (1 Bft) 96,00 %
11.07.2016 16:02 32,4 C 42 % 1009,0 hPa 0,0 l/m 0,7 km/h (0 Bft) NW 319 2 min 0,000 mm 4,1 UV-I 766 W/m 17,8 C 32,4 C 3,2 km/h (1 Bft) 95,74 %
11.07.2016 16:04 32,6 C 44 % 1009,0 hPa 0,0 l/m 2,5 km/h (1 Bft) NO 34 2 min 0,000 mm 4,0 UV-I 720 W/m 18,7 C 32,6 C 12,9 km/h (3 Bft) 100,00 %
11.07.2016 16:06 32,5 C 43 % 1009,1 hPa 0,0 l/m 3,2 km/h (1 Bft) N-NO 24 2 min 0,000 mm 3,9 UV-I 718 W/m 18,3 C 32,5 C 9,7 km/h (2 Bft) 96,43 %
11.07.2016 16:08 32,4 C 39 % 1009,1 hPa 0,0 l/m 3,7 km/h (1 Bft) NO 46 2 min 0,000 mm 3,8 UV-I 700 W/m 16,6 C 32,4 C 6,4 km/h (2 Bft) 97,87 %
11.07.2016 16:10 32,5 C 40 % 1009,0 hPa 0,0 l/m 1,5 km/h (1 Bft) O-NO 65 2 min 0,000 mm 3,7 UV-I 678 W/m 17,1 C 32,5 C 3,2 km/h (1 Bft) 97,37 %
11.07.2016 16:12 32,7 C 44 % 1009,0 hPa 0,0 l/m 4,0 km/h (1 Bft) O 82 2 min 0,000 mm 3,7 UV-I 689 W/m 18,8 C 32,7 C 8,0 km/h (2 Bft) 96,49 %
11.07.2016 16:14 32,8 C 38 % 1009,0 hPa 0,0 l/m 6,6 km/h (2 Bft) O-NO 68 2 min 0,000 mm 3,7 UV-I 687 W/m 16,6 C 32,8 C 9,7 km/h (2 Bft) 95,12 %
11.07.2016 16:16 32,8 C 37 % 1009,0 hPa 0,0 l/m 4,6 km/h (1 Bft) O 99 2 min 0,000 mm 3,5 UV-I 651 W/m 16,2 C 32,8 C 8,0 km/h (2 Bft) 97,14 %
11.07.2016 16:18 32,7 C 37 % 1009,0 hPa 0,0 l/m 2,2 km/h (1 Bft) O 98 2 min 0,000 mm 3,4 UV-I 658 W/m 16,1 C 32,7 C 4,8 km/h (1 Bft) 98,11 %
11.07.2016 16:20 32,6 C 37 % 1009,0 hPa 0,0 l/m 0,9 km/h (0 Bft) O 98 2 min 0,000 mm 3,5 UV-I 689 W/m 16,0 C 32,6 C 3,2 km/h (1 Bft) 94,34 %
11.07.2016 16:22 32,7 C 38 % 1009,0 hPa 0,0 l/m 5,3 km/h (1 Bft) O-NO 73 2 min 0,000 mm 3,4 UV-I 637 W/m 16,5 C 32,7 C 12,9 km/h (3 Bft) 97,56 %
11.07.2016 16:24 32,8 C 37 % 1009,0 hPa 0,0 l/m 6,9 km/h (2 Bft) O-NO 73 2 min 0,000 mm 3,4 UV-I 659 W/m 16,2 C 32,8 C 14,5 km/h (3 Bft) 100,00 %
11.07.2016 16:26 32,8 C 41 % 1009,0 hPa 0,0 l/m 5,3 km/h (1 Bft) NO 53 2 min 0,000 mm 3,2 UV-I 595 W/m 17,8 C 32,8 C 9,7 km/h (2 Bft) 100,00 %
11.07.2016 16:28 32,8 C 39 % 1008,9 hPa 0,0 l/m 9,2 km/h (2 Bft) O 101 2 min 0,000 mm 3,3 UV-I 607 W/m 17,0 C 32,8 C 16,1 km/h (3 Bft) 97,37 %
11.07.2016 16:30 32,9 C 38 % 1008,9 hPa 0,0 l/m 10,5 km/h (2 Bft) O-NO 65 2 min 0,000 mm 3,3 UV-I 663 W/m 16,7 C 32,9 C 14,5 km/h (3 Bft) 100,00 %
11.07.2016 16:32 32,9 C 39 % 1009,0 hPa 0,0 l/m 7,3 km/h (2 Bft) NO 56 2 min 0,000 mm 3,1 UV-I 625 W/m 17,1 C 32,9 C 11,3 km/h (2 Bft) 97,87 %
11.07.2016 16:34 32,9 C 38 % 1009,0 hPa 0,0 l/m 7,2 km/h (2 Bft) O-SO 117 2 min 0,000 mm 3,1 UV-I 635 W/m 16,7 C 32,9 C 11,3 km/h (2 Bft) 100,00 %
11.07.2016 16:36 32,9 C 40 % 1008,9 hPa 0,0 l/m 2,9 km/h (1 Bft) O-SO 117 2 min 0,000 mm 3,1 UV-I 638 W/m 17,5 C 32,9 C 4,8 km/h (1 Bft) 100,00 %
11.07.2016 16:38 32,9 C 39 % 1008,9 hPa 0,0 l/m 5,0 km/h (1 Bft) N 360 2 min 0,000 mm 3,1 UV-I 634 W/m 17,1 C 32,9 C 9,7 km/h (2 Bft) 97,87 %
11.07.2016 16:40 32,7 C 40 % 1008,9 hPa 0,0 l/m 1,7 km/h (1 Bft) N 5 2 min 0,000 mm 3,0 UV-I 617 W/m 17,3 C 32,7 C 4,8 km/h (1 Bft) 100,00 %
11.07.2016 16:42 32,7 C 42 % 1008,9 hPa 0,0 l/m 4,6 km/h (1 Bft) N 11 2 min 0,000 mm 2,9 UV-I 611 W/m 18,1 C 32,7 C 14,5 km/h (3 Bft) 100,00 %
11.07.2016 16:44 32,6 C 43 % 1008,9 hPa 0,0 l/m 5,0 km/h (1 Bft) O-NO 74 2 min 0,000 mm 2,9 UV-I 609 W/m 18,4 C 32,6 C 11,3 km/h (2 Bft) 100,00 %
11.07.2016 16:46 32,7 C 39 % 1008,9 hPa 0,0 l/m 8,4 km/h (2 Bft) N-NO 24 2 min 0,000 mm 2,8 UV-I 606 W/m 16,9 C 32,7 C 14,5 km/h (3 Bft) 98,11 %
11.07.2016 16:48 32,8 C 45 % 1009,0 hPa 0,0 l/m 4,3 km/h (1 Bft) N-NO 26 2 min 0,000 mm 2,7 UV-I 583 W/m 19,3 C 32,8 C 16,1 km/h (3 Bft) 100,00 %
11.07.2016 16:50 32,6 C 41 % 1008,9 hPa 0,0 l/m 12,8 km/h (3 Bft) N-NO 19 2 min 0,000 mm 2,6 UV-I 548 W/m 17,6 C 32,5 C 19,3 km/h (3 Bft) 100,00 %
11.07.2016 16:52 32,3 C 44 % 1008,9 hPa 0,0 l/m 5,1 km/h (1 Bft) N-NO 16 2 min 0,000 mm 2,6 UV-I 563 W/m 18,5 C 32,3 C 11,3 km/h (2 Bft) 100,00 %
11.07.2016 16:54 32,2 C 44 % 1008,9 hPa 0,0 l/m 4,1 km/h (1 Bft) N-NO 24 2 min 0,000 mm 2,5 UV-I 568 W/m 18,4 C 32,2 C 9,7 km/h (2 Bft) 100,00 %
11.07.2016 16:56 32,2 C 44 % 1008,9 hPa 0,0 l/m 5,4 km/h (1 Bft) N-NO 19 2 min 0,000 mm 2,5 UV-I 565 W/m 18,4 C 32,2 C 11,3 km/h (2 Bft) 100,00 %
11.07.2016 16:58 32,3 C 44 % 1008,9 hPa 0,0 l/m 3,2 km/h (1 Bft) O-NO 63 2 min 0,000 mm 2,5 UV-I 570 W/m 18,5 C 32,3 C 6,4 km/h (2 Bft) 100,00 %
11.07.2016 17:00 32,7 C 39 % 1008,8 hPa 0,0 l/m 7,3 km/h (2 Bft) NO 49 2 min 0,482 mm 2,4 UV-I 568 W/m 16,9 C 32,7 C 14,5 km/h (3 Bft) 97,87 %
11.07.2016 17:02 32,7 C 42 % 1008,9 hPa 0,0 l/m 9,9 km/h (2 Bft) NO 42 2 min 0,000 mm 2,4 UV-I 570 W/m 18,1 C 32,7 C 14,5 km/h (3 Bft) 100,00 %
11.07.2016 17:04 32,6 C 42 % 1008,9 hPa 0,0 l/m 12,2 km/h (2 Bft) O-NO 59 2 min 0,000 mm 2,4 UV-I 570 W/m 18,0 C 32,5 C 17,7 km/h (3 Bft) 97,14 %
11.07.2016 17:06 32,4 C 42 % 1008,9 hPa 0,0 l/m 9,5 km/h (2 Bft) O 80 2 min 0,000 mm 2,2 UV-I 538 W/m 17,8 C 32,3 C 16,1 km/h (3 Bft) 100,00 %
11.07.2016 17:08 32,4 C 40 % 1008,8 hPa 0,0 l/m 11,1 km/h (2 Bft) NO 49 2 min 0,000 mm 2,1 UV-I 415 W/m 17,0 C 32,3 C 20,9 km/h (4 Bft) 100,00 %
11.07.2016 17:10 32,7 C 39 % 1008,7 hPa 0,0 l/m 10,4 km/h (2 Bft) O-NO 77 2 min 0,000 mm 2,1 UV-I 454 W/m 16,9 C 32,7 C 16,1 km/h (3 Bft) 100,00 %
11.07.2016 17:12 32,8 C 38 % 1008,7 hPa 0,0 l/m 7,1 km/h (2 Bft) O 98 2 min 0,000 mm 2,1 UV-I 501 W/m 16,6 C 32,8 C 12,9 km/h (3 Bft) 100,00 %
11.07.2016 17:14 32,8 C 40 % 1008,7 hPa 0,0 l/m 7,4 km/h (2 Bft) NO 34 2 min 0,000 mm 2,0 UV-I 481 W/m 17,4 C 32,8 C 14,5 km/h (3 Bft) 100,00 %
11.07.2016 17:16 32,7 C 40 % 1008,7 hPa 0,0 l/m 6,5 km/h (2 Bft) NO 47 2 min 0,000 mm 1,9 UV-I 430 W/m 17,3 C 32,7 C 11,3 km/h (2 Bft) 100,00 %
11.07.2016 17:18 32,7 C 40 % 1008,6 hPa 0,0 l/m 6,9 km/h (2 Bft) NO 53 2 min 0,000 mm 1,8 UV-I 415 W/m 17,3 C 32,7 C 9,7 km/h (2 Bft) 100,00 %
11.07.2016 17:20 32,5 C 39 % 1008,6 hPa 0,0 l/m 13,8 km/h (3 Bft) O-NO 67 2 min 0,000 mm 1,8 UV-I 439 W/m 16,7 C 32,4 C 20,9 km/h (4 Bft) 97,62 %
11.07.2016 17:22 32,4 C 40 % 1008,6 hPa 0,0 l/m 13,2 km/h (3 Bft) NO 54 2 min 0,000 mm 1,8 UV-I 453 W/m 17,0 C 32,3 C 20,9 km/h (4 Bft) 100,00 %
11.07.2016 17:24 32,3 C 41 % 1008,5 hPa 0,0 l/m 12,1 km/h (2 Bft) N-NO 23 2 min 0,000 mm 1,8 UV-I 458 W/m 17,3 C 32,2 C 17,7 km/h (3 Bft) 100,00 %
11.07.2016 17:26 32,2 C 40 % 1008,5 hPa 0,0 l/m 12,5 km/h (3 Bft) NO 40 2 min 0,000 mm 1,8 UV-I 468 W/m 16,9 C 32,1 C 19,3 km/h (3 Bft) 100,00 %
11.07.2016 17:28 32,3 C 40 % 1008,5 hPa 0,0 l/m 13,7 km/h (3 Bft) O-NO 67 2 min 0,000 mm 1,8 UV-I 451 W/m 16,9 C 32,2 C 17,7 km/h (3 Bft) 100,00 %
11.07.2016 17:30 32,3 C 40 % 1008,5 hPa 0,0 l/m 12,1 km/h (2 Bft) NO 56 2 min 0,000 mm 1,7 UV-I 427 W/m 16,9 C 32,2 C 17,7 km/h (3 Bft) 97,87 %
11.07.2016 17:32 32,3 C 40 % 1008,5 hPa 0,0 l/m 10,6 km/h (2 Bft) NO 43 2 min 0,000 mm 1,6 UV-I 409 W/m 16,9 C 32,2 C 14,5 km/h (3 Bft) 100,00 %
11.07.2016 17:34 32,2 C 39 % 1008,5 hPa 0,0 l/m 10,8 km/h (2 Bft) NO 44 2 min 0,000 mm 1,5 UV-I 362 W/m 16,5 C 32,1 C 16,1 km/h (3 Bft) 100,00 %
11.07.2016 17:36 32,1 C 40 % 1008,5 hPa 0,0 l/m 12,3 km/h (3 Bft) N-NO 32 2 min 0,000 mm 1,4 UV-I 335 W/m 16,8 C 32,0 C 17,7 km/h (3 Bft) 100,00 %
11.07.2016 17:38 32,0 C 42 % 1008,5 hPa 0,0 l/m 10,1 km/h (2 Bft) NO 36 2 min 0,000 mm 1,4 UV-I 341 W/m 17,4 C 31,9 C 16,1 km/h (3 Bft) 100,00 %
11.07.2016 17:40 31,9 C 40 % 1008,5 hPa 0,0 l/m 11,1 km/h (2 Bft) NO 49 2 min 0,000 mm 1,4 UV-I 359 W/m 16,6 C 31,8 C 16,1 km/h (3 Bft) 96,15 %
11.07.2016 17:42 31,8 C 44 % 1008,4 hPa 0,0 l/m 5,7 km/h (1 Bft) NO 34 2 min 0,000 mm 1,4 UV-I 373 W/m 18,0 C 31,8 C 9,7 km/h (2 Bft) 98,53 %
11.07.2016 17:44 31,7 C 42 % 1008,4 hPa 0,0 l/m 9,2 km/h (2 Bft) NO 47 2 min 0,000 mm 1,3 UV-I 366 W/m 17,2 C 31,6 C 14,5 km/h (3 Bft) 97,56 %
11.07.2016 17:46 31,6 C 43 % 1008,3 hPa 0,0 l/m 8,9 km/h (2 Bft) NO 40 2 min 0,000 mm 1,3 UV-I 348 W/m 17,5 C 31,5 C 14,5 km/h (3 Bft) 92,00 %
11.07.2016 17:48 31,4 C 44 % 1008,3 hPa 0,0 l/m 7,5 km/h (2 Bft) NO 49 2 min 0,000 mm 1,2 UV-I 291 W/m 17,6 C 31,3 C 9,7 km/h (2 Bft) 97,37 %
11.07.2016 17:50 31,4 C 42 % 1008,3 hPa 0,0 l/m 8,5 km/h (2 Bft) O-NO 62 0 min 0,000 mm 1,1 UV-I 247 W/m 16,9 C 31,3 C 14,5 km/h (3 Bft) 96,00 %
11.07.2016 17:52 31,6 C 41 % 1008,3 hPa 0,0 l/m 6,5 km/h (2 Bft) N-NO 32 0 min 0,000 mm 1,1 UV-I 235 W/m 16,7 C 31,6 C 9,7 km/h (2 Bft) 98,11 %
11.07.2016 17:54 31,4 C 44 % 1008,2 hPa 0,0 l/m 8,2 km/h (2 Bft) NO 38 0 min 0,000 mm 1,1 UV-I 242 W/m 17,6 C 31,3 C 12,9 km/h (3 Bft) 97,56 %
11.07.2016 17:56 31,2 C 45 % 1008,2 hPa 0,0 l/m 6,1 km/h (2 Bft) NO 42 0 min 0,000 mm 1,1 UV-I 254 W/m 17,8 C 31,2 C 9,7 km/h (2 Bft) 97,62 %
11.07.2016 17:58 31,0 C 45 % 1008,2 hPa 0,0 l/m 6,9 km/h (2 Bft) N-NO 20 2 min 0,000 mm 1,1 UV-I 272 W/m 17,6 C 31,0 C 11,3 km/h (2 Bft) 96,00 %
11.07.2016 18:00 30,9 C 46 % 1008,3 hPa 0,0 l/m 6,7 km/h (2 Bft) NO 50 2 min 0,000 mm 1,0 UV-I 283 W/m 17,9 C 30,9 C 14,5 km/h (3 Bft) 97,87 %
11.07.2016 18:02 31,1 C 44 % 1008,3 hPa 0,0 l/m 8,0 km/h (2 Bft) O-NO 71 2 min 0,381 mm 1,0 UV-I 267 W/m 17,4 C 31,0 C 14,5 km/h (3 Bft) 95,74 %
11.07.2016 18:04 31,3 C 42 % 1008,4 hPa 0,0 l/m 7,1 km/h (2 Bft) NO 53 2 min 0,000 mm 1,0 UV-I 249 W/m 16,8 C 31,3 C 9,7 km/h (2 Bft) 95,74 %
11.07.2016 18:06 31,5 C 43 % 1008,4 hPa 0,0 l/m 7,1 km/h (2 Bft) O 99 0 min 0,000 mm 0,9 UV-I 193 W/m 17,4 C 31,5 C 14,5 km/h (3 Bft) 96,23 %
11.07.2016 18:08 31,6 C 42 % 1008,4 hPa 0,0 l/m 9,7 km/h (2 Bft) O-NO 67 0 min 0,000 mm 0,8 UV-I 175 W/m 17,1 C 31,5 C 14,5 km/h (3 Bft) 97,37 %
11.07.2016 18:10 31,6 C 42 % 1008,4 hPa 0,0 l/m 6,1 km/h (2 Bft) O-SO 109 0 min 0,000 mm 0,7 UV-I 166 W/m 17,1 C 31,6 C 8,0 km/h (2 Bft) 98,21 %
11.07.2016 18:12 31,5 C 42 % 1008,4 hPa 0,0 l/m 6,7 km/h (2 Bft) O 82 0 min 0,000 mm 0,6 UV-I 152 W/m 17,0 C 31,5 C 11,3 km/h (2 Bft) 100,00 %
11.07.2016 18:14 31,4 C 41 % 1008,3 hPa 0,0 l/m 9,6 km/h (2 Bft) O-NO 65 0 min 0,000 mm 0,5 UV-I 133 W/m 16,5 C 31,2 C 16,1 km/h (3 Bft) 100,00 %
11.07.2016 18:16 31,4 C 42 % 1008,3 hPa 0,0 l/m 8,4 km/h (2 Bft) O-NO 73 0 min 0,000 mm 0,5 UV-I 120 W/m 16,9 C 31,3 C 12,9 km/h (3 Bft) 97,87 %
11.07.2016 18:18 31,3 C 42 % 1008,3 hPa 0,0 l/m 11,5 km/h (2 Bft) O-NO 77 0 min 0,000 mm 0,3 UV-I 102 W/m 16,8 C 31,1 C 16,1 km/h (3 Bft) 98,11 %
11.07.2016 18:20 31,2 C 44 % 1008,2 hPa 0,0 l/m 9,7 km/h (2 Bft) O-NO 76 0 min 0,000 mm 0,0 UV-I 89 W/m 17,5 C 31,0 C 16,1 km/h (3 Bft) 97,73 %
11.07.2016 18:22 31,1 C 44 % 1008,2 hPa 0,0 l/m 10,1 km/h (2 Bft) O-NO 65 0 min 0,000 mm 0,0 UV-I 82 W/m 17,4 C 30,9 C 16,1 km/h (3 Bft) 100,00 %
11.07.2016 18:24 31,0 C 44 % 1008,2 hPa 0,0 l/m 7,1 km/h (2 Bft) O-SO 105 0 min 0,000 mm 0,0 UV-I 75 W/m 17,3 C 31,0 C 14,5 km/h (3 Bft) 100,00 %
11.07.2016 18:26 30,9 C 45 % 1008,2 hPa 0,0 l/m 11,5 km/h (2 Bft) S-SO 150 0 min 0,000 mm 0,0 UV-I 69 W/m 17,6 C 30,6 C 16,1 km/h (3 Bft) 100,00 %
11.07.2016 18:28 30,8 C 46 % 1008,2 hPa 0,0 l/m 19,4 km/h (3 Bft) SO 134 0 min 0,000 mm 0,0 UV-I 69 W/m 17,8 C 30,2 C 33,8 km/h (5 Bft) 100,00 %
11.07.2016 18:30 30,3 C 47 % 1008,3 hPa 0,0 l/m 16,4 km/h (3 Bft) S 179 0 min 0,000 mm 0,0 UV-I 79 W/m 17,7 C 29,7 C 24,1 km/h (4 Bft) 100,00 %
11.07.2016 18:32 29,8 C 48 % 1008,3 hPa 0,0 l/m 17,0 km/h (3 Bft) SO 132 0 min 0,000 mm 0,0 UV-I 99 W/m 17,6 C 29,0 C 25,7 km/h (4 Bft) 100,00 %
11.07.2016 18:34 29,4 C 48 % 1008,3 hPa 0,0 l/m 17,8 km/h (3 Bft) S-SO 150 0 min 0,000 mm 0,0 UV-I 122 W/m 17,2 C 28,5 C 27,4 km/h (4 Bft) 95,24 %
11.07.2016 18:35 29,2 C 49 % 1008,3 hPa 0,0 l/m 15,4 km/h (3 Bft) O-SO 115 0 min 0,000 mm 0,0 UV-I 140 W/m 17,4 C 28,4 C 25,7 km/h (4 Bft) 96,15 %
11.07.2016 18:36 29,1 C 49 % 1008,3 hPa 0,0 l/m 15,5 km/h (3 Bft) SO 128 0 min 0,000 mm 0,5 UV-I 154 W/m 17,3 C 28,2 C 24,1 km/h (4 Bft) 100,00 %
11.07.2016 18:37 28,9 C 49 % 1008,3 hPa 0,0 l/m 20,0 km/h (4 Bft) O 84 0 min 0,000 mm 0,5 UV-I 165 W/m 17,1 C 27,7 C 27,4 km/h (4 Bft) 100,00 %
11.07.2016 18:38 28,8 C 50 % 1008,2 hPa 0,0 l/m 14,4 km/h (3 Bft) SO 136 0 min 0,000 mm 0,5 UV-I 174 W/m 17,3 C 28,0 C 25,7 km/h (4 Bft) 100,00 %
11.07.2016 18:39 28,8 C 50 % 1008,2 hPa 0,0 l/m 14,8 km/h (3 Bft) O-SO 115 0 min 0,000 mm 0,6 UV-I 178 W/m 17,3 C 27,9 C 20,9 km/h (4 Bft) 100,00 %
11.07.2016 18:40 28,7 C 50 % 1008,3 hPa 0,0 l/m 18,0 km/h (3 Bft) O-SO 113 0 min 0,000 mm 0,6 UV-I 179 W/m 17,2 C 27,6 C 27,4 km/h (4 Bft) 100,00 %
11.07.2016 18:41 28,7 C 50 % 1008,3 hPa 0,0 l/m 16,5 km/h (3 Bft) O-SO 105 0 min 0,000 mm 0,6 UV-I 175 W/m 17,2 C 27,7 C 27,4 km/h (4 Bft) 100,00 %
11.07.2016 18:42 28,6 C 51 % 1008,3 hPa 0,0 l/m 8,9 km/h (2 Bft) O-SO 115 0 min 0,000 mm 0,6 UV-I 169 W/m 17,4 C 28,3 C 16,1 km/h (3 Bft) 100,00 %
11.07.2016 18:43 28,6 C 50 % 1008,3 hPa 0,0 l/m 12,7 km/h (3 Bft) O-SO 107 0 min 0,000 mm 0,6 UV-I 161 W/m 17,1 C 27,9 C 20,9 km/h (4 Bft) 100,00 %
11.07.2016 18:44 28,6 C 50 % 1008,3 hPa 0,0 l/m 12,0 km/h (2 Bft) S-SO 163 0 min 0,000 mm 0,6 UV-I 150 W/m 17,1 C 27,9 C 16,1 km/h (3 Bft) 92,86 %
11.07.2016 18:45 28,6 C 50 % 1008,3 hPa 0,0 l/m 8,4 km/h (2 Bft) O-SO 113 0 min 0,000 mm 0,5 UV-I 138 W/m 17,1 C 28,3 C 14,5 km/h (3 Bft) 100,00 %
11.07.2016 18:46 28,5 C 50 % 1008,3 hPa 0,0 l/m 10,1 km/h (2 Bft) SO 133 0 min 0,000 mm 0,5 UV-I 122 W/m 17,0 C 28,0 C 12,9 km/h (3 Bft) 100,00 %
11.07.2016 18:47 28,4 C 51 % 1008,3 hPa 0,0 l/m 9,7 km/h (2 Bft) SO 134 0 min 0,000 mm 0,5 UV-I 107 W/m 17,3 C 28,0 C 16,1 km/h (3 Bft) 100,00 %
11.07.2016 18:48 28,4 C 50 % 1008,2 hPa 0,0 l/m 10,8 km/h (2 Bft) O-SO 110 0 min 0,000 mm 0,5 UV-I 95 W/m 17,0 C 27,8 C 16,1 km/h (3 Bft) 100,00 %
11.07.2016 18:49 28,4 C 51 % 1008,2 hPa 0,0 l/m 8,2 km/h (2 Bft) O 96 0 min 0,000 mm 0,4 UV-I 85 W/m 17,3 C 28,1 C 11,3 km/h (2 Bft) 100,00 %
11.07.2016 18:50 28,3 C 51 % 1008,2 hPa 0,0 l/m 8,9 km/h (2 Bft) O-SO 111 0 min 0,000 mm 0,0 UV-I 75 W/m 17,2 C 27,9 C 14,5 km/h (3 Bft) 100,00 %
11.07.2016 18:51 28,3 C 51 % 1008,2 hPa 0,0 l/m 8,3 km/h (2 Bft) O 86 0 min 0,000 mm 0,0 UV-I 70 W/m 17,2 C 28,0 C 14,5 km/h (3 Bft) 100,00 %
11.07.2016 18:52 28,2 C 52 % 1008,1 hPa 0,0 l/m 7,1 km/h (2 Bft) O-SO 122 0 min 0,000 mm 0,0 UV-I 64 W/m 17,4 C 28,1 C 12,9 km/h (3 Bft) 100,00 %
11.07.2016 18:53 28,2 C 51 % 1008,1 hPa 0,0 l/m 9,3 km/h (2 Bft) O 87 0 min 0,000 mm 0,0 UV-I 60 W/m 17,1 C 27,8 C 11,3 km/h (2 Bft) 100,00 %
11.07.2016 18:54 28,1 C 52 % 1008,1 hPa 0,0 l/m 4,6 km/h (1 Bft) O 100 0 min 0,000 mm 0,0 UV-I 57 W/m 17,3 C 28,1 C 6,4 km/h (2 Bft) 100,00 %
11.07.2016 18:55 28,1 C 52 % 1008,0 hPa 0,0 l/m 6,0 km/h (2 Bft) O 84 0 min 0,000 mm 0,0 UV-I 56 W/m 17,3 C 28,1 C 8,0 km/h (2 Bft) 100,00 %
11.07.2016 18:56 28,1 C 52 % 1007,9 hPa 0,0 l/m 7,3 km/h (2 Bft) O-NO 74 0 min 0,000 mm 0,0 UV-I 57 W/m 17,3 C 28,0 C 11,3 km/h (2 Bft) 100,00 %
11.07.2016 18:57 28,0 C 53 % 1007,9 hPa 0,0 l/m 9,1 km/h (2 Bft) O-NO 75 0 min 0,000 mm 0,0 UV-I 58 W/m 17,5 C 27,6 C 12,9 km/h (3 Bft) 100,00 %
11.07.2016 18:58 27,9 C 53 % 1007,8 hPa 0,0 l/m 12,1 km/h (2 Bft) O 84 0 min 0,000 mm 0,0 UV-I 58 W/m 17,4 C 27,1 C 16,1 km/h (3 Bft) 100,00 %
11.07.2016 18:59 27,9 C 53 % 1007,8 hPa 0,0 l/m 6,9 km/h (2 Bft) O-SO 109 0 min 0,000 mm 0,0 UV-I 56 W/m 17,4 C 27,8 C 16,1 km/h (3 Bft) 100,00 %
11.07.2016 19:00 27,9 C 53 % 1007,7 hPa 0,0 l/m 15,1 km/h (3 Bft) O 90 0 min 0,000 mm 0,0 UV-I 56 W/m 17,4 C 26,8 C 20,9 km/h (4 Bft) 100,00 %
11.07.2016 19:01 27,9 C 53 % 1007,6 hPa 0,0 l/m 15,0 km/h (3 Bft) O-SO 115 0 min 0,178 mm 0,0 UV-I 54 W/m 17,4 C 26,8 C 20,9 km/h (4 Bft) 100,00 %
11.07.2016 19:02 27,8 C 52 % 1007,6 hPa 0,0 l/m 18,8 km/h (3 Bft) O-SO 116 0 min 0,000 mm 0,0 UV-I 49 W/m 17,0 C 26,4 C 24,1 km/h (4 Bft) 91,30 %
11.07.2016 19:03 27,8 C 52 % 1007,6 hPa 0,0 l/m 14,0 km/h (3 Bft) O 97 0 min 0,000 mm 0,0 UV-I 43 W/m 17,0 C 26,8 C 19,3 km/h (3 Bft) 100,00 %
11.07.2016 19:04 27,8 C 52 % 1007,6 hPa 0,0 l/m 15,5 km/h (3 Bft) SO 134 0 min 0,000 mm 0,0 UV-I 39 W/m 17,0 C 26,7 C 27,4 km/h (4 Bft) 100,00 %
11.07.2016 19:05 27,8 C 51 % 1007,7 hPa 0,0 l/m 19,3 km/h (3 Bft) SO 132 0 min 0,000 mm 0,0 UV-I 35 W/m 16,7 C 26,3 C 25,7 km/h (4 Bft) 100,00 %
11.07.2016 19:06 27,8 C 51 % 1007,7 hPa 0,0 l/m 13,3 km/h (3 Bft) O-NO 63 0 min 0,000 mm 0,0 UV-I 36 W/m 16,7 C 26,9 C 17,7 km/h (3 Bft) 100,00 %
11.07.2016 19:07 27,8 C 52 % 1007,7 hPa 0,0 l/m 11,8 km/h (2 Bft) SO 126 0 min 0,000 mm 0,0 UV-I 34 W/m 17,0 C 27,0 C 14,5 km/h (3 Bft) 100,00 %
11.07.2016 19:08 27,8 C 51 % 1007,6 hPa 0,0 l/m 11,8 km/h (2 Bft) O-SO 119 0 min 0,000 mm 0,0 UV-I 30 W/m 16,7 C 27,0 C 14,5 km/h (3 Bft) 96,15 %
11.07.2016 19:09 27,8 C 52 % 1007,6 hPa 0,0 l/m 10,4 km/h (2 Bft) SO 127 0 min 0,000 mm 0,0 UV-I 26 W/m 17,0 C 27,2 C 12,9 km/h (3 Bft) 100,00 %
11.07.2016 19:10 27,7 C 51 % 1007,5 hPa 0,0 l/m 10,9 km/h (2 Bft) O-SO 111 0 min 0,000 mm 0,0 UV-I 28 W/m 16,6 C 27,0 C 22,5 km/h (4 Bft) 95,65 %
11.07.2016 19:11 27,7 C 51 % 1007,5 hPa 0,0 l/m 15,9 km/h (3 Bft) O 88 0 min 0,000 mm 0,0 UV-I 28 W/m 16,6 C 26,5 C 20,9 km/h (4 Bft) 100,00 %
11.07.2016 19:12 27,7 C 51 % 1007,5 hPa 0,0 l/m 12,1 km/h (2 Bft) O-SO 115 0 min 0,000 mm 0,0 UV-I 31 W/m 16,6 C 26,9 C 17,7 km/h (3 Bft) 98,76 %
11.07.2016 19:13 27,7 C 51 % 1007,5 hPa 0,0 l/m 15,5 km/h (3 Bft) O 84 0 min 0,000 mm 0,0 UV-I 33 W/m 16,6 C 26,5 C 22,5 km/h (4 Bft) 100,00 %
11.07.2016 19:14 27,7 C 51 % 1007,6 hPa 0,0 l/m 11,5 km/h (2 Bft) NO 55 0 min 0,000 mm 0,0 UV-I 34 W/m 16,6 C 27,0 C 20,9 km/h (4 Bft) 100,00 %
11.07.2016 19:15 27,7 C 52 % 1007,6 hPa 0,0 l/m 11,7 km/h (2 Bft) O-NO 71 0 min 0,000 mm 0,0 UV-I 38 W/m 16,9 C 26,9 C 19,3 km/h (3 Bft) 100,00 %
11.07.2016 19:16 27,6 C 52 % 1007,6 hPa 0,0 l/m 10,5 km/h (2 Bft) O-SO 108 0 min 0,000 mm 0,0 UV-I 40 W/m 16,8 C 27,0 C 14,5 km/h (3 Bft) 100,00 %
11.07.2016 19:17 27,6 C 51 % 1007,6 hPa 0,0 l/m 12,1 km/h (2 Bft) O-SO 123 0 min 0,000 mm 0,0 UV-I 45 W/m 16,5 C 26,8 C 17,7 km/h (3 Bft) 96,15 %
11.07.2016 19:18 27,6 C 52 % 1007,7 hPa 0,0 l/m 13,8 km/h (3 Bft) SO 130 0 min 0,000 mm 0,0 UV-I 46 W/m 16,8 C 26,6 C 20,9 km/h (4 Bft) 100,00 %
11.07.2016 19:19 27,6 C 52 % 1007,7 hPa 0,0 l/m 10,0 km/h (2 Bft) SO 134 0 min 0,000 mm 0,0 UV-I 47 W/m 16,8 C 27,0 C 17,7 km/h (3 Bft) 100,00 %
11.07.2016 19:20 27,6 C 51 % 1007,7 hPa 0,0 l/m 14,8 km/h (3 Bft) O 87 0 min 0,000 mm 0,0 UV-I 48 W/m 16,5 C 26,5 C 22,5 km/h (4 Bft) 96,30 %
11.07.2016 19:21 27,6 C 52 % 1007,7 hPa 0,0 l/m 9,0 km/h (2 Bft) S-SO 165 0 min 0,000 mm 0,0 UV-I 51 W/m 16,8 C 27,2 C 14,5 km/h (3 Bft) 96,15 %
11.07.2016 19:22 27,6 C 52 % 1007,7 hPa 0,0 l/m 16,2 km/h (3 Bft) O-SO 110 0 min 0,000 mm 0,0 UV-I 51 W/m 16,8 C 26,3 C 22,5 km/h (4 Bft) 100,00 %
11.07.2016 19:23 27,6 C 52 % 1007,8 hPa 0,0 l/m 14,5 km/h (3 Bft) O-SO 106 0 min 0,000 mm 0,0 UV-I 49 W/m 16,8 C 26,5 C 17,7 km/h (3 Bft) 100,00 %
11.07.2016 19:24 27,6 C 52 % 1007,7 hPa 0,0 l/m 12,8 km/h (3 Bft) O-SO 110 0 min 0,000 mm 0,0 UV-I 48 W/m 16,8 C 26,7 C 19,3 km/h (3 Bft) 96,30 %
11.07.2016 19:25 27,6 C 52 % 1007,8 hPa 0,0 l/m 13,7 km/h (3 Bft) O-SO 115 0 min 0,000 mm 0,0 UV-I 46 W/m 16,8 C 26,6 C 17,7 km/h (3 Bft) 100,00 %
11.07.2016 19:26 27,5 C 52 % 1007,8 hPa 0,0 l/m 13,3 km/h (3 Bft) O-SO 121 0 min 0,000 mm 0,0 UV-I 44 W/m 16,7 C 26,5 C 17,7 km/h (3 Bft) 100,00 %
11.07.2016 19:27 27,5 C 52 % 1007,9 hPa 0,0 l/m 9,5 km/h (2 Bft) O 94 0 min 0,000 mm 0,0 UV-I 42 W/m 16,7 C 27,0 C 12,9 km/h (3 Bft) 100,00 %
11.07.2016 19:28 27,5 C 52 % 1007,9 hPa 0,0 l/m 13,3 km/h (3 Bft) SO 126 0 min 0,000 mm 0,0 UV-I 39 W/m 16,7 C 26,5 C 17,7 km/h (3 Bft) 100,00 %
11.07.2016 19:29 27,5 C 52 % 1007,9 hPa 0,0 l/m 16,0 km/h (3 Bft) O-SO 106 0 min 0,000 mm 0,0 UV-I 36 W/m 16,7 C 26,2 C 20,9 km/h (4 Bft) 100,00 %
11.07.2016 19:30 27,4 C 52 % 1007,9 hPa 0,0 l/m 16,9 km/h (3 Bft) O-SO 114 0 min 0,000 mm 0,0 UV-I 33 W/m 16,7 C 26,0 C 22,5 km/h (4 Bft) 96,30 %
11.07.2016 19:31 27,4 C 52 % 1007,9 hPa 0,0 l/m 12,7 km/h (3 Bft) O 87 0 min 0,000 mm 0,0 UV-I 31 W/m 16,7 C 26,5 C 17,7 km/h (3 Bft) 100,00 %
11.07.2016 19:32 27,4 C 52 % 1007,9 hPa 0,0 l/m 12,7 km/h (3 Bft) SO 125 0 min 0,000 mm 0,0 UV-I 28 W/m 16,7 C 26,5 C 19,3 km/h (3 Bft) 95,83 %
11.07.2016 19:33 27,4 C 53 % 1007,8 hPa 0,0 l/m 9,9 km/h (2 Bft) O 98 0 min 0,000 mm 0,0 UV-I 26 W/m 17,0 C 26,8 C 14,5 km/h (3 Bft) 100,00 %
11.07.2016 19:34 27,3 C 53 % 1007,8 hPa 0,0 l/m 10,9 km/h (2 Bft) O-SO 109 0 min 0,000 mm 0,0 UV-I 25 W/m 16,9 C 26,6 C 14,5 km/h (3 Bft) 93,33 %
11.07.2016 19:35 27,3 C 52 % 1007,9 hPa 0,0 l/m 9,3 km/h (2 Bft) SO 135 0 min 0,000 mm 0,0 UV-I 24 W/m 16,6 C 26,8 C 12,9 km/h (3 Bft) 100,00 %
11.07.2016 19:36 27,3 C 52 % 1007,9 hPa 0,0 l/m 9,7 km/h (2 Bft) O 98 0 min 0,000 mm 0,0 UV-I 22 W/m 16,6 C 26,7 C 12,9 km/h (3 Bft) 96,15 %
11.07.2016 19:37 27,2 C 53 % 1007,9 hPa 0,0 l/m 12,8 km/h (3 Bft) O 79 0 min 0,000 mm 0,0 UV-I 21 W/m 16,8 C 26,2 C 17,7 km/h (3 Bft) 100,00 %
11.07.2016 19:38 27,2 C 53 % 1007,9 hPa 0,0 l/m 7,2 km/h (2 Bft) O 90 0 min 0,000 mm 0,0 UV-I 21 W/m 16,8 C 27,1 C 12,9 km/h (3 Bft) 96,30 %
11.07.2016 19:39 27,2 C 54 % 1007,9 hPa 0,0 l/m 6,2 km/h (2 Bft) S-SO 153 0 min 0,000 mm 0,0 UV-I 19 W/m 17,1 C 27,2 C 9,7 km/h (2 Bft) 95,65 %
11.07.2016 19:40 27,1 C 53 % 1007,8 hPa 0,0 l/m 9,7 km/h (2 Bft) O-SO 120 0 min 0,000 mm 0,0 UV-I 19 W/m 16,7 C 26,5 C 12,9 km/h (3 Bft) 100,00 %
11.07.2016 19:41 27,1 C 54 % 1007,8 hPa 0,0 l/m 6,6 km/h (2 Bft) O 81 0 min 0,000 mm 0,0 UV-I 18 W/m 17,0 C 27,1 C 9,7 km/h (2 Bft) 95,83 %
11.07.2016 19:42 27,1 C 54 % 1007,8 hPa 0,0 l/m 9,4 km/h (2 Bft) O-SO 118 0 min 0,000 mm 0,0 UV-I 18 W/m 17,0 C 26,6 C 11,3 km/h (2 Bft) 90,91 %
11.07.2016 19:43 27,0 C 54 % 1007,8 hPa 0,0 l/m 8,0 km/h (2 Bft) O 88 0 min 0,000 mm 0,0 UV-I 18 W/m 16,9 C 26,7 C 11,3 km/h (2 Bft) 96,30 %
11.07.2016 19:44 26,9 C 55 % 1007,8 hPa 0,0 l/m 6,7 km/h (2 Bft) O-SO 111 0 min 0,000 mm 0,0 UV-I 16 W/m 17,1 C 26,8 C 9,7 km/h (2 Bft) 100,00 %
11.07.2016 19:45 26,9 C 55 % 1007,8 hPa 0,0 l/m 8,3 km/h (2 Bft) S-SO 155 0 min 0,000 mm 0,0 UV-I 16 W/m 17,1 C 26,5 C 11,3 km/h (2 Bft) 91,67 %
11.07.2016 19:46 26,9 C 55 % 1007,8 hPa 0,0 l/m 7,9 km/h (2 Bft) O-SO 121 0 min 0,000 mm 0,0 UV-I 16 W/m 17,1 C 26,6 C 9,7 km/h (2 Bft) 88,46 %
11.07.2016 19:47 26,9 C 55 % 1007,7 hPa 0,0 l/m 10,2 km/h (2 Bft) O-SO 110 0 min 0,000 mm 0,0 UV-I 16 W/m 17,1 C 26,2 C 12,9 km/h (3 Bft) 96,67 %
11.07.2016 19:48 26,8 C 55 % 1007,8 hPa 0,0 l/m 9,2 km/h (2 Bft) SO 134 0 min 0,000 mm 0,0 UV-I 16 W/m 17,0 C 26,3 C 12,9 km/h (3 Bft) 96,15 %
11.07.2016 19:49 26,8 C 56 % 1007,7 hPa 0,0 l/m 6,4 km/h (2 Bft) SO 130 0 min 0,000 mm 0,0 UV-I 17 W/m 17,3 C 26,8 C 9,7 km/h (2 Bft) 100,00 %
11.07.2016 19:50 26,7 C 56 % 1007,7 hPa 0,0 l/m 8,9 km/h (2 Bft) O-SO 119 0 min 0,000 mm 0,0 UV-I 16 W/m 17,2 C 26,2 C 12,9 km/h (3 Bft) 91,30 %
11.07.2016 19:51 26,7 C 56 % 1007,8 hPa 0,0 l/m 11,6 km/h (2 Bft) O 93 0 min 0,000 mm 0,0 UV-I 16 W/m 17,2 C 25,8 C 16,1 km/h (3 Bft) 100,00 %
11.07.2016 19:52 26,7 C 56 % 1007,9 hPa 0,0 l/m 10,0 km/h (2 Bft) S-SO 147 0 min 0,000 mm 0,0 UV-I 16 W/m 17,2 C 26,0 C 16,1 km/h (3 Bft) 96,55 %
11.07.2016 19:53 26,7 C 56 % 1007,8 hPa 0,0 l/m 11,2 km/h (2 Bft) O-SO 116 0 min 0,000 mm 0,0 UV-I 16 W/m 17,2 C 25,9 C 14,5 km/h (3 Bft) 96,30 %
11.07.2016 19:54 26,6 C 57 % 1007,8 hPa 0,0 l/m 9,8 km/h (2 Bft) S-SO 148 0 min 0,000 mm 0,0 UV-I 16 W/m 17,4 C 26,0 C 12,9 km/h (3 Bft) 95,65 %
11.07.2016 19:55 26,6 C 57 % 1007,8 hPa 0,0 l/m 6,2 km/h (2 Bft) SO 142 0 min 0,000 mm 0,0 UV-I 16 W/m 17,4 C 26,6 C 11,3 km/h (2 Bft) 100,00 %
11.07.2016 19:56 26,5 C 57 % 1007,8 hPa 0,0 l/m 6,5 km/h (2 Bft) SO 125 0 min 0,000 mm 0,0 UV-I 16 W/m 17,3 C 26,5 C 11,3 km/h (2 Bft) 95,65 %
11.07.2016 19:57 26,5 C 57 % 1007,8 hPa 0,0 l/m 5,2 km/h (1 Bft) S-SO 150 0 min 0,000 mm 0,0 UV-I 16 W/m 17,3 C 26,5 C 8,0 km/h (2 Bft) 92,59 %
11.07.2016 19:58 26,4 C 58 % 1007,8 hPa 0,0 l/m 3,0 km/h (1 Bft) SO 144 0 min 0,000 mm 0,0 UV-I 16 W/m 17,5 C 26,4 C 4,8 km/h (1 Bft) 100,00 %
11.07.2016 19:59 26,4 C 58 % 1007,7 hPa 0,0 l/m 4,3 km/h (1 Bft) O-SO 113 0 min 0,000 mm 0,0 UV-I 16 W/m 17,5 C 26,4 C 6,4 km/h (2 Bft) 91,30 %
11.07.2016 20:00 26,3 C 58 % 1007,8 hPa 0,0 l/m 5,6 km/h (1 Bft) S-SO 150 0 min 0,000 mm 0,0 UV-I 16 W/m 17,4 C 26,3 C 6,4 km/h (2 Bft) 100,00 %
11.07.2016 20:01 26,3 C 58 % 1007,7 hPa 0,0 l/m 4,2 km/h (1 Bft) SO 125 0 min 0,102 mm 0,0 UV-I 16 W/m 17,4 C 26,3 C 8,0 km/h (2 Bft) 95,65 %
11.07.2016 20:02 26,3 C 58 % 1007,7 hPa 0,0 l/m 5,4 km/h (1 Bft) O-SO 113 0 min 0,000 mm 0,0 UV-I 14 W/m 17,4 C 26,3 C 6,4 km/h (2 Bft) 100,00 %
11.07.2016 20:03 26,2 C 59 % 1007,7 hPa 0,0 l/m 6,1 km/h (2 Bft) O-SO 117 0 min 0,000 mm 0,0 UV-I 14 W/m 17,5 C 26,2 C 11,3 km/h (2 Bft) 95,65 %
11.07.2016 20:04 26,2 C 59 % 1007,6 hPa 0,0 l/m 7,9 km/h (2 Bft) SO 128 0 min 0,000 mm 0,0 UV-I 12 W/m 17,5 C 25,9 C 9,7 km/h (2 Bft) 100,00 %
11.07.2016 20:05 26,2 C 59 % 1007,7 hPa 0,0 l/m 4,5 km/h (1 Bft) SO 127 0 min 0,000 mm 0,0 UV-I 12 W/m 17,5 C 26,2 C 4,8 km/h (1 Bft) 100,00 %
11.07.2016 20:06 26,2 C 59 % 1007,6 hPa 0,0 l/m 6,0 km/h (2 Bft) O-SO 120 0 min 0,000 mm 0,0 UV-I 11 W/m 17,5 C 26,2 C 6,4 km/h (2 Bft) 100,00 %
11.07.2016 20:07 26,1 C 60 % 1007,5 hPa 0,0 l/m 5,4 km/h (1 Bft) O-SO 103 0 min 0,000 mm 0,0 UV-I 11 W/m 17,7 C 26,1 C 6,4 km/h (2 Bft) 100,00 %
11.07.2016 20:08 26,1 C 60 % 1007,5 hPa 0,0 l/m 6,8 km/h (2 Bft) O-SO 117 0 min 0,000 mm 0,0 UV-I 9 W/m 17,7 C 26,0 C 11,3 km/h (2 Bft) 100,00 %
11.07.2016 20:09 26,1 C 60 % 1007,5 hPa 0,0 l/m 8,4 km/h (2 Bft) O-SO 120 0 min 0,000 mm 0,0 UV-I 9 W/m 17,7 C 25,7 C 12,9 km/h (3 Bft) 100,00 %
11.07.2016 20:10 26,0 C 60 % 1007,4 hPa 0,0 l/m 8,5 km/h (2 Bft) O 93 0 min 0,000 mm 0,0 UV-I 9 W/m 17,6 C 25,5 C 11,3 km/h (2 Bft) 100,00 %
11.07.2016 20:11 26,0 C 60 % 1007,4 hPa 0,0 l/m 8,0 km/h (2 Bft) O 94 0 min 0,000 mm 0,0 UV-I 9 W/m 17,6 C 25,7 C 12,9 km/h (3 Bft) 100,00 %
11.07.2016 20:12 26,0 C 60 % 1007,4 hPa 0,0 l/m 8,9 km/h (2 Bft) O 83 0 min 0,000 mm 0,0 UV-I 9 W/m 17,6 C 25,5 C 12,9 km/h (3 Bft) 95,83 %
11.07.2016 20:13 25,9 C 61 % 1007,3 hPa 0,0 l/m 5,2 km/h (1 Bft) O-NO 76 0 min 0,000 mm 0,0 UV-I 9 W/m 17,8 C 25,9 C 6,4 km/h (2 Bft) 100,00 %
11.07.2016 20:14 25,9 C 61 % 1007,4 hPa 0,0 l/m 5,8 km/h (2 Bft) O 92 0 min 0,000 mm 0,0 UV-I 9 W/m 17,8 C 25,9 C 9,7 km/h (2 Bft) 95,83 %
11.07.2016 20:15 25,9 C 61 % 1007,3 hPa 0,0 l/m 3,8 km/h (1 Bft) SO 130 0 min 0,000 mm 0,0 UV-I 9 W/m 17,8 C 25,9 C 6,4 km/h (2 Bft) 100,00 %
11.07.2016 20:16 25,9 C 61 % 1007,4 hPa 0,0 l/m 5,6 km/h (1 Bft) O-NO 76 0 min 0,000 mm 0,0 UV-I 7 W/m 17,8 C 25,9 C 8,0 km/h (2 Bft) 100,00 %
11.07.2016 20:17 25,9 C 61 % 1007,4 hPa 0,0 l/m 5,8 km/h (2 Bft) SO 128 0 min 0,000 mm 0,0 UV-I 7 W/m 17,8 C 25,9 C 8,0 km/h (2 Bft) 100,00 %
11.07.2016 20:18 25,9 C 61 % 1007,4 hPa 0,0 l/m 5,9 km/h (2 Bft) SO 130 0 min 0,000 mm 0,0 UV-I 7 W/m 17,8 C 25,9 C 9,7 km/h (2 Bft) 100,00 %
11.07.2016 20:19 25,8 C 61 % 1007,5 hPa 0,0 l/m 3,3 km/h (1 Bft) SO 130 0 min 0,000 mm 0,0 UV-I 7 W/m 17,7 C 25,8 C 6,4 km/h (2 Bft) 100,00 %
11.07.2016 20:20 25,8 C 61 % 1007,5 hPa 0,0 l/m 2,3 km/h (1 Bft) SO 141 0 min 0,000 mm 0,0 UV-I 7 W/m 17,7 C 25,8 C 3,2 km/h (1 Bft) 100,00 %
11.07.2016 20:21 25,8 C 61 % 1007,5 hPa 0,0 l/m 1,9 km/h (1 Bft) S-SO 153 0 min 0,000 mm 0,0 UV-I 5 W/m 17,7 C 25,8 C 3,2 km/h (1 Bft) 100,00 %
11.07.2016 20:22 25,8 C 61 % 1007,5 hPa 0,0 l/m 4,3 km/h (1 Bft) S-SO 150 0 min 0,000 mm 0,0 UV-I 5 W/m 17,7 C 25,8 C 8,0 km/h (2 Bft) 100,00 %
11.07.2016 20:23 25,8 C 62 % 1007,6 hPa 0,0 l/m 3,6 km/h (1 Bft) S-SO 163 0 min 0,000 mm 0,0 UV-I 5 W/m 18,0 C 25,8 C 6,4 km/h (2 Bft) 100,00 %
11.07.2016 20:24 25,8 C 62 % 1007,6 hPa 0,0 l/m 2,1 km/h (1 Bft) S-SO 161 0 min 0,000 mm 0,0 UV-I 2 W/m 18,0 C 25,8 C 6,4 km/h (2 Bft) 100,00 %
11.07.2016 20:25 25,8 C 63 % 1007,7 hPa 0,0 l/m 5,2 km/h (1 Bft) S 176 0 min 0,000 mm 0,0 UV-I 0 W/m 18,2 C 25,8 C 8,0 km/h (2 Bft) 100,00 %
11.07.2016 20:26 25,8 C 63 % 1007,7 hPa 0,0 l/m 4,0 km/h (1 Bft) S-SO 159 0 min 0,000 mm 0,0 UV-I 0 W/m 18,2 C 25,8 C 6,4 km/h (2 Bft) 100,00 %
11.07.2016 20:27 25,7 C 63 % 1007,8 hPa 0,0 l/m 3,2 km/h (1 Bft) S-SO 165 0 min 0,000 mm 0,0 UV-I 0 W/m 18,1 C 25,7 C 6,4 km/h (2 Bft) 100,00 %
11.07.2016 20:28 25,7 C 63 % 1007,7 hPa 0,0 l/m 4,8 km/h (1 Bft) SO 142 0 min 0,000 mm 0,0 UV-I 0 W/m 18,1 C 25,7 C 8,0 km/h (2 Bft) 100,00 %
11.07.2016 20:29 25,7 C 64 % 1007,8 hPa 0,0 l/m 4,4 km/h (1 Bft) S 169 0 min 0,000 mm 0,0 UV-I 0 W/m 18,4 C 25,7 C 6,4 km/h (2 Bft) 100,00 %
11.07.2016 20:30 25,6 C 64 % 1007,8 hPa 0,0 l/m 3,5 km/h (1 Bft) S-SO 164 0 min 0,000 mm 0,0 UV-I 0 W/m 18,3 C 25,6 C 6,4 km/h (2 Bft) 95,65 %
11.07.2016 20:31 25,6 C 64 % 1007,8 hPa 0,0 l/m 3,0 km/h (1 Bft) S-SO 163 0 min 0,000 mm 0,0 UV-I 0 W/m 18,3 C 25,6 C 6,4 km/h (2 Bft) 100,00 %
11.07.2016 20:32 25,5 C 64 % 1007,8 hPa 0,0 l/m 5,8 km/h (2 Bft) S 178 0 min 0,000 mm 0,0 UV-I 0 W/m 18,2 C 25,5 C 8,0 km/h (2 Bft) 100,00 %
11.07.2016 20:33 25,5 C 64 % 1007,9 hPa 0,0 l/m 3,7 km/h (1 Bft) S-SO 166 0 min 0,000 mm 0,0 UV-I 0 W/m 18,2 C 25,5 C 6,4 km/h (2 Bft) 100,00 %
11.07.2016 20:34 25,4 C 65 % 1007,8 hPa 0,0 l/m 5,0 km/h (1 Bft) S-SO 165 0 min 0,000 mm 0,0 UV-I 0 W/m 18,3 C 25,4 C 8,0 km/h (2 Bft) 100,00 %
11.07.2016 20:35 25,4 C 65 % 1007,8 hPa 0,0 l/m 5,1 km/h (1 Bft) S-SO 168 0 min 0,000 mm 0,0 UV-I 0 W/m 18,3 C 25,4 C 8,0 km/h (2 Bft) 100,00 %
11.07.2016 20:36 25,4 C 65 % 1007,8 hPa 0,0 l/m 4,6 km/h (1 Bft) S-SO 165 0 min 0,000 mm 0,0 UV-I 0 W/m 18,3 C 25,4 C 6,4 km/h (2 Bft) 100,00 %
11.07.2016 20:37 25,4 C 65 % 1007,8 hPa 0,0 l/m 3,0 km/h (1 Bft) S 173 0 min 0,000 mm 0,0 UV-I 0 W/m 18,3 C 25,4 C 6,4 km/h (2 Bft) 100,00 %
11.07.2016 20:38 25,4 C 65 % 1007,8 hPa 0,0 l/m 3,9 km/h (1 Bft) S 175 0 min 0,000 mm 0,0 UV-I 0 W/m 18,3 C 25,4 C 9,7 km/h (2 Bft) 95,65 %
11.07.2016 20:39 25,4 C 65 % 1007,8 hPa 0,0 l/m 5,4 km/h (1 Bft) S-SO 163 0 min 0,000 mm 0,0 UV-I 0 W/m 18,3 C 25,4 C 9,7 km/h (2 Bft) 100,00 %
11.07.2016 20:40 25,4 C 65 % 1007,7 hPa 0,0 l/m 4,9 km/h (1 Bft) S-SO 153 0 min 0,000 mm 0,0 UV-I 0 W/m 18,3 C 25,4 C 11,3 km/h (2 Bft) 100,00 %
11.07.2016 20:41 25,4 C 66 % 1007,8 hPa 0,0 l/m 3,8 km/h (1 Bft) S-SO 163 0 min 0,000 mm 0,0 UV-I 0 W/m 18,6 C 25,4 C 8,0 km/h (2 Bft) 100,00 %
11.07.2016 20:42 25,4 C 66 % 1007,8 hPa 0,0 l/m 4,8 km/h (1 Bft) S 176 0 min 0,000 mm 0,0 UV-I 0 W/m 18,6 C 25,4 C 9,7 km/h (2 Bft) 96,30 %
11.07.2016 20:43 25,4 C 66 % 1007,8 hPa 0,0 l/m 3,7 km/h (1 Bft) S-SO 149 0 min 0,000 mm 0,0 UV-I 0 W/m 18,6 C 25,4 C 8,0 km/h (2 Bft) 100,00 %
11.07.2016 20:44 25,3 C 66 % 1007,7 hPa 0,0 l/m 5,0 km/h (1 Bft) O-SO 123 0 min 0,000 mm 0,0 UV-I 0 W/m 18,5 C 25,3 C 6,4 km/h (2 Bft) 100,00 %
11.07.2016 20:45 25,3 C 67 % 1007,8 hPa 0,0 l/m 5,8 km/h (2 Bft) S-SO 156 0 min 0,000 mm 0,0 UV-I 0 W/m 18,7 C 25,3 C 9,7 km/h (2 Bft) 100,00 %
11.07.2016 20:46 25,3 C 67 % 1007,8 hPa 0,4 l/m 5,4 km/h (1 Bft) SO 140 0 min 0,000 mm 0,0 UV-I 0 W/m 18,7 C 25,3 C 9,7 km/h (2 Bft) 100,00 %
11.07.2016 20:47 25,3 C 67 % 1007,8 hPa 0,2 l/m 6,9 km/h (2 Bft) SO 132 0 min 0,000 mm 0,0 UV-I 0 W/m 18,7 C 25,2 C 8,0 km/h (2 Bft) 100,00 %
11.07.2016 20:48 25,3 C 67 % 1007,7 hPa 0,4 l/m 6,8 km/h (2 Bft) S-SO 155 0 min 0,000 mm 0,0 UV-I 0 W/m 18,7 C 25,2 C 11,3 km/h (2 Bft) 100,00 %
11.07.2016 20:49 25,3 C 67 % 1007,7 hPa 0,0 l/m 4,8 km/h (1 Bft) O-SO 105 0 min 0,000 mm 0,0 UV-I 0 W/m 18,7 C 25,3 C 6,4 km/h (2 Bft) 100,00 %
11.07.2016 20:50 25,3 C 68 % 1007,8 hPa 0,4 l/m 8,1 km/h (2 Bft) SO 127 0 min 0,000 mm 0,0 UV-I 0 W/m 19,0 C 24,9 C 11,3 km/h (2 Bft) 100,00 %
11.07.2016 20:51 25,2 C 68 % 1007,7 hPa 0,4 l/m 8,3 km/h (2 Bft) SO 132 0 min 0,000 mm 0,0 UV-I 0 W/m 18,9 C 24,7 C 12,9 km/h (3 Bft) 100,00 %
11.07.2016 20:52 25,2 C 68 % 1007,7 hPa 0,4 l/m 9,3 km/h (2 Bft) O-SO 115 0 min 0,000 mm 0,0 UV-I 0 W/m 18,9 C 24,5 C 12,9 km/h (3 Bft) 100,00 %
11.07.2016 20:53 25,2 C 68 % 1007,7 hPa 0,2 l/m 8,4 km/h (2 Bft) SO 143 0 min 0,000 mm 0,0 UV-I 0 W/m 18,9 C 24,7 C 11,3 km/h (2 Bft) 100,00 %
11.07.2016 20:54 25,2 C 68 % 1007,8 hPa 0,4 l/m 8,4 km/h (2 Bft) SO 126 0 min 0,000 mm 0,0 UV-I 0 W/m 18,9 C 24,7 C 12,9 km/h (3 Bft) 100,00 %
11.07.2016 20:55 25,2 C 68 % 1007,8 hPa 0,2 l/m 8,2 km/h (2 Bft) O-SO 120 0 min 0,000 mm 0,0 UV-I 0 W/m 18,9 C 24,8 C 11,3 km/h (2 Bft) 100,00 %
11.07.2016 20:56 25,2 C 68 % 1007,8 hPa 0,4 l/m 5,7 km/h (1 Bft) SO 127 0 min 0,000 mm 0,0 UV-I 0 W/m 18,9 C 25,2 C 8,0 km/h (2 Bft) 100,00 %
11.07.2016 20:57 25,2 C 69 % 1007,8 hPa 0,6 l/m 5,2 km/h (1 Bft) SO 129 0 min 0,000 mm 0,0 UV-I 0 W/m 19,1 C 25,2 C 6,4 km/h (2 Bft) 100,00 %
11.07.2016 20:58 25,2 C 70 % 1007,8 hPa 0,4 l/m 3,5 km/h (1 Bft) SO 134 0 min 0,000 mm 0,0 UV-I 0 W/m 19,3 C 25,2 C 4,8 km/h (1 Bft) 100,00 %
11.07.2016 20:59 25,2 C 71 % 1007,8 hPa 0,2 l/m 1,7 km/h (1 Bft) SO 134 0 min 0,000 mm 0,0 UV-I 0 W/m 19,6 C 25,2 C 3,2 km/h (1 Bft) 100,00 %
11.07.2016 21:00 25,1 C 71 % 1007,9 hPa 0,4 l/m 2,1 km/h (1 Bft) SO 134 0 min 0,000 mm 0,0 UV-I 0 W/m 19,5 C 25,1 C 3,2 km/h (1 Bft) 91,30 %
11.07.2016 21:01 25,1 C 72 % 1007,9 hPa 0,6 l/m 0,9 km/h (0 Bft) SO 134 0 min 0,051 mm 0,0 UV-I 0 W/m 19,7 C 25,1 C 1,6 km/h (1 Bft) 100,00 %
11.07.2016 21:02 25,1 C 72 % 1008,0 hPa 0,6 l/m 0,3 km/h (0 Bft) SO 134 0 min 0,000 mm 0,0 UV-I 0 W/m 19,7 C 25,1 C 1,6 km/h (1 Bft) 96,15 %
11.07.2016 21:03 25,0 C 72 % 1008,0 hPa 0,4 l/m 0,0 km/h (0 Bft) SO 134 0 min 0,000 mm 0,0 UV-I 0 W/m 19,6 C 25,0 C 0,0 km/h (0 Bft) 100,00 %
11.07.2016 21:04 24,9 C 73 % 1008,0 hPa 0,2 l/m 3,7 km/h (1 Bft) S 181 0 min 0,000 mm 0,0 UV-I 0 W/m 19,7 C 24,9 C 6,4 km/h (2 Bft) 100,00 %
11.07.2016 21:05 24,9 C 73 % 1008,1 hPa 0,2 l/m 4,6 km/h (1 Bft) S-SW 208 0 min 0,000 mm 0,0 UV-I 0 W/m 19,7 C 24,9 C 6,4 km/h (2 Bft) 100,00 %
11.07.2016 21:06 24,8 C 74 % 1008,2 hPa 0,2 l/m 8,2 km/h (2 Bft) SW 236 0 min 0,000 mm 0,0 UV-I 0 W/m 19,8 C 24,3 C 9,7 km/h (2 Bft) 96,15 %
11.07.2016 21:07 24,8 C 74 % 1008,3 hPa 0,2 l/m 7,6 km/h (2 Bft) W 261 0 min 0,000 mm 0,0 UV-I 0 W/m 19,8 C 24,5 C 9,7 km/h (2 Bft) 96,30 %
11.07.2016 21:08 24,7 C 74 % 1008,5 hPa 0,2 l/m 7,9 km/h (2 Bft) W-SW 250 0 min 0,000 mm 0,0 UV-I 0 W/m 19,7 C 24,3 C 11,3 km/h (2 Bft) 100,00 %
11.07.2016 21:09 24,7 C 74 % 1008,8 hPa 0,4 l/m 8,3 km/h (2 Bft) W 261 0 min 0,000 mm 0,0 UV-I 0 W/m 19,7 C 24,2 C 11,3 km/h (2 Bft) 100,00 %
11.07.2016 21:10 24,6 C 75 % 1009,0 hPa 0,4 l/m 9,8 km/h (2 Bft) W-SW 250 0 min 0,000 mm 0,0 UV-I 0 W/m 19,9 C 23,8 C 12,9 km/h (3 Bft) 100,00 %
11.07.2016 21:11 24,6 C 75 % 1009,2 hPa 0,2 l/m 13,1 km/h (3 Bft) W-SW 255 0 min 0,000 mm 0,0 UV-I 0 W/m 19,9 C 23,1 C 19,3 km/h (3 Bft) 100,00 %
11.07.2016 21:12 24,5 C 74 % 1009,3 hPa 0,4 l/m 9,9 km/h (2 Bft) SW 227 0 min 0,000 mm 0,0 UV-I 0 W/m 19,6 C 23,6 C 16,1 km/h (3 Bft) 100,00 %
11.07.2016 21:13 24,5 C 73 % 1009,4 hPa 0,2 l/m 10,1 km/h (2 Bft) W 265 0 min 0,000 mm 0,0 UV-I 0 W/m 19,3 C 23,6 C 14,5 km/h (3 Bft) 100,00 %
11.07.2016 21:14 24,5 C 73 % 1009,5 hPa 0,4 l/m 9,3 km/h (2 Bft) W-NW 285 0 min 0,000 mm 0,0 UV-I 0 W/m 19,3 C 23,8 C 20,9 km/h (4 Bft) 100,00 %
11.07.2016 21:15 24,4 C 73 % 1009,5 hPa 0,4 l/m 19,4 km/h (3 Bft) W-SW 253 0 min 0,000 mm 0,0 UV-I 0 W/m 19,2 C 22,0 C 33,8 km/h (5 Bft) 97,56 %
11.07.2016 21:16 24,5 C 72 % 1009,6 hPa 0,4 l/m 14,7 km/h (3 Bft) SW 233 0 min 0,000 mm 0,0 UV-I 0 W/m 19,1 C 22,7 C 24,1 km/h (4 Bft) 100,00 %
11.07.2016 21:17 24,4 C 73 % 1009,6 hPa 0,2 l/m 13,4 km/h (3 Bft) W-NW 290 0 min 0,000 mm 0,0 UV-I 0 W/m 19,2 C 22,8 C 25,7 km/h (4 Bft) 100,00 %
11.07.2016 21:18 24,4 C 73 % 1009,6 hPa 0,4 l/m 13,9 km/h (3 Bft) W-NW 292 0 min 0,000 mm 0,0 UV-I 0 W/m 19,2 C 22,8 C 30,6 km/h (5 Bft) 96,67 %
11.07.2016 21:19 24,3 C 74 % 1009,5 hPa 0,4 l/m 14,7 km/h (3 Bft) W 272 0 min 0,000 mm 0,0 UV-I 0 W/m 19,4 C 22,5 C 25,7 km/h (4 Bft) 100,00 %
11.07.2016 21:20 24,3 C 75 % 1009,6 hPa 0,2 l/m 12,3 km/h (3 Bft) W-NW 294 0 min 0,000 mm 0,0 UV-I 0 W/m 19,6 C 22,9 C 19,3 km/h (3 Bft) 100,00 %
11.07.2016 21:21 24,2 C 76 % 1009,7 hPa 0,4 l/m 18,0 km/h (3 Bft) W-NW 293 0 min 0,000 mm 0,0 UV-I 0 W/m 19,7 C 21,9 C 32,2 km/h (5 Bft) 95,65 %
11.07.2016 21:22 24,1 C 77 % 1009,8 hPa 0,4 l/m 18,8 km/h (3 Bft) W-NW 296 0 min 0,000 mm 0,0 UV-I 0 W/m 19,8 C 21,7 C 32,2 km/h (5 Bft) 91,67 %
11.07.2016 21:23 23,8 C 78 % 1010,0 hPa 0,2 l/m 14,7 km/h (3 Bft) W 272 0 min 0,000 mm 0,0 UV-I 0 W/m 19,7 C 21,9 C 27,4 km/h (4 Bft) 89,66 %
11.07.2016 21:24 23,6 C 79 % 1010,0 hPa 0,2 l/m 15,6 km/h (3 Bft) SW 227 0 min 0,000 mm 0,0 UV-I 0 W/m 19,7 C 21,5 C 33,8 km/h (5 Bft) 100,00 %
11.07.2016 21:25 23,2 C 80 % 1010,1 hPa 0,2 l/m 16,9 km/h (3 Bft) W-SW 258 0 min 0,000 mm 0,0 UV-I 0 W/m 19,6 C 20,8 C 27,4 km/h (4 Bft) 95,65 %
11.07.2016 21:26 22,9 C 81 % 1010,2 hPa 0,4 l/m 16,7 km/h (3 Bft) W 274 0 min 0,000 mm 0,0 UV-I 0 W/m 19,5 C 20,5 C 25,7 km/h (4 Bft) 100,00 %
11.07.2016 21:27 22,6 C 82 % 1010,5 hPa 0,2 l/m 18,4 km/h (3 Bft) SW 232 0 min 0,000 mm 0,0 UV-I 0 W/m 19,4 C 19,8 C 25,7 km/h (4 Bft) 92,31 %
11.07.2016 21:28 22,3 C 85 % 1010,7 hPa 0,4 l/m 23,8 km/h (4 Bft) S-SW 211 0 min 0,000 mm 0,0 UV-I 0 W/m 19,7 C 18,6 C 32,2 km/h (5 Bft) 100,00 %
11.07.2016 21:29 22,1 C 86 % 1011,1 hPa 0,4 l/m 32,8 km/h (5 Bft) S-SW 202 0 min 0,000 mm 0,0 UV-I 0 W/m 19,6 C 17,4 C 46,7 km/h (6 Bft) 96,55 %
11.07.2016 21:30 21,8 C 86 % 1011,1 hPa 0,2 l/m 27,0 km/h (4 Bft) S-SW 207 0 min 0,000 mm 0,0 UV-I 0 W/m 19,3 C 17,6 C 41,8 km/h (6 Bft) 96,30 %
11.07.2016 21:31 21,6 C 86 % 1011,1 hPa 0,4 l/m 16,3 km/h (3 Bft) W-SW 243 0 min 0,000 mm 0,0 UV-I 0 W/m 19,2 C 18,9 C 25,7 km/h (4 Bft) 100,00 %
11.07.2016 21:32 21,4 C 87 % 1011,1 hPa 0,2 l/m 19,0 km/h (3 Bft) W 261 0 min 0,000 mm 0,0 UV-I 0 W/m 19,1 C 18,2 C 20,9 km/h (4 Bft) 96,97 %
11.07.2016 21:33 21,3 C 88 % 1011,2 hPa 0,2 l/m 11,0 km/h (2 Bft) W-SW 253 0 min 0,000 mm 0,0 UV-I 0 W/m 19,2 C 19,8 C 17,7 km/h (3 Bft) 100,00 %
11.07.2016 21:34 21,2 C 89 % 1011,4 hPa 0,2 l/m 8,5 km/h (2 Bft) W 261 0 min 0,000 mm 0,0 UV-I 0 W/m 19,3 C 20,4 C 12,9 km/h (3 Bft) 95,83 %
11.07.2016 21:35 21,1 C 89 % 1011,4 hPa 0,4 l/m 10,5 km/h (2 Bft) SW 218 0 min 0,000 mm 0,0 UV-I 0 W/m 19,2 C 19,7 C 19,3 km/h (3 Bft) 96,55 %
11.07.2016 21:36 21,0 C 89 % 1011,5 hPa 0,2 l/m 11,2 km/h (2 Bft) S-SW 206 0 min 0,000 mm 0,0 UV-I 0 W/m 19,1 C 19,4 C 19,3 km/h (3 Bft) 100,00 %
11.07.2016 21:37 20,9 C 89 % 1011,5 hPa 0,2 l/m 13,8 km/h (3 Bft) S 171 0 min 0,000 mm 0,0 UV-I 0 W/m 19,0 C 18,6 C 17,7 km/h (3 Bft) 96,88 %
11.07.2016 21:38 20,8 C 90 % 1011,7 hPa 0,2 l/m 13,6 km/h (3 Bft) S-SW 194 0 min 0,000 mm 0,0 UV-I 0 W/m 19,1 C 18,5 C 16,1 km/h (3 Bft) 96,30 %
11.07.2016 21:39 20,8 C 90 % 1011,8 hPa 0,0 l/m 12,2 km/h (2 Bft) S-SW 198 0 min 0,000 mm 0,0 UV-I 0 W/m 19,1 C 18,9 C 16,1 km/h (3 Bft) 92,31 %
11.07.2016 21:40 20,7 C 91 % 1011,8 hPa 0,0 l/m 9,6 km/h (2 Bft) S 186 0 min 0,000 mm 0,0 UV-I 0 W/m 19,2 C 19,5 C 14,5 km/h (3 Bft) 100,00 %
11.07.2016 21:41 20,7 C 91 % 1011,8 hPa 0,0 l/m 9,6 km/h (2 Bft) S 189 0 min 0,000 mm 0,0 UV-I 0 W/m 19,2 C 19,5 C 12,9 km/h (3 Bft) 96,77 %
11.07.2016 21:42 20,7 C 92 % 1011,8 hPa 0,0 l/m 8,7 km/h (2 Bft) SW 215 0 min 0,000 mm 0,0 UV-I 0 W/m 19,4 C 19,8 C 14,5 km/h (3 Bft) 100,00 %
11.07.2016 21:43 20,6 C 92 % 1011,8 hPa 0,0 l/m 4,2 km/h (1 Bft) SW 225 0 min 0,000 mm 0,0 UV-I 0 W/m 19,3 C 20,6 C 6,4 km/h (2 Bft) 91,30 %
11.07.2016 21:44 20,6 C 92 % 1011,8 hPa 0,0 l/m 5,0 km/h (1 Bft) SW 232 0 min 0,000 mm 0,0 UV-I 0 W/m 19,3 C 20,6 C 8,0 km/h (2 Bft) 100,00 %
11.07.2016 21:45 20,6 C 92 % 1011,7 hPa 0,0 l/m 3,6 km/h (1 Bft) SW 232 0 min 0,000 mm 0,0 UV-I 0 W/m 19,3 C 20,6 C 6,4 km/h (2 Bft) 86,96 %
11.07.2016 21:46 20,6 C 92 % 1011,8 hPa 0,0 l/m 6,0 km/h (2 Bft) SW 215 0 min 0,000 mm 0,0 UV-I 0 W/m 19,3 C 20,6 C 8,0 km/h (2 Bft) 100,00 %
11.07.2016 21:47 20,6 C 93 % 1011,8 hPa 0,0 l/m 7,6 km/h (2 Bft) S-SW 205 0 min 0,000 mm 0,0 UV-I 0 W/m 19,4 C 20,1 C 11,3 km/h (2 Bft) 95,65 %
11.07.2016 21:48 20,6 C 93 % 1011,9 hPa 0,0 l/m 10,0 km/h (2 Bft) S 188 0 min 0,000 mm 0,0 UV-I 0 W/m 19,4 C 19,3 C 12,9 km/h (3 Bft) 100,00 %
11.07.2016 21:49 20,6 C 93 % 1011,9 hPa 0,0 l/m 9,4 km/h (2 Bft) S 186 0 min 0,000 mm 0,0 UV-I 0 W/m 19,4 C 19,5 C 11,3 km/h (2 Bft) 95,65 %
11.07.2016 21:50 20,6 C 93 % 1011,9 hPa 0,0 l/m 8,4 km/h (2 Bft) S-SW 193 0 min 0,000 mm 0,0 UV-I 0 W/m 19,4 C 19,8 C 11,3 km/h (2 Bft) 96,30 %
11.07.2016 21:51 20,6 C 93 % 1011,8 hPa 0,0 l/m 8,3 km/h (2 Bft) SW 215 0 min 0,000 mm 0,0 UV-I 0 W/m 19,4 C 19,9 C 14,5 km/h (3 Bft) 91,30 %
11.07.2016 21:52 20,6 C 93 % 1011,7 hPa 0,4 l/m 11,3 km/h (2 Bft) SW 234 0 min 0,000 mm 0,0 UV-I 0 W/m 19,4 C 18,9 C 14,5 km/h (3 Bft) 96,30 %
11.07.2016 21:53 20,6 C 93 % 1011,8 hPa 0,2 l/m 7,2 km/h (2 Bft) W 264 0 min 0,000 mm 0,0 UV-I 0 W/m 19,4 C 20,3 C 9,7 km/h (2 Bft) 100,00 %
11.07.2016 21:54 20,6 C 93 % 1011,7 hPa 0,2 l/m 6,5 km/h (2 Bft) W 279 0 min 0,000 mm 0,0 UV-I 0 W/m 19,4 C 20,6 C 9,7 km/h (2 Bft) 96,15 %
11.07.2016 21:55 20,6 C 93 % 1011,8 hPa 0,2 l/m 3,2 km/h (1 Bft) NW 311 0 min 0,000 mm 0,0 UV-I 0 W/m 19,4 C 20,6 C 4,8 km/h (1 Bft) 100,00 %
11.07.2016 21:56 20,6 C 93 % 1011,8 hPa 0,0 l/m 2,2 km/h (1 Bft) NW 311 0 min 0,000 mm 0,0 UV-I 0 W/m 19,4 C 20,6 C 3,2 km/h (1 Bft) 96,15 %
11.07.2016 21:57 20,6 C 93 % 1011,8 hPa 0,0 l/m 1,4 km/h (1 Bft) NW 321 0 min 0,000 mm 0,0 UV-I 0 W/m 19,4 C 20,6 C 3,2 km/h (1 Bft) 92,86 %
11.07.2016 21:58 20,6 C 94 % 1011,9 hPa 0,0 l/m 2,8 km/h (1 Bft) N 9 0 min 0,000 mm 0,0 UV-I 0 W/m 19,6 C 20,6 C 4,8 km/h (1 Bft) 96,15 %
11.07.2016 21:59 20,6 C 94 % 1011,8 hPa 0,0 l/m 3,5 km/h (1 Bft) N-NO 20 0 min 0,000 mm 0,0 UV-I 0 W/m 19,6 C 20,6 C 4,8 km/h (1 Bft) 100,00 %
11.07.2016 22:00 20,6 C 94 % 1011,8 hPa 0,2 l/m 3,6 km/h (1 Bft) N 5 0 min 0,000 mm 0,0 UV-I 0 W/m 19,6 C 20,6 C 6,4 km/h (2 Bft) 95,65 %
11.07.2016 22:01 20,5 C 94 % 1011,7 hPa 0,0 l/m 0,6 km/h (0 Bft) N 5 0 min 0,025 mm 0,0 UV-I 0 W/m 19,5 C 20,5 C 1,6 km/h (1 Bft) 100,00 %
11.07.2016 22:02 20,5 C 94 % 1011,6 hPa 0,0 l/m 2,7 km/h (1 Bft) N 9 0 min 0,000 mm 0,0 UV-I 0 W/m 19,5 C 20,5 C 6,4 km/h (2 Bft) 100,00 %
11.07.2016 22:03 20,4 C 94 % 1011,7 hPa 0,0 l/m 1,8 km/h (1 Bft) N 355 0 min 0,000 mm 0,0 UV-I 0 W/m 19,4 C 20,4 C 4,8 km/h (1 Bft) 100,00 %
11.07.2016 22:04 20,5 C 94 % 1011,7 hPa 0,0 l/m 1,2 km/h (1 Bft) N-NW 327 0 min 0,000 mm 0,0 UV-I 0 W/m 19,5 C 20,5 C 3,2 km/h (1 Bft) 96,15 %
11.07.2016 22:05 20,4 C 94 % 1011,7 hPa 0,2 l/m 3,2 km/h (1 Bft) W-NW 288 0 min 0,000 mm 0,0 UV-I 0 W/m 19,4 C 20,4 C 4,8 km/h (1 Bft) 100,00 %
11.07.2016 22:10 20,4 C 95 % 1011,7 hPa 0,0 l/m 0,0 km/h (0 Bft) NW 315 0 min 0,000 mm 0,0 UV-I 0 W/m 19,6 C 20,4 C 3,2 km/h (1 Bft) 97,37 %
11.07.2016 22:12 20,4 C 95 % 1011,8 hPa 0,0 l/m 1,0 km/h (0 Bft) W-NW 297 0 min 0,000 mm 0,0 UV-I 0 W/m 19,6 C 20,4 C 1,6 km/h (1 Bft) 99,35 %
11.07.2016 22:13 20,4 C 95 % 1011,8 hPa 0,0 l/m 2,6 km/h (1 Bft) NW 324 0 min 0,000 mm 0,0 UV-I 0 W/m 19,6 C 20,4 C 6,4 km/h (2 Bft) 100,00 %
11.07.2016 22:14 20,4 C 95 % 1011,8 hPa 0,0 l/m 5,4 km/h (1 Bft) W 265 0 min 0,000 mm 0,0 UV-I 0 W/m 19,6 C 20,4 C 14,5 km/h (3 Bft) 100,00 %
11.07.2016 22:15 20,3 C 95 % 1011,8 hPa 0,0 l/m 3,7 km/h (1 Bft) N-NW 341 0 min 0,000 mm 0,0 UV-I 0 W/m 19,5 C 20,3 C 8,0 km/h (2 Bft) 100,00 %
11.07.2016 22:16 20,3 C 94 % 1011,7 hPa 0,0 l/m 2,6 km/h (1 Bft) N 5 0 min 0,000 mm 0,0 UV-I 0 W/m 19,3 C 20,3 C 3,2 km/h (1 Bft) 100,00 %
11.07.2016 22:17 20,3 C 95 % 1011,8 hPa 0,0 l/m 1,9 km/h (1 Bft) N-NO 24 0 min 0,000 mm 0,0 UV-I 0 W/m 19,5 C 20,3 C 4,8 km/h (1 Bft) 100,00 %
11.07.2016 22:18 20,3 C 95 % 1011,7 hPa 0,0 l/m 3,6 km/h (1 Bft) NW 317 0 min 0,000 mm 0,0 UV-I 0 W/m 19,5 C 20,3 C 4,8 km/h (1 Bft) 100,00 %
11.07.2016 22:19 20,2 C 95 % 1011,7 hPa 0,0 l/m 2,6 km/h (1 Bft) N-NO 21 0 min 0,000 mm 0,0 UV-I 0 W/m 19,4 C 20,2 C 4,8 km/h (1 Bft) 100,00 %
11.07.2016 22:20 20,2 C 95 % 1011,7 hPa 0,0 l/m 2,2 km/h (1 Bft) N-NW 336 0 min 0,000 mm 0,0 UV-I 0 W/m 19,4 C 20,2 C 3,2 km/h (1 Bft) 100,00 %
11.07.2016 22:21 20,2 C 95 % 1011,7 hPa 0,0 l/m 3,0 km/h (1 Bft) W-NW 296 0 min 0,000 mm 0,0 UV-I 0 W/m 19,4 C 20,2 C 6,4 km/h (2 Bft) 100,00 %
11.07.2016 22:22 20,2 C 95 % 1011,7 hPa 0,0 l/m 6,4 km/h (2 Bft) N-NW 345 0 min 0,000 mm 0,0 UV-I 0 W/m 19,4 C 20,2 C 12,9 km/h (3 Bft) 100,00 %
11.07.2016 22:23 20,1 C 95 % 1011,8 hPa 0,0 l/m 5,1 km/h (1 Bft) NW 325 0 min 0,000 mm 0,0 UV-I 0 W/m 19,3 C 20,1 C 11,3 km/h (2 Bft) 100,00 %
11.07.2016 22:24 20,1 C 95 % 1011,8 hPa 0,0 l/m 2,3 km/h (1 Bft) NW 309 0 min 0,000 mm 0,0 UV-I 0 W/m 19,3 C 20,1 C 4,8 km/h (1 Bft) 100,00 %
11.07.2016 22:25 20,1 C 95 % 1011,8 hPa 0,0 l/m 4,2 km/h (1 Bft) NO 43 0 min 0,000 mm 0,0 UV-I 0 W/m 19,3 C 20,1 C 6,4 km/h (2 Bft) 100,00 %
11.07.2016 22:27 20,0 C 94 % 1011,8 hPa 0,0 l/m 2,4 km/h (1 Bft) NO 40 0 min 0,000 mm 0,0 UV-I 0 W/m 19,0 C 20,0 C 3,2 km/h (1 Bft) 100,00 %
11.07.2016 22:28 19,9 C 94 % 1011,8 hPa 0,0 l/m 1,2 km/h (1 Bft) NO 40 0 min 0,000 mm 0,0 UV-I 0 W/m 18,9 C 19,9 C 3,2 km/h (1 Bft) 100,00 %
11.07.2016 22:30 19,9 C 94 % 1011,8 hPa 0,0 l/m 2,3 km/h (1 Bft) N-NW 332 0 min 0,000 mm 0,0 UV-I 0 W/m 18,9 C 19,9 C 6,4 km/h (2 Bft) 97,87 %
11.07.2016 22:32 19,8 C 95 % 1011,9 hPa 0,0 l/m 2,5 km/h (1 Bft) N-NW 337 0 min 0,000 mm 0,0 UV-I 0 W/m 19,0 C 19,8 C 4,8 km/h (1 Bft) 97,37 %
11.07.2016 22:34 19,8 C 95 % 1011,9 hPa 0,0 l/m 2,7 km/h (1 Bft) W-NW 300 0 min 0,000 mm 0,0 UV-I 0 W/m 19,0 C 19,8 C 4,8 km/h (1 Bft) 100,00 %
11.07.2016 22:36 19,8 C 95 % 1011,8 hPa 0,0 l/m 1,6 km/h (1 Bft) N-NW 338 0 min 0,000 mm 0,0 UV-I 0 W/m 19,0 C 19,8 C 4,8 km/h (1 Bft) 96,23 %
11.07.2016 22:38 19,7 C 94 % 1011,8 hPa 0,0 l/m 2,1 km/h (1 Bft) N-NW 334 0 min 0,000 mm 0,0 UV-I 0 W/m 18,7 C 19,7 C 6,4 km/h (2 Bft) 100,00 %
11.07.2016 22:40 19,7 C 95 % 1011,9 hPa 0,0 l/m 1,1 km/h (1 Bft) N-NW 335 0 min 0,000 mm 0,0 UV-I 0 W/m 18,9 C 19,7 C 3,2 km/h (1 Bft) 100,00 %
11.07.2016 22:42 19,7 C 95 % 1012,0 hPa 0,0 l/m 0,1 km/h (0 Bft) N-NW 335 0 min 0,000 mm 0,0 UV-I 0 W/m 18,9 C 19,7 C 1,6 km/h (1 Bft) 97,87 %
11.07.2016 22:44 19,7 C 95 % 1012,2 hPa 0,0 l/m 2,4 km/h (1 Bft) S 178 0 min 0,000 mm 0,0 UV-I 0 W/m 18,9 C 19,7 C 4,8 km/h (1 Bft) 100,00 %
11.07.2016 22:46 19,8 C 95 % 1012,2 hPa 0,0 l/m 4,1 km/h (1 Bft) S-SO 157 0 min 0,000 mm 0,0 UV-I 0 W/m 19,0 C 19,8 C 6,4 km/h (2 Bft) 100,00 %
11.07.2016 22:48 19,8 C 95 % 1012,2 hPa 0,0 l/m 5,8 km/h (2 Bft) SO 132 0 min 0,000 mm 0,0 UV-I 0 W/m 19,0 C 19,8 C 11,3 km/h (2 Bft) 98,11 %
11.07.2016 22:50 19,8 C 95 % 1012,3 hPa 0,0 l/m 8,1 km/h (2 Bft) O-SO 121 0 min 0,000 mm 0,0 UV-I 0 W/m 19,0 C 19,1 C 11,3 km/h (2 Bft) 100,00 %
11.07.2016 22:52 19,8 C 95 % 1012,3 hPa 0,0 l/m 7,8 km/h (2 Bft) O 100 0 min 0,000 mm 0,0 UV-I 0 W/m 19,0 C 19,2 C 11,3 km/h (2 Bft) 100,00 %
11.07.2016 22:54 19,8 C 95 % 1012,3 hPa 0,0 l/m 7,1 km/h (2 Bft) O-SO 110 0 min 0,000 mm 0,0 UV-I 0 W/m 19,0 C 19,5 C 9,7 km/h (2 Bft) 100,00 %
11.07.2016 22:56 19,8 C 95 % 1012,4 hPa 0,0 l/m 8,9 km/h (2 Bft) O 96 0 min 0,000 mm 0,0 UV-I 0 W/m 19,0 C 18,8 C 11,3 km/h (2 Bft) 100,00 %
11.07.2016 22:58 19,8 C 95 % 1012,4 hPa 0,0 l/m 9,2 km/h (2 Bft) O 96 0 min 0,000 mm 0,0 UV-I 0 W/m 19,0 C 18,7 C 12,9 km/h (3 Bft) 100,00 %
11.07.2016 23:00 19,8 C 95 % 1012,4 hPa 0,0 l/m 8,8 km/h (2 Bft) O 94 0 min 0,000 mm 0,0 UV-I 0 W/m 19,0 C 18,8 C 14,5 km/h (3 Bft) 100,00 %
11.07.2016 23:02 19,8 C 95 % 1012,4 hPa 0,0 l/m 9,4 km/h (2 Bft) O 82 0 min 0,000 mm 0,0 UV-I 0 W/m 19,0 C 18,6 C 14,5 km/h (3 Bft) 100,00 %
11.07.2016 23:04 19,8 C 95 % 1012,3 hPa 0,0 l/m 8,6 km/h (2 Bft) O 99 0 min 0,000 mm 0,0 UV-I 0 W/m 19,0 C 18,9 C 14,5 km/h (3 Bft) 100,00 %
11.07.2016 23:06 19,9 C 96 % 1012,3 hPa 0,0 l/m 8,8 km/h (2 Bft) O 101 0 min 0,000 mm 0,0 UV-I 0 W/m 19,2 C 18,9 C 14,5 km/h (3 Bft) 98,00 %
11.07.2016 23:08 19,9 C 95 % 1012,3 hPa 0,0 l/m 8,7 km/h (2 Bft) SO 134 0 min 0,000 mm 0,0 UV-I 0 W/m 19,1 C 19,0 C 12,9 km/h (3 Bft) 100,00 %
11.07.2016 23:10 19,9 C 96 % 1012,4 hPa 0,0 l/m 6,0 km/h (2 Bft) S-SO 154 0 min 0,000 mm 0,0 UV-I 0 W/m 19,2 C 19,9 C 11,3 km/h (2 Bft) 100,00 %
11.07.2016 23:12 19,9 C 95 % 1012,3 hPa 0,0 l/m 7,5 km/h (2 Bft) S-SO 150 0 min 0,000 mm 0,0 UV-I 0 W/m 19,1 C 19,4 C 14,5 km/h (3 Bft) 100,00 %
11.07.2016 23:14 19,9 C 95 % 1012,2 hPa 0,0 l/m 6,8 km/h (2 Bft) SO 145 0 min 0,000 mm 0,0 UV-I 0 W/m 19,1 C 19,7 C 12,9 km/h (3 Bft) 98,31 %
11.07.2016 23:16 19,9 C 95 % 1012,1 hPa 0,0 l/m 7,2 km/h (2 Bft) S-SO 158 0 min 0,000 mm 0,0 UV-I 0 W/m 19,1 C 19,6 C 12,9 km/h (3 Bft) 100,00 %
11.07.2016 23:18 19,9 C 95 % 1012,1 hPa 0,0 l/m 6,2 km/h (2 Bft) S-SO 149 0 min 0,000 mm 0,0 UV-I 0 W/m 19,1 C 19,9 C 12,9 km/h (3 Bft) 100,00 %
11.07.2016 23:20 19,9 C 95 % 1012,2 hPa 0,0 l/m 2,1 km/h (1 Bft) O-SO 119 0 min 0,000 mm 0,0 UV-I 0 W/m 19,1 C 19,9 C 4,8 km/h (1 Bft) 100,00 %
11.07.2016 23:22 19,9 C 95 % 1012,2 hPa 0,0 l/m 5,1 km/h (1 Bft) O-NO 63 0 min 0,000 mm 0,0 UV-I 0 W/m 19,1 C 19,9 C 8,0 km/h (2 Bft) 98,00 %
11.07.2016 23:24 19,9 C 95 % 1012,2 hPa 0,0 l/m 5,6 km/h (1 Bft) O 90 0 min 0,000 mm 0,0 UV-I 0 W/m 19,1 C 19,9 C 11,3 km/h (2 Bft) 97,87 %
11.07.2016 23:26 19,9 C 95 % 1012,2 hPa 0,0 l/m 5,5 km/h (1 Bft) O 88 0 min 0,000 mm 0,0 UV-I 0 W/m 19,1 C 19,9 C 11,3 km/h (2 Bft) 96,00 %
11.07.2016 23:28 19,9 C 95 % 1012,2 hPa 0,0 l/m 1,8 km/h (1 Bft) N 10 0 min 0,000 mm 0,0 UV-I 0 W/m 19,1 C 19,9 C 4,8 km/h (1 Bft) 98,00 %
11.07.2016 23:30 19,9 C 95 % 1012,2 hPa 0,0 l/m 0,9 km/h (0 Bft) N-NO 13 0 min 0,000 mm 0,0 UV-I 0 W/m 19,1 C 19,9 C 1,6 km/h (1 Bft) 97,87 %
11.07.2016 23:32 19,9 C 95 % 1012,2 hPa 0,0 l/m 2,4 km/h (1 Bft) N-NO 15 0 min 0,000 mm 0,0 UV-I 0 W/m 19,1 C 19,9 C 3,2 km/h (1 Bft) 93,62 %
11.07.2016 23:34 19,9 C 95 % 1012,2 hPa 0,0 l/m 4,9 km/h (1 Bft) SO 127 0 min 0,000 mm 0,0 UV-I 0 W/m 19,1 C 19,9 C 11,3 km/h (2 Bft) 100,00 %
11.07.2016 23:36 19,9 C 95 % 1012,2 hPa 0,0 l/m 5,8 km/h (2 Bft) SO 134 0 min 0,000 mm 0,0 UV-I 0 W/m 19,1 C 19,9 C 11,3 km/h (2 Bft) 96,36 %
11.07.2016 23:38 19,9 C 95 % 1012,2 hPa 0,0 l/m 5,3 km/h (1 Bft) S-SO 160 0 min 0,000 mm 0,0 UV-I 0 W/m 19,1 C 19,9 C 9,7 km/h (2 Bft) 97,62 %
11.07.2016 23:40 19,9 C 95 % 1012,2 hPa 0,0 l/m 5,0 km/h (1 Bft) S-SO 160 0 min 0,000 mm 0,0 UV-I 0 W/m 19,1 C 19,9 C 11,3 km/h (2 Bft) 97,87 %
11.07.2016 23:42 19,9 C 95 % 1012,2 hPa 0,0 l/m 2,2 km/h (1 Bft) SO 146 0 min 0,000 mm 0,0 UV-I 0 W/m 19,1 C 19,9 C 6,4 km/h (2 Bft) 95,74 %
11.07.2016 23:44 19,9 C 95 % 1012,2 hPa 0,0 l/m 2,5 km/h (1 Bft) S-SO 156 0 min 0,000 mm 0,0 UV-I 0 W/m 19,1 C 19,9 C 4,8 km/h (1 Bft) 97,56 %
11.07.2016 23:46 19,9 C 95 % 1012,2 hPa 0,0 l/m 1,9 km/h (1 Bft) SO 131 0 min 0,000 mm 0,0 UV-I 0 W/m 19,1 C 19,9 C 4,8 km/h (1 Bft) 98,00 %
11.07.2016 23:48 20,0 C 95 % 1012,2 hPa 0,0 l/m 3,5 km/h (1 Bft) S-SO 165 0 min 0,000 mm 0,0 UV-I 0 W/m 19,2 C 20,0 C 8,0 km/h (2 Bft) 98,11 %
11.07.2016 23:50 20,0 C 95 % 1012,2 hPa 0,0 l/m 2,7 km/h (1 Bft) S-SO 159 0 min 0,000 mm 0,0 UV-I 0 W/m 19,2 C 20,0 C 6,4 km/h (2 Bft) 97,56 %
11.07.2016 23:52 20,1 C 95 % 1012,2 hPa 0,0 l/m 2,2 km/h (1 Bft) S-SO 159 0 min 0,000 mm 0,0 UV-I 0 W/m 19,3 C 20,1 C 6,4 km/h (2 Bft) 93,62 %
11.07.2016 23:54 20,1 C 96 % 1012,2 hPa 0,0 l/m 2,8 km/h (1 Bft) S-SO 163 0 min 0,000 mm 0,0 UV-I 0 W/m 19,4 C 20,1 C 6,4 km/h (2 Bft) 97,87 %
11.07.2016 23:56 20,1 C 95 % 1012,2 hPa 0,0 l/m 1,7 km/h (1 Bft) S-SO 163 0 min 0,000 mm 0,0 UV-I 0 W/m 19,3 C 20,1 C 3,2 km/h (1 Bft) 98,00 %
11.07.2016 23:58 20,1 C 95 % 1012,3 hPa 0,0 l/m 2,7 km/h (1 Bft) S-SO 163 0 min 0,000 mm 0,0 UV-I 0 W/m 19,3 C 20,1 C 8,0 km/h (2 Bft) 100,00 %
_ Min-Zeit 05:34 16:16 20:13 - 01:38 - - - - - - 16:20 21:29 01:38 21:45
Minimum _ 17,9 C 37 % 1007,3 hPa - 0,0 km/h (0 Bft) - - - - - - 16,0 C 17,4 C 0,0 km/h (0 Bft) 86,96 %
_ Max-Zeit 16:30 23:06 22:56 20:57 21:29 - - 05:28 14:00 12:52 13:38 09:20 16:36 21:29 00:00
Maximum _ 32,9 C 96 % 1012,4 hPa 0,6 l/m 32,8 km/h
S-SW (5 Bft)
- - 2 min 0,635 mm 6,6 UV-I 939 W/m 20,4 C 32,9 C 46,7 km/h
S (6 Bft)
100,00 %
Durchschnitt _ 25,2 C 68 % 1010,2 hPa #18,0 l/m 4,3 km/h (1 Bft) S-SO - #10:50 h #5,207 mm 3,6 UV-I 448 W/m 18,1 C 25,1 C 7,5 km/h (2 Bft) 98,68 %